GFSMA_sfc_thetae_000.txt.gz
Theta_e
307 308 308 308 309 310 311 310 311 313 315 318 331 338 339 341 340 341 340 346 347 347 345 346 348 343 341 339 339 339 339 336 335 336 334 336 334 332 330 329 327 326 326
306 307 307 307 307 308 309 309 310 311 312 316 318 331 337 337 339 340 339 340 346 346 345 345 348 344 341 340 339 341 339 335 335 336 336 334 333 332 331 328 327 326 326
307 305 306 306 306 307 308 308 309 311 312 315 316 319 330 335 336 338 340 339 339 343 344 346 348 346 343 340 339 341 339 336 336 335 337 333 333 332 332 329 328 327 326
306 305 306 306 306 307 307 307 307 308 309 310 312 316 321 331 333 336 338 340 337 336 341 344 346 347 344 342 340 341 339 338 335 336 336 334 332 332 332 331 328 327 327
306 304 305 305 305 305 305 306 305 305 305 307 308 309 311 318 332 335 334 335 338 337 334 340 343 344 347 343 342 342 340 337 336 335 334 334 333 332 331 331 330 329 328
304 304 305 304 305 304 303 303 302 304 305 307 309 310 311 314 318 329 332 334 335 337 335 333 336 338 344 345 343 342 340 339 337 335 335 334 334 332 332 331 330 329 328
303 303 303 303 303 302 302 302 302 302 302 304 305 306 308 311 311 317 328 332 333 335 335 333 332 332 337 343 342 343 342 340 338 336 335 335 334 334 332 331 329 329 328
302 302 300 301 301 301 301 301 301 300 301 303 300 300 298 302 308 311 319 327 330 333 333 333 332 330 329 336 336 340 340 340 339 337 336 336 335 334 333 331 330 330 329
301 301 300 299 299 299 299 299 299 299 298 300 301 300 296 295 301 305 309 311 324 328 331 331 331 330 330 333 335 336 335 339 340 338 338 337 336 335 335 333 332 331 329
299 300 300 299 299 298 297 298 300 298 297 297 299 303 301 301 297 297 306 309 312 324 327 330 331 331 331 332 333 333 334 336 339 340 338 337 336 335 335 335 334 331 330
299 300 299 298 298 298 298 298 298 298 299 298 298 298 298 299 301 300 298 303 308 315 325 327 330 329 332 330 330 331 334 335 336 338 339 338 336 336 336 337 334 331 329
298 299 300 298 298 298 298 298 298 298 299 299 299 300 298 297 298 299 299 301 302 306 312 326 327 328 330 329 330 331 333 334 335 336 337 337 337 336 336 336 333 331 329
296 297 298 297 297 298 298 298 297 298 298 299 299 299 299 299 300 302 301 300 301 304 306 324 326 328 328 328 328 329 331 333 334 335 335 335 336 337 335 334 332 331 328
296 298 298 298 298 298 298 297 297 298 299 299 299 299 299 299 301 302 300 300 299 300 302 308 324 325 326 326 327 330 329 332 332 333 333 333 334 335 335 335 332 329 326
299 298 298 297 298 298 298 297 297 297 299 300 299 299 300 301 302 302 302 303 301 297 298 307 318 324 324 326 327 328 327 330 332 331 330 330 332 333 333 333 329 326 325
297 297 297 297 297 297 297 296 297 298 298 298 298 299 299 299 300 301 303 305 306 302 298 309 317 322 323 324 327 324 325 328 330 330 327 326 330 330 330 329 326 325 322
296 296 297 297 297 296 296 295 296 297 298 298 298 299 299 300 299 301 305 307 307 306 302 309 312 318 321 321 322 321 324 325 327 329 327 325 326 327 327 325 324 323 320
296 296 296 297 297 296 296 295 296 298 297 298 299 299 299 302 302 304 307 307 307 308 309 306 311 313 319 319 318 316 321 323 324 329 328 326 325 325 324 322 322 320 319
295 296 296 295 296 297 297 296 297 297 298 299 300 299 302 303 304 305 306 308 309 311 311 309 310 315 318 317 315 315 317 319 322 326 327 326 324 323 322 321 319 318 317
295 295 295 296 297 297 297 297 297 297 299 300 301 302 301 303 304 307 307 308 310 311 311 309 308 316 315 315 315 313 313 318 317 324 324 323 324 323 321 320 319 317 314
295 295 296 296 296 297 297 296 297 298 299 299 301 300 303 306 310 312 312 310 311 310 310 309 308 315 313 313 312 315 313 318 318 320 318 318 318 318 318 320 317 315 313
294 295 295 295 295 297 303 305 303 298 299 300 299 300 302 306 307 312 315 317 315 310 309 309 309 313 313 314 314 315 315 316 313 319 315 313 315 312 315 313 316 315 313
293 293 294 294 294 295 303 303 305 299 298 299 300 300 302 304 307 307 313 317 319 318 315 311 311 316 314 317 315 317 316 316 314 317 314 310 312 309 312 313 316 315 314
292 293 294 294 294 296 303 303 304 298 297 300 300 301 303 303 305 307 311 314 315 316 317 316 313 316 319 320 318 320 318 318 318 317 315 308 309 306 310 310 314 314 313
292 293 294 294 294 295 302 303 303 296 297 299 301 303 303 303 307 310 309 310 313 315 320 320 318 318 322 322 321 321 318 317 314 314 315 310 309 307 305 305 311 313 312
293 294 295 295 298 295 301 303 303 297 296 298 300 301 304 304 308 310 308 310 311 315 316 317 317 318 323 323 322 322 320 316 314 312 314 309 309 308 303 304 307 309 309

GFSMA_sfc_thetae_003.txt.gz
Theta_e
303 305 305 306 306 307 307 307 307 309 310 312 314 319 327 336 339 342 344 347 349 350 350 348 349 349 344 341 341 342 342 340 338 338 336 336 337 334 332 331 329 328 327
303 304 305 305 305 305 306 306 306 307 308 310 312 314 318 328 336 339 340 340 346 348 349 348 350 349 345 342 343 343 342 341 339 337 337 337 337 334 332 330 329 328 327
303 303 304 304 304 305 306 306 306 306 306 308 306 309 310 317 325 333 337 339 341 343 346 347 348 349 347 343 342 343 344 343 338 338 338 336 335 334 333 331 329 329 328
303 302 303 303 304 304 305 304 303 303 303 303 304 306 307 309 312 319 332 336 339 340 342 344 346 348 348 344 343 345 343 343 339 337 338 336 335 334 333 332 330 329 328
304 301 303 302 303 303 302 302 302 302 302 303 304 306 307 309 312 316 321 330 335 337 338 340 343 344 347 346 344 343 344 341 340 338 338 337 335 334 333 333 331 330 329
302 300 301 302 302 301 301 301 300 301 301 302 306 304 304 306 305 308 313 317 323 333 336 336 337 339 344 346 346 343 343 342 340 341 338 337 336 334 334 333 332 331 330
301 299 300 301 301 300 299 300 300 299 299 301 300 300 300 301 302 303 310 308 312 324 332 335 334 336 338 343 344 345 344 344 339 338 337 337 336 335 334 333 332 331 330
299 300 298 299 299 298 298 297 298 297 298 299 297 297 294 296 299 303 303 304 308 313 316 330 333 333 333 336 338 340 341 345 341 339 338 337 336 336 334 333 332 331 330
299 298 298 297 297 297 296 296 296 296 295 296 297 297 292 290 296 300 300 301 305 310 314 317 330 332 332 332 338 336 337 341 343 341 339 337 338 337 336 334 333 332 330
297 298 298 297 296 296 296 296 299 296 295 294 296 299 298 298 293 291 297 299 303 308 309 313 315 329 331 330 334 335 336 338 339 342 340 338 339 338 338 336 333 332 331
297 298 297 296 296 296 296 296 296 296 296 294 294 295 296 296 296 295 292 295 299 304 308 309 310 310 328 330 331 335 336 337 337 339 341 340 339 338 338 338 335 333 332
296 296 297 296 296 296 295 296 296 295 296 296 296 296 296 295 295 295 294 294 294 299 306 308 309 311 313 329 332 333 335 336 336 337 338 340 340 339 339 339 338 334 331
294 295 295 296 295 296 296 296 295 295 295 295 296 297 298 300 300 298 297 294 294 298 303 305 308 309 312 323 332 332 333 335 335 336 336 337 338 338 340 339 338 334 332
294 295 296 296 297 296 296 296 295 295 295 295 296 297 299 299 299 298 297 295 293 296 299 300 307 308 309 312 332 332 332 334 334 335 335 335 335 337 338 338 337 333 331
297 296 296 296 296 296 296 296 295 294 295 296 298 298 298 298 300 301 300 299 297 292 294 300 303 308 312 315 329 331 330 332 334 333 333 333 333 335 334 336 335 333 329
294 295 296 296 296 296 296 295 295 295 295 297 298 298 298 299 300 301 300 299 299 297 294 302 305 307 312 318 329 330 329 330 332 332 330 329 331 333 333 333 331 329 328
294 295 295 295 295 295 295 294 293 294 295 296 297 298 299 300 300 300 301 301 300 300 298 301 307 308 309 311 325 328 327 328 330 332 330 328 329 330 330 328 326 327 324
294 294 295 295 295 295 294 294 294 295 295 295 297 297 299 301 300 301 301 301 302 303 303 302 306 308 310 313 321 324 326 327 328 330 329 328 327 327 325 324 324 322 321
293 294 295 294 294 295 295 295 295 295 295 296 297 297 299 300 299 300 301 303 305 308 307 305 304 307 312 314 320 322 324 324 326 327 328 327 326 325 323 322 320 319 318
293 293 293 294 295 295 296 296 296 295 295 297 298 299 300 301 299 300 304 305 307 306 307 307 306 307 311 314 319 318 318 321 321 325 325 324 326 324 323 321 319 317 315
293 293 293 294 294 295 296 296 296 296 296 296 298 300 301 303 306 307 307 307 309 307 306 307 307 309 309 309 314 317 315 316 318 322 321 321 321 320 320 321 318 316 314
291 292 292 293 293 296 302 304 303 298 298 298 296 298 301 303 304 309 309 312 312 308 308 308 308 308 309 313 315 314 314 312 312 321 319 317 318 315 316 315 317 315 313
290 291 291 292 292 294 302 304 304 300 297 297 296 298 299 302 304 303 307 311 312 316 315 311 309 308 309 313 315 312 314 313 312 317 316 313 315 312 314 314 316 315 313
290 290 291 291 292 294 303 304 304 299 298 296 297 298 300 301 300 303 305 306 308 311 315 315 312 312 311 316 317 315 316 314 314 317 315 308 311 306 310 310 315 314 313
290 290 291 291 291 293 301 303 300 297 296 296 297 300 300 300 303 307 306 305 306 309 316 319 317 316 316 317 319 317 315 312 311 311 312 309 308 303 303 305 312 313 311
290 291 291 291 295 293 298 301 299 295 294 295 299 299 302 301 305 307 305 306 306 310 315 316 316 316 317 317 320 319 317 313 311 308 311 306 306 305 301 302 305 309 308

GFSMA_sfc_thetae_006.txt.gz
Theta_e
301 302 303 303 303 303 304 304 304 305 305 306 307 308 310 312 319 326 335 344 348 348 348 351 351 349 347 343 344 343 342 340 338 338 338 337 337 336 335 332 330 330 329
300 302 302 303 302 302 304 303 302 303 302 304 304 305 305 307 311 315 321 328 337 344 346 347 350 350 349 346 344 345 345 343 341 338 338 338 339 337 334 333 331 329 329
301 301 302 301 301 302 303 303 302 302 302 304 302 304 306 305 308 311 315 321 329 337 341 343 346 348 348 348 344 346 346 343 341 339 337 337 339 337 334 332 331 330 330
301 300 301 301 301 302 302 301 301 300 300 300 299 301 302 305 306 304 307 311 315 319 328 338 342 346 347 347 346 346 345 345 342 340 338 338 338 336 335 333 331 331 330
302 299 300 300 301 300 300 300 300 300 298 299 301 300 301 303 302 303 304 308 310 311 316 327 336 341 344 345 346 345 346 345 344 341 340 341 338 335 335 334 332 331 330
300 298 298 299 300 299 298 299 297 299 298 298 302 302 300 300 299 299 299 304 304 305 309 312 316 332 341 342 346 346 346 344 344 342 340 340 338 336 334 336 334 332 331
299 297 297 298 299 298 297 298 297 297 296 297 296 295 296 296 295 297 301 302 301 302 307 313 315 319 333 341 342 345 346 344 344 342 338 338 338 336 334 334 334 333 331
298 297 297 296 297 296 296 295 295 294 296 296 293 292 289 292 294 297 298 299 298 302 303 306 313 315 314 333 334 339 340 346 345 343 339 338 339 337 336 335 333 333 332
298 297 296 296 295 295 294 294 294 293 292 294 295 293 288 287 293 294 296 296 297 299 301 306 313 313 312 310 333 335 336 340 345 345 340 338 339 339 337 335 334 333 332
295 296 296 295 294 294 294 294 297 294 293 292 293 297 295 294 291 290 295 296 298 298 299 300 304 311 311 310 313 334 336 337 339 343 343 339 339 339 338 336 334 333 332
295 296 295 295 294 294 294 294 294 294 293 292 292 292 293 294 293 292 290 294 298 299 299 299 301 308 311 311 312 314 336 336 337 339 341 341 340 340 339 337 335 333 333
294 295 296 295 294 294 294 295 294 293 293 293 294 294 293 293 292 292 293 294 294 296 298 298 301 307 309 310 312 314 316 336 336 337 338 339 341 341 340 339 337 335 334
293 293 294 294 294 294 295 294 293 293 293 293 292 294 294 295 297 298 296 293 292 296 297 300 301 305 308 310 310 312 314 332 335 336 337 337 339 339 340 339 338 336 334
293 294 294 294 295 295 295 294 293 294 293 293 293 293 295 296 299 299 296 295 291 294 296 296 301 302 306 309 311 315 313 322 333 335 336 336 336 337 338 339 339 337 334
295 294 294 294 295 295 295 294 293 293 293 293 294 294 295 297 298 298 299 298 295 291 291 296 298 301 307 310 313 313 315 319 333 333 333 333 335 335 337 338 338 336 334
293 294 293 294 294 294 294 293 293 293 293 294 295 295 296 297 297 299 299 300 299 296 292 296 297 300 305 311 311 312 313 319 331 333 332 330 332 334 335 336 334 333 331
292 293 294 294 294 293 293 292 292 293 292 293 294 295 296 297 297 298 300 300 299 298 294 298 300 303 305 307 309 312 314 321 330 333 332 329 330 331 332 331 331 330 328
292 293 293 293 293 293 293 292 292 293 293 293 294 294 295 298 297 299 300 300 299 299 298 297 300 302 305 308 309 312 314 328 330 332 332 330 328 328 328 328 326 326 324
291 292 293 292 293 293 293 293 293 294 294 294 294 294 295 296 296 298 300 299 300 302 302 301 301 306 306 307 307 312 313 327 329 329 330 329 328 327 326 324 323 321 320
291 291 292 292 293 293 294 294 294 293 294 295 295 296 297 297 297 299 301 301 302 304 305 304 303 305 306 307 309 311 315 325 325 328 329 328 328 326 324 323 321 318 316
291 291 291 292 292 293 295 294 295 295 294 295 296 297 298 300 305 305 302 302 302 303 305 304 305 305 305 304 305 310 318 322 324 325 324 325 325 323 322 323 319 317 314
290 290 291 291 291 294 300 302 302 297 296 296 296 297 297 301 302 306 306 307 306 306 306 305 305 304 304 307 310 309 316 318 316 324 321 320 323 320 319 318 318 316 314
289 289 289 290 290 290 300 303 303 298 298 297 298 296 296 299 302 301 304 306 308 310 312 310 306 307 307 310 311 311 316 318 317 320 320 315 319 316 316 315 316 315 314
288 289 289 290 289 291 301 302 302 294 293 294 295 296 296 298 300 300 300 303 304 306 308 312 310 312 313 313 313 318 318 319 318 320 320 312 316 312 311 312 315 314 313
288 288 289 289 288 289 299 302 299 293 293 293 295 296 297 298 302 304 302 302 304 306 312 315 316 316 316 316 315 317 316 313 312 315 317 312 311 307 306 311 312 313 311
289 290 290 289 292 291 297 300 299 294 293 295 297 296 300 299 303 305 303 303 303 305 311 314 315 315 316 316 317 317 316 313 312 310 312 309 308 306 303 305 309 309 308

GFSMA_sfc_thetae_009.txt.gz
Theta_e
300 301 301 302 301 302 302 301 301 302 301 302 302 302 303 304 307 312 315 322 325 333 339 344 346 347 348 348 344 346 344 342 341 340 339 338 337 336 335 333 332 331 331
300 301 300 301 300 300 301 300 300 300 299 300 301 302 302 302 305 306 309 310 320 323 328 332 339 343 345 348 347 347 347 345 344 342 338 339 338 337 336 334 332 331 330
299 300 300 299 299 300 301 300 299 300 298 300 298 300 301 302 302 299 303 307 311 313 315 318 324 332 340 346 347 348 347 346 345 344 340 339 339 338 337 335 333 331 331
300 299 299 299 300 300 300 299 298 299 297 297 296 297 298 300 298 299 302 306 303 305 307 313 318 323 327 335 346 347 347 346 346 344 341 340 338 339 337 334 333 332 331
300 298 298 298 300 299 298 299 297 298 296 296 299 297 297 297 297 298 296 302 301 302 302 309 313 316 321 328 335 345 346 347 346 345 343 341 340 340 337 336 333 332 331
299 297 297 297 298 298 297 297 295 297 296 296 300 298 296 297 296 295 296 299 300 299 301 305 303 307 318 322 326 334 345 345 346 346 344 342 341 339 338 337 334 332 332
298 296 296 296 297 297 295 296 295 295 294 295 294 293 293 294 292 294 294 297 298 299 300 301 302 305 311 319 319 322 327 346 346 345 343 340 342 340 338 337 336 334 332
297 296 295 295 296 295 294 294 294 293 294 294 292 290 287 289 291 295 295 297 295 296 299 300 302 302 306 308 312 316 319 326 346 345 343 341 340 340 339 337 337 336 333
297 296 295 294 294 294 293 293 293 292 291 293 293 292 287 285 291 291 292 294 293 295 297 298 300 302 302 305 311 312 314 320 330 345 345 342 340 340 339 338 336 336 335
295 295 295 294 293 293 293 293 296 293 292 291 291 296 293 292 288 288 291 293 294 296 296 298 299 300 301 302 310 313 314 316 320 341 344 343 341 340 340 339 337 336 335
294 295 294 294 293 293 293 293 292 292 292 291 290 291 290 291 291 290 288 291 295 296 297 297 298 299 300 302 308 312 313 314 317 320 342 344 343 340 341 340 337 336 335
293 294 295 294 293 293 293 293 293 292 291 291 291 292 291 290 289 289 288 291 292 295 296 298 298 299 301 303 308 312 313 313 316 319 326 341 341 341 341 341 339 337 335
292 293 293 293 292 293 293 293 292 291 291 291 291 291 292 293 294 293 292 292 292 294 295 298 299 301 301 302 304 311 312 313 316 319 324 338 338 339 341 341 339 338 336
292 293 293 293 293 294 294 293 292 292 292 292 291 291 293 293 294 295 294 293 291 292 295 296 300 301 301 302 305 310 310 313 316 318 321 336 336 336 339 340 340 339 336
294 293 293 293 293 293 293 293 292 291 292 292 292 292 292 294 294 296 296 296 293 290 291 296 296 301 300 302 305 307 310 315 316 317 321 333 334 335 338 339 339 338 338
292 293 293 292 292 293 293 292 291 292 291 292 293 292 293 294 295 296 296 296 297 295 291 297 298 300 301 303 304 306 310 313 316 316 319 330 333 334 336 336 336 335 334
292 292 292 292 293 292 292 291 290 291 291 291 292 292 293 294 294 295 296 296 296 298 294 297 298 300 300 301 302 306 310 311 312 316 323 329 330 332 333 333 333 332 331
292 292 292 292 292 292 291 290 290 291 291 291 292 292 293 296 294 295 296 296 297 299 297 295 297 298 300 303 304 305 310 314 315 318 329 330 329 329 329 330 329 329 327
291 291 292 291 291 292 291 291 291 291 291 292 293 293 293 294 294 295 295 296 298 300 301 299 298 302 303 305 304 308 310 311 314 319 331 330 329 328 328 326 325 324 322
290 290 290 291 291 292 292 292 292 291 292 293 294 295 295 295 295 295 296 298 301 301 300 299 300 302 302 305 306 304 306 310 313 326 330 330 329 328 327 325 323 320 318
290 290 290 291 291 291 293 292 292 293 293 294 295 296 296 299 305 303 300 300 300 299 299 299 302 303 302 304 303 306 307 310 317 327 327 327 327 326 325 325 321 318 316
289 289 289 290 290 293 299 301 300 295 295 294 295 295 296 300 299 304 305 305 303 301 301 302 304 303 303 301 305 305 306 306 316 327 324 323 326 323 323 321 320 317 316
288 288 288 289 289 289 299 301 302 295 293 292 292 293 294 297 299 298 302 304 304 308 308 306 305 306 303 306 307 308 308 307 319 324 324 320 324 319 319 317 317 316 316
288 287 288 288 288 290 300 301 302 294 292 292 293 293 294 294 296 299 298 300 302 303 306 308 309 310 307 312 312 312 312 311 321 323 323 316 319 314 315 315 315 315 314
287 287 288 288 287 288 298 301 299 292 292 292 293 294 294 295 300 303 300 300 302 302 307 311 312 315 315 315 314 313 312 315 315 317 320 315 312 309 311 312 313 313 312
288 289 289 288 291 289 296 300 298 293 290 292 295 295 300 298 301 303 300 302 298 300 304 305 307 315 315 315 316 314 315 316 315 314 316 309 310 307 303 308 310 309 309

GFSMA_sfc_thetae_012.txt.gz
Theta_e
299 300 299 299 299 300 299 299 299 298 299 299 300 300 300 301 302 305 307 318 320 321 324 326 330 333 337 341 347 347 347 346 342 342 342 341 338 339 336 335 334 332 332
299 300 299 299 298 299 299 298 298 297 297 297 298 299 299 299 299 300 303 307 313 314 316 319 323 327 331 334 337 342 347 347 346 345 344 341 340 339 338 337 335 333 332
299 299 298 298 298 299 299 298 297 297 296 298 296 296 298 298 298 298 301 304 303 308 310 314 317 319 323 327 332 336 341 347 347 346 344 342 341 340 339 338 336 333 332
299 298 298 298 299 299 298 298 297 297 295 295 295 295 295 296 297 295 298 301 301 302 303 311 313 314 317 322 327 331 335 340 347 346 345 343 341 341 340 339 336 335 332
299 298 297 297 299 298 297 298 295 296 294 294 297 296 294 294 295 297 294 297 300 300 300 307 310 310 314 318 324 327 328 332 341 346 345 344 343 342 341 339 337 335 333
298 296 296 297 297 297 295 295 294 295 295 294 298 296 293 293 295 294 294 297 299 299 299 303 300 303 311 313 316 318 322 326 330 336 345 344 344 343 340 340 337 335 333
298 295 295 296 297 296 294 295 294 294 293 294 292 292 292 292 292 293 293 295 298 298 297 300 300 302 302 309 311 314 318 322 324 329 341 344 344 343 340 340 338 336 334
297 295 294 295 295 294 293 293 293 292 292 293 291 289 286 289 290 292 294 295 295 295 297 299 299 301 300 302 304 310 311 317 321 324 332 343 344 343 343 340 339 338 335
296 295 294 294 294 293 293 292 292 292 290 291 292 290 286 284 288 290 291 292 293 294 295 297 299 300 300 300 303 304 309 314 319 321 326 331 345 344 342 341 340 339 337
295 295 294 294 293 293 292 292 294 292 291 289 290 294 292 290 287 286 290 292 292 294 295 296 297 298 299 300 303 306 309 313 317 317 322 329 338 345 343 342 340 339 338
293 294 294 293 292 292 292 292 291 291 291 290 289 289 289 290 289 288 287 289 293 293 295 295 296 297 299 300 300 303 309 311 315 316 318 324 328 345 344 343 340 339 338
292 293 294 292 292 292 292 292 291 291 290 290 290 290 290 289 288 288 286 290 290 293 295 295 296 298 299 301 303 307 309 310 313 315 316 320 324 333 344 343 341 339 338
291 292 292 292 292 292 293 292 291 291 290 289 289 290 290 291 292 291 290 290 290 293 294 295 297 298 300 301 302 306 307 310 312 314 314 318 322 328 342 342 342 339 338
292 293 293 292 292 292 293 292 291 291 291 290 290 290 290 291 292 292 291 290 289 291 293 293 297 299 300 301 304 307 305 310 311 313 314 317 319 325 339 340 341 339 339
294 293 292 292 292 292 292 292 291 291 290 290 290 290 290 291 292 293 293 293 291 288 289 293 294 298 300 302 304 303 302 307 310 313 314 318 318 322 337 338 339 338 337
293 293 292 292 292 292 292 291 290 290 290 290 291 290 290 291 292 293 294 294 294 292 289 295 296 298 300 302 304 303 304 307 309 313 315 316 318 320 335 336 336 335 335
292 292 292 292 292 292 291 290 289 290 289 290 290 290 291 292 292 293 293 294 294 294 292 294 297 300 301 301 301 302 304 303 304 311 315 316 318 321 332 333 333 333 333
292 292 292 291 292 292 291 290 289 290 289 289 290 291 291 294 292 293 293 293 294 295 294 293 297 299 300 302 302 302 303 305 308 312 316 317 320 324 329 330 330 331 330
290 291 291 291 291 291 290 290 290 290 290 290 291 291 292 293 292 293 293 294 295 296 296 296 297 300 301 302 302 303 303 303 308 312 317 318 319 327 328 328 327 326 325
289 290 290 291 291 291 291 291 291 290 290 292 293 293 293 293 293 294 294 295 296 296 299 298 297 299 301 304 304 302 302 305 306 312 316 318 325 329 328 327 325 322 320
290 290 289 290 290 291 292 290 291 291 291 292 293 294 295 297 303 301 298 297 297 296 297 298 297 299 300 302 301 304 303 305 307 311 313 319 328 328 328 326 323 320 318
289 289 288 289 289 292 298 301 299 293 293 293 292 293 294 298 297 303 304 304 302 298 298 298 300 299 302 304 305 305 303 304 303 312 309 324 328 325 326 325 322 318 317
287 288 288 288 288 288 299 301 301 294 293 291 290 291 292 296 298 295 300 303 303 304 306 304 301 301 304 306 306 305 305 306 307 314 322 321 326 323 324 321 318 317 317
287 287 287 288 288 290 299 301 301 293 291 291 291 291 291 293 294 297 298 298 299 301 304 303 304 306 307 310 308 308 308 309 311 312 326 318 323 317 319 318 316 316 316
286 287 288 287 287 288 297 300 298 292 291 291 292 292 292 294 299 302 298 298 299 301 305 308 309 309 312 315 313 311 308 308 308 317 323 317 316 314 315 314 315 314 313
288 288 288 287 291 288 296 298 298 292 289 290 292 293 300 298 301 302 299 298 298 299 303 302 302 305 310 314 315 312 313 311 311 315 317 313 313 310 305 310 312 312 311

GFSMA_sfc_thetae_015.txt.gz
Theta_e
309 309 308 309 308 308 307 307 306 306 306 305 305 305 305 306 307 309 311 314 316 318 321 324 326 328 330 333 335 339 344 347 345 343 343 343 341 339 339 336 335 333 333
309 309 308 308 308 308 307 307 305 305 305 304 304 304 305 305 306 305 306 309 311 313 315 318 320 322 324 327 330 333 337 342 346 347 346 344 342 340 339 338 336 336 334
309 308 308 307 308 308 307 306 306 305 304 304 304 304 304 305 305 303 306 307 307 308 310 314 316 317 319 322 325 329 331 334 338 345 346 345 343 342 341 339 339 337 334
309 308 307 307 308 308 308 306 306 304 304 303 303 304 304 306 305 303 304 306 307 306 306 311 312 313 315 317 319 323 325 327 332 335 344 345 345 344 342 340 340 338 335
308 308 307 307 308 307 307 305 305 305 303 303 302 304 303 305 305 304 303 304 306 307 306 307 309 309 313 315 316 317 318 321 326 329 332 339 345 345 344 342 341 339 336
306 307 306 307 307 306 306 305 304 304 304 303 301 301 302 304 306 304 303 303 304 306 306 307 307 307 309 311 313 315 317 319 319 322 327 332 340 345 344 343 341 340 337
305 306 305 305 306 305 305 304 304 303 303 303 301 300 301 302 303 304 304 303 303 304 304 306 306 306 306 308 309 312 316 316 317 319 320 329 334 342 344 344 343 340 337
305 304 304 305 305 304 304 303 304 302 303 303 298 298 295 299 301 301 302 302 302 303 303 304 304 305 306 306 307 309 310 314 317 318 320 321 328 333 343 343 343 340 338
305 304 303 304 304 304 303 303 303 302 300 302 300 299 295 293 296 300 300 301 301 301 302 303 304 304 305 305 306 307 307 311 315 318 319 319 322 328 334 343 343 342 339
303 303 303 303 303 303 302 302 302 302 301 299 300 300 301 299 294 293 299 300 301 300 301 302 303 304 305 305 306 307 308 310 312 315 318 320 321 323 330 337 343 343 341
302 303 302 302 302 302 302 302 302 301 301 300 299 299 299 299 299 296 292 296 299 301 301 301 302 303 304 305 305 307 308 310 312 313 315 318 319 321 327 331 344 342 342
301 302 301 302 302 302 302 302 302 301 301 300 300 299 299 297 296 296 294 295 295 298 300 302 302 303 304 305 306 307 309 310 310 312 313 315 318 319 324 330 339 343 342
299 300 301 300 301 302 302 302 301 301 301 300 300 299 299 299 300 298 296 295 294 297 299 301 302 303 303 305 305 307 308 309 311 311 313 314 316 317 320 325 328 343 341
301 301 301 301 301 301 301 301 301 301 301 300 300 300 299 299 300 299 297 295 294 295 297 298 302 302 304 304 305 308 307 309 310 310 311 313 314 316 318 323 325 339 340
300 301 301 300 300 300 300 301 300 300 300 300 300 300 299 299 300 299 299 298 296 292 294 298 298 303 303 304 305 306 306 308 310 310 310 311 312 315 319 322 324 337 338
301 300 300 300 300 300 300 300 300 300 299 299 299 299 299 299 299 300 300 300 299 297 294 298 300 302 303 303 306 305 306 308 309 310 310 310 312 315 320 321 321 334 335
300 300 299 299 299 299 299 299 299 299 298 298 299 298 298 299 299 300 300 300 299 299 296 299 301 302 302 303 304 305 306 306 308 309 311 310 311 314 318 319 321 333 333
300 299 299 299 298 299 299 298 298 297 297 297 298 298 298 299 300 300 300 300 300 300 299 297 300 301 302 303 305 303 303 306 306 308 310 310 311 313 318 318 326 331 330
299 299 299 298 298 298 298 298 297 297 298 297 298 298 299 299 299 300 300 299 300 300 300 299 298 302 303 305 302 304 304 304 307 308 310 312 313 315 318 319 326 327 327
298 298 298 298 298 298 297 297 297 298 297 298 299 299 300 300 299 299 300 300 300 301 301 300 300 301 300 302 302 301 301 305 304 306 310 312 313 316 318 319 326 324 323
297 297 297 297 297 297 296 297 298 298 298 298 300 300 301 301 303 302 300 300 301 300 299 298 299 298 297 299 300 303 303 305 308 308 310 312 314 314 314 324 325 322 320
296 296 296 296 296 296 299 301 300 299 299 299 299 300 300 300 300 302 303 303 302 298 297 299 297 297 300 300 301 304 306 304 301 312 309 310 314 311 318 331 325 321 319
295 295 295 295 295 297 301 302 302 300 300 300 299 298 298 298 300 299 301 302 302 303 304 301 298 300 299 301 303 303 305 305 306 311 309 307 311 312 329 326 321 319 318
295 295 295 295 296 296 300 302 302 300 300 300 299 298 298 298 299 299 299 299 299 300 302 302 303 303 305 305 305 306 307 309 310 313 312 306 316 322 324 322 318 317 317
295 294 295 295 295 296 300 302 301 299 299 298 298 299 299 299 301 302 299 298 300 301 304 306 308 307 308 309 312 310 307 306 305 311 315 316 319 318 318 317 317 315 314
294 294 294 295 296 295 298 301 300 299 297 297 298 299 300 300 302 303 300 300 299 300 300 303 302 303 305 307 314 314 311 306 308 312 318 315 317 314 307 315 315 315 315

GFSMA_sfc_thetae_018.txt.gz
Theta_e
314 313 313 313 313 313 312 311 311 311 309 308 308 309 309 309 311 313 315 314 316 318 322 324 325 326 327 329 332 335 338 341 346 345 345 342 340 340 341 338 338 335 334
314 313 312 312 312 313 313 312 311 311 310 309 308 307 309 309 310 309 312 313 311 313 317 319 320 320 322 324 327 331 334 335 340 343 346 346 344 343 342 340 338 336 335
314 313 312 312 312 312 310 311 310 311 310 310 308 309 309 310 310 308 310 311 311 308 311 314 316 317 318 320 321 323 325 328 332 337 338 345 346 344 344 341 339 338 337
314 313 312 311 312 312 311 310 310 310 310 310 309 310 310 309 308 308 309 309 310 309 308 310 312 314 315 317 318 319 319 321 324 329 333 336 343 345 345 342 340 340 338
313 313 312 312 312 311 310 309 309 310 309 309 307 308 308 308 308 306 307 308 309 310 309 308 309 308 312 315 316 316 317 319 320 322 325 331 336 341 345 345 342 341 340
313 312 312 311 311 310 309 309 308 309 309 308 305 305 307 308 308 307 307 307 307 308 309 309 310 309 308 310 313 315 317 318 318 318 321 323 330 336 342 345 344 342 340
312 312 311 310 311 309 309 309 308 306 307 308 305 306 306 306 305 307 307 306 306 307 308 307 308 308 308 310 310 311 316 317 317 318 318 322 323 328 335 340 344 344 342
311 310 310 310 310 309 309 308 308 306 307 307 303 303 303 303 306 305 306 306 305 306 306 306 307 307 308 309 310 309 309 313 317 318 319 320 322 323 327 333 338 344 343
310 309 309 309 309 309 308 308 308 307 304 306 304 302 300 300 300 305 304 305 305 305 306 306 306 307 307 308 309 310 309 311 314 316 318 320 321 321 322 327 333 341 343
309 309 308 308 308 308 307 307 307 306 305 302 304 303 304 301 298 297 304 303 304 303 305 306 305 306 307 307 309 309 309 310 312 314 317 319 320 322 321 321 328 333 340
309 309 308 307 307 308 307 307 305 305 305 303 303 303 302 302 301 298 296 300 302 304 304 305 305 306 306 307 307 309 309 310 312 313 315 316 318 320 322 322 321 328 335
308 308 307 307 307 307 307 306 306 305 305 304 303 303 301 300 299 298 297 297 297 300 303 304 305 305 306 306 307 310 309 310 311 312 313 315 316 318 320 321 319 324 333
307 307 307 306 306 307 307 307 306 305 305 304 303 303 303 302 302 300 298 297 296 300 301 303 304 306 306 306 307 310 309 310 311 312 313 314 315 316 318 319 318 320 327
308 308 307 306 306 306 306 306 305 305 305 304 304 304 303 302 302 301 299 297 295 297 299 301 305 305 306 306 307 309 307 310 310 311 312 313 313 314 315 317 317 317 325
308 308 307 306 305 305 305 305 304 304 304 304 304 304 302 302 302 302 301 300 297 293 295 300 301 305 305 306 308 307 307 310 310 310 311 311 312 314 314 316 317 317 320
308 307 306 305 305 305 304 304 304 304 303 304 303 302 302 302 302 302 301 301 301 298 297 301 302 304 305 305 307 307 307 311 310 311 311 311 312 312 313 314 315 315 319
307 306 305 305 304 304 303 303 303 303 302 302 302 302 301 302 301 301 302 302 302 302 299 301 303 304 303 304 305 306 307 307 309 311 311 311 311 311 312 312 315 315 318
307 305 305 304 303 303 303 302 302 301 301 301 301 301 300 300 300 302 303 302 302 302 301 299 301 302 303 305 305 305 306 307 306 309 310 311 311 311 311 312 315 315 318
306 305 304 303 302 303 302 302 302 301 300 301 301 300 299 300 301 302 302 302 302 301 301 301 301 303 304 305 305 304 304 305 305 309 311 311 311 311 311 313 314 314 318
304 304 303 303 303 302 302 302 301 301 300 301 300 300 300 301 302 302 301 301 301 301 300 301 301 301 301 304 304 301 300 303 304 307 309 310 311 311 312 313 313 316 316
304 304 303 302 303 302 301 301 301 301 301 300 300 301 302 303 304 303 302 301 301 299 298 299 299 300 301 302 300 300 301 302 305 310 307 308 311 312 312 314 315 317 317
304 303 302 301 301 300 305 305 303 301 300 300 300 301 302 303 302 303 303 303 302 299 299 298 300 300 302 300 300 300 300 300 298 312 309 307 312 311 311 315 317 320 321
303 302 301 301 301 301 303 304 303 301 301 301 301 301 301 300 301 301 302 302 303 303 304 302 300 300 298 300 301 301 302 301 301 309 310 307 313 310 314 315 315 320 320
303 302 301 301 301 301 303 305 304 302 301 302 301 301 301 300 301 300 300 301 301 302 303 303 302 302 302 304 304 304 303 304 306 312 313 305 312 310 313 314 319 318 317
302 301 301 300 300 300 303 304 303 301 300 301 301 301 301 300 301 302 301 301 300 301 304 306 307 308 308 308 307 305 305 304 304 307 312 311 311 309 313 318 318 316 315
302 302 300 300 302 300 303 303 302 300 299 299 300 301 301 301 301 302 302 300 298 300 302 302 304 306 305 304 307 313 311 307 306 307 314 310 314 316 313 317 317 316 314

GFSMA_sfc_thetae_021.txt.gz
Theta_e
316 316 315 315 314 314 313 312 312 311 310 309 309 309 309 309 311 313 316 314 316 319 322 323 324 325 327 329 332 336 336 338 343 346 346 345 343 343 341 340 339 338 335
317 316 315 314 314 313 313 312 311 311 310 310 309 308 309 309 310 309 311 313 312 313 316 318 319 320 322 323 324 327 328 330 334 339 342 344 346 345 344 343 340 339 337
317 316 315 314 314 313 311 311 310 310 310 309 308 309 309 309 309 308 310 311 312 312 311 313 315 316 318 319 320 321 322 323 325 331 335 338 344 346 346 344 341 340 338
317 316 315 314 314 313 312 311 310 309 309 309 308 309 309 308 308 307 309 309 311 310 311 310 311 312 314 316 318 318 318 319 321 323 325 329 335 341 344 346 344 341 340
316 316 315 314 314 313 312 311 310 309 308 309 308 307 308 308 308 307 307 309 311 311 311 310 309 311 310 313 315 316 317 318 319 319 321 323 326 333 339 343 344 343 341
316 316 316 315 313 312 311 311 309 309 308 308 306 305 307 308 308 308 307 308 310 309 311 311 312 310 309 310 312 314 316 318 319 319 320 320 323 325 331 337 340 344 343
316 317 316 314 314 313 311 311 309 308 308 308 305 307 307 307 306 307 308 307 309 308 309 310 311 310 309 311 311 311 314 316 317 318 320 320 321 322 325 327 332 338 343
316 314 314 314 313 313 312 311 312 308 307 307 303 304 303 304 305 305 307 306 305 307 307 307 307 308 310 310 313 309 311 312 315 318 318 320 321 322 323 324 324 331 337
316 314 314 313 312 313 312 312 311 312 307 307 305 302 300 300 302 305 305 305 306 306 306 306 306 307 307 308 312 313 312 311 313 316 318 319 320 321 322 323 323 325 333
314 313 312 312 312 312 311 311 310 309 309 305 305 304 303 302 298 297 304 304 305 304 305 307 306 306 307 308 312 314 312 311 311 313 316 317 319 320 321 322 324 323 322
314 313 311 311 311 312 310 310 309 307 308 306 306 304 303 303 302 299 296 300 303 304 305 305 306 306 307 308 309 311 314 311 311 312 314 316 317 319 320 322 323 323 322
312 312 311 311 311 311 310 310 309 308 307 305 306 305 303 301 300 300 298 298 298 301 303 305 306 307 308 308 310 313 311 310 311 311 312 314 316 318 319 320 321 322 323
310 311 311 310 310 311 311 311 309 308 307 306 305 304 304 303 303 301 299 298 297 300 301 304 305 306 306 308 308 313 312 310 311 311 312 313 314 315 316 318 319 321 322
311 312 311 310 310 310 310 310 309 308 308 307 307 306 305 304 304 303 301 298 296 297 300 300 305 306 307 307 310 313 307 312 314 313 311 312 313 313 315 317 317 318 319
312 312 311 310 309 309 309 309 307 306 306 305 305 306 304 304 304 304 303 301 298 294 295 299 300 305 306 307 309 307 306 311 311 313 313 311 312 313 314 315 316 316 318
313 311 310 309 309 308 308 308 307 306 305 305 305 304 303 303 303 304 303 302 301 299 295 301 302 304 305 305 307 307 306 311 312 311 313 312 311 312 313 314 314 315 316
313 311 310 309 308 307 307 305 304 304 304 304 305 304 302 303 303 303 303 302 302 302 298 301 303 305 303 303 304 306 307 306 307 310 311 313 313 312 312 313 313 314 314
312 310 309 308 307 306 306 304 304 303 303 303 303 303 301 301 302 303 302 302 302 303 301 298 301 302 302 303 305 304 303 305 307 308 310 311 312 313 312 312 313 313 314
311 309 308 307 306 305 305 304 304 303 302 302 302 301 301 301 299 301 302 302 303 302 302 300 299 302 303 304 303 303 303 304 306 309 310 311 311 313 313 313 313 313 313
310 308 307 306 306 305 304 304 303 303 302 301 301 302 300 300 300 301 301 302 301 301 301 300 299 299 301 302 303 301 302 305 303 305 308 309 311 312 312 314 313 313 312
309 308 306 306 305 305 304 304 303 303 302 301 301 300 301 302 304 304 302 301 301 299 299 298 298 298 298 299 299 301 300 300 301 304 304 305 307 309 310 312 312 312 312
308 307 306 304 304 303 308 308 305 302 302 301 300 300 301 304 304 305 304 304 303 300 298 297 296 296 297 300 300 299 299 298 296 304 303 303 309 308 310 311 312 312 313
308 306 305 304 303 303 310 309 308 303 302 301 300 301 301 301 302 300 302 303 303 304 304 301 298 298 299 301 300 299 300 299 299 303 303 301 308 307 311 312 313 313 313
306 306 304 304 304 303 309 308 306 303 302 302 302 302 302 301 301 300 300 299 301 302 303 302 302 303 304 304 304 304 303 302 303 304 306 300 308 307 311 311 313 313 313
306 305 304 304 303 303 308 307 305 301 301 302 302 302 302 301 302 301 300 300 300 301 304 307 306 308 308 308 307 303 300 300 303 305 309 306 308 308 309 310 314 314 315
305 304 303 303 304 302 307 308 306 301 299 300 301 301 304 301 302 301 300 300 299 298 300 301 302 304 304 304 306 303 303 305 305 304 310 307 308 308 306 312 315 317 316

GFSMA_sfc_thetae_024.txt.gz
Theta_e
309 309 308 308 308 307 305 305 304 304 302 302 302 301 301 301 302 311 309 317 317 320 322 323 324 326 327 328 331 333 333 335 339 343 346 346 343 342 342 341 340 339 338
310 309 308 308 307 306 306 305 303 303 302 301 302 302 301 301 302 303 308 309 315 315 316 318 319 320 322 323 323 325 325 327 330 335 338 342 345 345 346 344 342 340 339
310 309 308 307 307 306 305 303 301 302 302 303 300 301 302 301 302 301 305 307 309 314 314 313 314 315 317 319 319 319 320 321 324 326 328 331 337 342 344 345 343 341 340
312 309 308 308 308 306 305 304 303 302 301 301 300 301 301 302 301 300 303 304 305 306 311 310 310 311 312 315 316 318 318 319 320 321 322 324 328 332 339 343 344 343 342
312 310 309 308 307 306 305 305 304 303 302 302 302 300 301 301 301 303 301 303 304 304 304 310 309 311 311 311 313 315 316 318 320 320 320 321 322 327 329 336 341 342 344
311 309 309 308 307 307 305 304 302 302 302 301 303 301 299 300 301 301 299 303 303 304 304 304 303 305 313 310 311 313 314 316 317 318 320 321 322 322 326 329 332 335 342
310 309 309 308 307 306 305 304 302 301 300 300 298 299 300 299 299 300 301 300 301 302 302 303 303 303 303 310 311 311 312 314 315 317 319 320 321 322 322 324 326 329 333
310 309 308 307 306 306 305 304 302 300 301 301 296 296 293 297 297 298 300 299 298 300 300 301 300 300 301 302 305 312 312 311 313 315 317 319 321 321 322 323 324 326 327
310 310 308 307 306 306 304 303 303 302 298 299 298 296 292 291 294 297 296 298 297 298 298 299 300 301 300 300 306 308 315 310 312 313 315 317 319 321 322 322 323 325 325
310 310 308 307 306 305 304 304 305 302 301 298 297 300 295 294 291 290 296 296 297 297 296 298 298 299 299 300 306 313 313 313 311 312 314 316 317 318 320 321 322 323 324
310 309 308 307 306 306 304 304 302 302 301 299 298 296 295 295 294 292 290 293 296 296 297 297 297 298 299 300 301 306 312 314 311 312 312 314 315 317 318 320 321 322 323
310 309 308 307 306 306 304 304 302 301 300 299 299 298 297 295 294 293 291 291 291 294 295 296 297 298 299 300 306 314 316 313 311 311 312 313 314 315 317 318 320 321 322
308 308 307 306 306 305 304 303 302 300 300 298 297 297 297 297 297 295 293 291 291 292 294 296 297 298 301 299 301 313 315 314 313 311 311 312 313 314 315 315 317 319 321
309 308 307 306 306 305 304 303 302 301 300 299 298 297 298 298 298 296 294 292 289 290 292 292 296 297 298 300 305 315 304 312 313 314 312 311 311 312 313 314 316 318 319
310 308 307 305 305 305 304 302 302 300 299 299 299 299 297 298 297 297 296 295 291 287 288 291 293 297 299 300 303 302 301 308 311 313 315 313 311 311 313 313 315 316 318
310 307 306 306 304 304 304 302 300 300 298 298 299 298 297 297 297 297 296 295 294 291 289 293 295 297 299 302 303 303 300 310 310 311 312 312 313 312 312 313 314 315 316
311 307 307 305 304 303 303 302 301 299 298 298 298 298 297 297 296 296 295 295 294 294 292 294 297 298 297 297 299 299 302 300 302 309 310 312 313 313 312 313 314 314 314
312 309 306 305 304 303 303 302 300 300 299 297 298 297 297 299 295 296 295 294 294 295 294 293 294 295 296 297 297 298 301 303 301 307 310 310 312 313 313 313 313 313 314
311 309 306 305 304 303 302 301 300 299 298 297 297 297 296 296 294 294 294 295 296 299 295 294 294 295 295 296 297 297 299 300 301 307 310 311 311 310 313 313 313 313 313
310 308 306 305 304 303 302 301 300 298 297 297 298 297 296 296 294 293 295 295 296 294 294 293 294 294 295 296 297 297 297 300 301 304 307 308 309 310 311 313 314 313 312
307 308 305 304 303 302 302 300 299 298 295 295 296 297 297 299 303 300 298 296 295 294 293 293 293 294 295 294 294 296 296 299 300 301 302 303 304 305 306 309 312 313 312
305 305 304 303 302 303 308 309 302 297 296 295 294 295 295 304 302 305 306 306 302 294 293 293 296 295 295 295 297 297 298 297 295 303 302 301 304 304 306 307 311 312 313
304 304 303 302 301 300 311 311 308 297 296 294 295 295 296 299 303 297 301 303 302 304 303 298 297 295 295 296 298 298 299 299 299 303 303 300 304 303 306 309 312 313 313
302 303 302 301 300 299 312 312 309 296 295 295 295 295 295 295 297 297 296 295 296 296 298 299 298 297 298 300 302 303 301 301 302 303 304 298 303 302 305 308 312 312 312
303 303 301 299 299 298 311 311 304 296 295 295 297 297 296 295 301 302 296 295 295 296 303 304 304 305 306 307 307 303 300 298 297 299 305 303 303 302 305 306 308 312 311
303 303 300 300 303 301 310 310 302 296 294 295 296 296 305 298 302 302 295 294 293 295 295 296 297 300 303 303 306 303 301 298 298 302 307 303 304 305 302 306 308 310 310

GFSMA_sfc_thetae_027.txt.gz
Theta_e
310 311 308 308 306 304 302 302 302 301 299 299 299 299 298 302 308 309 309 320 321 322 323 324 326 327 328 328 331 331 332 333 338 341 344 345 345 342 343 342 341 340 339
308 306 305 305 304 303 302 302 301 300 299 299 300 300 299 299 304 306 307 309 317 316 317 318 319 321 323 323 323 324 324 326 328 329 333 335 340 344 344 345 342 341 340
307 306 304 304 303 303 302 301 299 299 299 300 298 298 300 299 299 304 306 307 310 316 314 314 314 316 317 318 319 319 319 320 321 323 325 327 331 334 341 344 343 342 341
308 306 305 304 304 303 301 300 299 298 298 298 297 297 298 299 299 299 303 305 305 307 312 312 311 311 312 313 315 316 317 319 320 320 320 322 323 328 331 336 342 343 343
310 306 305 305 305 303 301 302 300 299 298 298 299 298 297 298 299 300 299 302 302 303 305 311 311 310 312 310 312 313 315 317 318 319 320 321 321 322 326 330 334 337 340
309 307 306 305 304 302 301 301 300 299 299 299 303 299 295 297 298 298 298 301 302 303 302 302 301 303 312 313 310 311 312 314 315 317 319 320 321 322 323 324 327 330 333
309 307 306 305 304 303 302 301 299 298 298 297 296 296 297 297 296 297 298 298 299 301 301 302 301 301 302 310 310 311 312 313 312 315 317 319 320 321 322 323 323 326 328
309 307 307 305 303 302 301 301 299 298 298 297 294 293 291 295 294 296 297 298 296 299 299 301 299 300 299 300 303 313 312 310 311 313 314 316 318 320 322 322 323 324 325
309 309 307 306 304 304 303 301 299 298 297 297 296 294 290 290 292 294 294 296 295 296 296 297 298 298 298 298 305 307 314 311 312 313 313 315 316 318 319 321 322 323 324
309 310 308 307 306 305 302 303 302 299 297 296 295 297 294 293 289 289 293 294 295 296 295 296 297 297 297 297 304 308 312 312 311 311 313 315 316 317 318 319 319 321 322
309 309 308 307 306 305 305 303 301 300 299 297 295 294 292 292 290 290 288 291 294 294 295 295 295 295 296 297 299 303 313 315 312 312 312 313 314 316 317 317 318 319 321
308 308 308 308 307 306 304 304 302 300 299 298 297 295 294 293 291 290 289 289 290 292 293 294 294 296 296 297 303 311 313 316 315 312 312 312 313 314 316 316 317 317 320
309 306 307 306 305 306 305 304 301 301 300 299 296 296 296 295 295 293 291 289 289 291 292 293 295 295 298 297 299 310 312 313 315 312 312 312 313 313 313 314 316 316 316
310 310 307 307 307 305 305 304 303 302 300 299 296 296 295 296 295 294 293 291 288 289 290 291 293 295 296 297 301 311 303 311 311 313 312 311 311 312 312 313 314 315 314
312 309 307 307 306 304 305 304 303 301 301 298 297 296 296 295 295 295 294 293 291 286 286 290 291 294 296 298 301 302 300 306 311 311 312 312 311 311 311 312 313 313 314
310 309 308 306 305 304 304 303 302 301 299 298 298 296 295 295 295 295 294 293 292 290 287 291 292 294 297 300 301 302 300 307 308 309 311 312 311 310 311 311 312 312 314
308 310 308 306 304 303 304 302 302 300 299 298 297 298 296 296 295 294 294 293 292 291 289 291 294 296 295 295 297 297 299 297 298 308 309 311 312 312 312 311 312 312 314
306 309 308 307 305 304 303 302 301 301 299 297 297 297 297 298 294 294 293 293 292 292 292 290 292 294 294 295 295 295 298 300 299 306 308 309 311 312 313 313 313 313 313
305 306 308 306 306 304 303 302 301 301 300 299 297 297 296 295 293 293 293 293 292 296 293 292 291 293 293 294 294 295 296 298 300 305 308 310 311 313 313 313 312 313 313
304 306 305 308 306 305 303 302 301 300 299 298 298 297 296 295 293 292 293 292 294 293 293 292 292 292 292 294 293 294 294 297 297 301 305 307 309 310 311 312 312 312 312
304 305 306 306 306 304 303 301 300 298 297 297 297 298 297 298 304 298 295 294 294 293 292 292 291 292 293 292 291 294 294 295 297 298 299 301 302 303 304 308 309 311 311
303 304 304 305 304 304 309 308 302 297 297 296 295 295 296 305 304 306 306 306 299 294 292 291 292 292 293 294 295 294 294 294 293 301 300 300 303 302 304 305 308 310 310
302 302 303 304 304 303 311 311 307 298 296 296 294 294 295 300 302 297 304 306 305 304 303 295 292 293 294 295 293 295 295 297 298 302 302 300 304 302 305 305 309 311 312
301 301 302 303 303 303 312 312 309 297 295 294 294 293 293 294 297 296 294 294 294 295 296 298 296 295 294 297 298 299 300 301 302 302 303 298 303 301 305 306 309 310 311
300 299 301 302 302 301 311 312 305 296 294 293 294 294 294 294 303 304 295 293 293 294 301 305 304 304 305 305 304 301 299 298 297 299 302 301 301 302 304 303 305 310 311
299 300 300 303 304 301 311 312 300 296 293 294 294 296 303 296 305 304 294 293 292 293 295 294 295 297 300 299 304 302 300 297 297 296 302 301 303 302 300 305 306 308 309

GFSMA_sfc_thetae_030.txt.gz
Theta_e
314 311 309 307 304 303 303 301 300 300 297 297 297 297 302 309 309 310 311 324 326 326 326 326 327 328 328 330 331 330 331 332 335 338 341 344 344 341 342 343 342 341 339
313 310 307 307 305 302 301 300 299 298 297 296 297 298 297 305 306 306 307 310 319 319 319 319 320 322 324 324 323 323 324 326 328 330 330 332 336 341 344 343 343 342 341
311 310 307 304 303 302 301 299 298 297 297 298 296 296 298 297 303 304 305 306 310 317 315 314 314 317 318 318 318 318 319 320 322 322 324 326 327 331 335 341 343 343 343
311 306 306 304 303 302 301 299 297 297 296 296 295 296 296 297 296 302 304 305 305 307 313 313 312 312 313 313 315 316 317 318 319 320 321 322 322 324 329 333 337 341 342
310 307 306 305 304 302 300 299 298 297 296 296 297 296 296 296 296 299 301 303 303 305 305 313 313 312 313 311 312 313 314 316 317 318 319 320 321 322 323 325 330 333 336
310 307 306 305 303 301 300 298 298 298 297 297 301 299 294 295 296 295 297 301 301 302 303 301 302 303 313 314 312 312 312 314 313 315 318 319 321 321 322 323 324 326 330
309 307 306 304 303 303 301 299 298 297 297 296 295 295 295 295 294 295 295 297 299 300 300 300 300 299 301 316 311 311 313 313 312 312 314 317 318 320 322 322 323 323 326
308 308 307 306 304 302 300 299 298 296 296 296 294 291 291 293 293 294 294 296 296 299 299 300 299 299 299 299 303 312 312 311 311 312 314 315 317 318 319 321 322 323 324
310 310 307 307 305 304 303 301 299 298 296 296 294 293 288 289 291 292 292 294 294 295 297 297 298 297 297 297 304 309 316 312 312 313 313 314 316 317 318 319 320 321 322
308 309 309 308 306 305 303 302 301 298 297 295 295 296 292 292 290 290 292 292 292 294 293 295 296 296 296 296 302 306 312 313 312 312 313 314 316 316 317 318 319 319 320
310 310 309 307 307 307 305 304 301 298 297 296 295 292 290 290 289 288 288 290 292 293 293 294 294 294 295 295 297 302 313 315 314 312 312 314 314 315 316 317 318 318 319
309 308 308 308 307 306 306 303 303 302 301 297 295 294 293 292 290 289 287 288 290 292 292 293 293 294 295 296 301 308 312 314 314 313 313 313 313 314 315 316 317 317 317
305 307 307 307 308 308 306 305 303 302 301 300 298 297 294 294 293 292 290 288 288 290 291 292 293 294 296 295 297 307 311 312 311 312 312 312 313 314 314 315 315 316 317
304 306 308 308 308 308 308 307 304 303 302 301 297 296 297 295 294 293 292 290 287 288 289 290 292 293 294 296 299 310 303 310 311 311 311 311 312 312 312 313 314 314 315
305 305 305 308 309 308 308 306 305 302 302 301 300 298 297 295 295 294 293 292 290 285 286 289 290 292 294 296 299 301 300 306 310 310 310 310 311 311 312 312 312 313 313
302 303 303 306 308 308 307 306 305 303 301 300 300 297 295 294 295 294 293 292 291 289 286 289 291 292 294 299 300 301 300 307 309 309 309 311 309 310 311 311 311 312 312
302 303 304 304 307 307 305 306 305 303 300 300 300 298 296 295 295 293 293 292 291 290 288 289 291 293 293 294 296 296 298 296 297 307 308 308 310 310 310 310 311 311 312
302 303 304 305 307 308 306 305 304 303 300 299 298 298 296 297 294 293 293 292 291 291 290 288 290 292 293 294 294 294 297 299 297 304 307 308 308 310 312 312 313 313 312
301 302 302 303 305 306 305 305 305 303 300 300 299 298 297 296 293 292 292 291 291 294 291 290 290 292 292 293 293 293 294 295 298 303 306 308 308 309 312 313 312 312 313
301 301 301 303 304 306 306 306 305 303 301 300 299 299 297 297 296 293 293 292 292 291 291 291 291 291 292 293 292 292 292 293 294 298 302 305 307 308 309 311 312 312 311
303 303 302 303 303 305 306 306 305 303 300 299 297 298 297 299 304 299 295 291 291 291 291 291 290 290 290 291 290 291 290 293 295 296 296 298 299 300 303 307 309 310 310
302 302 301 301 302 305 308 311 308 302 300 298 296 296 297 305 306 308 306 303 297 292 291 291 291 290 290 292 292 291 293 292 291 297 296 296 301 301 302 303 307 309 309
298 298 300 301 301 302 308 310 312 302 299 298 297 296 296 300 304 300 307 307 306 307 304 294 291 291 290 292 292 292 293 293 293 297 299 298 303 302 304 305 309 309 310
296 297 298 300 299 301 306 309 312 303 299 298 296 295 296 295 298 296 294 294 294 294 296 297 294 294 294 294 293 296 296 298 300 301 303 297 302 301 303 305 308 309 310
296 296 298 300 298 298 305 308 310 302 298 295 295 295 295 294 303 305 294 292 292 293 300 304 304 305 305 304 303 299 297 296 296 298 302 300 301 301 303 303 306 309 309
296 297 298 299 300 298 305 308 309 299 295 294 293 294 301 296 306 306 293 292 291 292 293 294 295 296 298 297 302 299 298 296 296 295 301 299 299 300 299 304 305 306 307

GFSMA_sfc_thetae_033.txt.gz
Theta_e
318 316 313 310 306 303 304 301 299 299 296 296 296 300 310 310 310 312 312 327 329 330 328 327 328 329 329 332 330 330 332 333 335 339 340 342 343 341 342 343 342 341 339
317 316 311 307 305 302 301 300 299 297 296 295 296 296 303 306 307 307 307 311 322 323 321 320 322 323 325 325 323 323 324 326 328 328 329 332 334 338 342 344 344 343 342
316 315 311 305 305 303 301 299 297 296 295 296 294 295 297 303 304 303 305 306 310 319 317 316 317 318 319 318 318 318 319 321 322 323 324 325 326 329 333 336 342 343 343
314 312 311 308 305 303 301 299 297 296 295 294 294 294 294 295 298 301 303 304 305 307 313 314 314 314 315 314 315 316 317 318 319 319 320 321 323 324 325 330 333 336 341
313 311 310 309 305 302 300 299 296 296 295 295 295 295 294 294 295 299 301 303 303 306 305 313 314 313 314 313 314 314 314 316 315 317 319 320 320 321 323 324 326 330 333
312 310 306 305 304 302 300 298 297 295 296 296 299 298 294 294 294 294 297 301 301 303 303 302 302 305 314 316 315 314 313 315 314 313 316 317 319 321 321 322 323 324 327
310 307 307 305 303 303 302 299 297 296 295 295 295 294 294 294 292 294 294 295 298 300 300 301 299 299 300 316 317 313 314 316 314 312 314 314 317 318 320 321 322 322 323
307 307 306 305 305 303 301 299 298 295 296 295 294 291 291 292 293 293 293 294 295 297 298 299 298 298 298 298 303 312 312 312 313 313 313 314 315 317 318 319 320 322 323
311 309 307 307 305 306 304 301 300 298 296 294 294 294 288 288 289 291 291 293 294 294 296 297 298 298 297 297 303 306 314 314 313 313 315 314 315 317 317 318 319 320 320
308 311 308 307 307 304 305 304 303 302 298 296 294 295 291 291 290 289 291 291 292 293 293 295 296 296 295 295 301 306 311 314 313 312 313 315 316 317 316 318 318 319 320
305 307 307 305 307 305 305 306 303 301 302 297 295 291 289 289 288 288 288 290 291 291 292 293 294 294 294 294 295 300 311 314 314 313 313 314 316 315 316 317 318 318 318
302 304 306 305 305 305 305 305 304 302 302 302 298 294 293 291 289 289 286 287 289 291 291 292 292 292 293 295 300 306 310 312 314 314 314 314 315 315 316 317 317 318 317
300 302 302 303 304 305 305 305 304 303 303 301 299 298 295 294 292 291 289 287 288 289 290 291 292 292 295 294 296 306 310 312 312 312 313 314 314 314 315 316 316 317 317
301 302 302 301 303 305 306 306 306 304 305 303 302 299 297 296 293 293 291 289 287 287 288 290 291 292 293 294 298 308 303 311 311 311 311 312 312 313 313 314 314 315 315
303 303 301 301 301 303 305 306 305 304 304 304 303 300 299 297 295 294 292 292 291 286 287 289 290 290 292 294 298 299 298 305 310 310 310 310 311 312 312 313 313 314 314
302 301 301 301 301 302 304 305 305 305 304 303 303 301 298 295 296 294 293 292 291 290 287 289 289 290 292 297 298 300 300 307 309 309 310 311 310 311 311 311 311 312 313
301 301 301 301 301 302 304 304 304 305 305 303 303 301 298 297 296 295 293 291 291 290 289 289 289 291 291 292 295 296 298 296 296 307 308 308 309 309 310 310 311 311 311
301 301 301 301 301 302 302 303 303 304 304 303 302 301 299 297 296 295 294 292 292 290 290 288 289 290 291 292 293 293 296 299 296 303 306 307 308 308 309 310 311 312 312
300 300 301 300 301 302 301 302 303 303 304 304 303 301 300 296 295 294 294 292 291 293 290 289 289 290 291 292 292 293 293 293 296 303 306 307 308 308 309 311 312 312 312
298 299 300 301 301 301 302 302 302 303 304 304 304 303 301 297 296 294 294 293 292 291 289 289 289 290 291 292 291 291 291 292 294 298 301 304 306 306 308 308 309 311 311
297 299 300 300 301 302 302 301 301 302 303 303 305 303 301 301 305 300 296 293 291 290 289 289 289 289 290 290 290 291 290 293 293 294 295 296 297 298 299 305 307 310 310
299 300 299 299 299 300 304 306 306 302 304 304 302 301 300 305 306 307 306 303 297 291 289 289 289 290 290 290 291 291 291 289 289 294 294 294 297 297 298 299 305 307 309
295 296 296 296 296 297 304 306 306 302 303 305 303 301 299 301 304 302 308 307 305 304 299 293 291 291 290 291 291 290 290 291 292 295 295 294 298 297 301 302 307 308 309
293 294 295 295 296 297 303 305 306 302 303 306 302 300 298 299 301 300 300 297 297 299 300 301 294 293 292 293 293 295 294 294 296 298 299 295 300 300 303 304 308 309 309
292 293 295 295 295 296 302 304 304 301 303 303 300 299 298 298 304 307 297 294 292 293 302 303 303 303 305 306 304 298 295 293 292 296 300 298 299 300 302 303 305 308 309
293 294 293 294 298 297 301 303 303 301 302 299 298 298 303 299 308 307 294 292 290 290 292 293 294 297 299 295 302 297 295 292 294 294 300 298 299 299 298 303 304 305 306

GFSMA_sfc_thetae_036.txt.gz
Theta_e
317 316 315 313 310 305 304 301 300 298 297 295 297 304 311 311 312 314 315 328 331 331 331 329 330 330 331 334 330 331 333 335 337 338 340 343 343 342 343 343 342 341 340
317 316 314 311 307 303 303 302 299 297 296 294 295 296 306 308 309 309 309 311 325 327 326 324 324 325 327 327 324 324 326 328 329 329 331 331 334 338 340 342 344 344 342
318 317 314 310 306 303 301 299 297 296 295 295 293 294 297 305 305 305 306 307 311 322 320 319 320 321 321 320 319 319 320 322 323 324 325 326 327 329 333 335 339 342 342
321 318 315 315 309 304 302 299 297 296 295 294 293 294 294 295 301 302 303 304 306 308 315 317 316 317 318 317 317 316 317 318 319 319 320 322 323 325 325 327 331 334 338
320 319 315 314 310 307 302 299 297 296 295 294 295 294 293 293 294 298 300 302 304 307 305 314 316 315 315 315 316 316 315 316 316 317 318 319 320 321 322 324 325 329 331
316 312 311 309 309 304 302 299 298 296 296 295 298 297 294 294 294 294 295 301 302 304 304 304 305 307 316 317 316 317 316 316 316 313 316 316 318 319 320 321 322 323 326
308 311 310 306 304 305 305 302 297 296 295 295 294 294 294 294 293 293 294 295 299 301 301 302 301 301 302 315 318 318 317 317 319 314 314 315 316 317 319 320 321 322 322
311 308 309 310 305 303 301 300 300 297 296 296 294 291 292 293 292 293 292 293 294 298 299 299 299 299 299 299 306 315 314 314 316 315 315 316 315 316 318 318 319 320 321
307 308 308 308 307 303 303 300 299 298 300 296 297 296 289 289 289 291 291 292 293 293 296 297 298 298 298 298 304 307 314 314 314 314 316 316 316 317 318 318 319 319 320
303 304 305 305 304 304 302 303 302 301 298 298 296 297 292 291 290 290 291 291 291 293 293 295 297 297 297 297 302 305 309 313 315 314 314 316 316 318 318 317 319 319 319
301 303 303 303 303 302 303 305 302 300 300 301 296 293 293 290 288 290 289 290 291 291 293 293 295 295 295 295 296 300 311 314 314 314 314 315 316 316 318 318 318 319 319
300 301 303 302 302 301 301 302 303 300 302 301 299 296 293 294 290 289 287 288 290 291 291 292 292 293 295 295 299 305 309 312 314 315 315 315 315 316 317 318 318 318 318
298 299 300 301 300 301 302 302 301 302 300 300 300 299 299 297 295 292 290 287 289 289 290 291 292 292 294 294 296 307 310 312 313 314 314 315 316 316 317 317 317 318 318
297 299 300 301 300 300 300 301 301 303 302 302 300 301 301 299 296 293 292 290 287 287 288 291 291 292 292 294 297 307 303 311 313 313 312 313 313 313 314 315 316 316 316
299 299 300 301 300 300 300 300 301 302 303 303 303 302 301 300 298 297 294 293 295 287 287 290 291 291 292 294 299 301 300 305 310 311 311 311 311 312 313 314 314 315 315
297 298 299 300 300 300 300 299 300 302 302 303 303 303 302 301 298 298 295 294 293 293 289 290 289 290 291 295 298 300 299 306 309 311 311 312 311 311 312 312 313 313 313
295 297 299 300 300 300 299 299 299 300 301 302 302 301 301 301 299 297 296 293 291 291 292 289 290 290 291 292 295 296 299 299 299 309 309 309 309 310 310 310 311 311 312
294 296 299 299 300 300 300 299 298 300 299 300 302 301 301 302 299 298 296 293 294 291 291 289 289 289 290 291 293 293 296 299 297 303 308 308 308 308 308 309 310 311 312
294 295 297 297 299 299 299 299 299 300 300 300 301 301 301 301 299 297 296 295 294 294 290 290 289 290 290 291 292 292 293 294 296 302 306 307 308 308 308 309 311 311 311
293 295 295 297 298 300 300 300 300 299 299 300 301 302 302 301 300 298 296 296 294 292 290 289 289 289 290 291 291 291 291 292 294 298 301 304 305 306 307 307 308 310 310
294 294 294 297 299 300 300 298 299 299 299 299 301 302 302 303 307 303 298 296 293 293 290 290 288 289 289 289 289 291 290 292 293 294 295 296 296 297 299 303 306 308 309
294 293 296 296 296 299 303 303 301 298 299 300 299 301 303 307 307 310 309 306 298 293 291 291 288 288 288 290 290 290 290 290 289 294 293 293 296 295 297 298 303 305 306
293 294 294 294 294 296 302 303 302 299 299 300 300 299 302 305 306 304 309 310 306 305 301 293 290 290 289 291 291 290 290 290 291 295 294 293 297 295 298 300 304 305 306
292 292 292 293 293 295 301 302 302 300 299 300 300 299 301 302 302 302 302 303 300 300 300 297 293 292 293 293 293 293 293 293 294 296 296 293 297 296 300 301 304 306 308
291 291 292 293 293 293 299 300 300 299 298 299 299 299 302 301 303 307 301 299 296 295 305 305 300 302 303 303 297 294 294 292 292 293 296 295 296 297 301 302 304 308 308
292 293 292 292 294 292 297 300 300 298 297 299 298 300 305 302 305 307 301 298 295 292 295 294 295 299 301 298 302 297 294 292 291 291 297 296 298 299 297 303 303 304 306

GFSMA_sfc_thetae_042.txt.gz
Theta_e
344 341 337 333 330 329 326 322 321 320 319 317 318 319 325 330 333 335 336 331 332 334 333 332 333 335 333 336 333 336 338 340 340 344 345 344 343 343 343 342 341 341 340
345 343 341 337 332 329 327 322 319 317 316 315 315 315 317 322 326 329 329 330 329 331 332 332 331 333 333 332 329 329 330 331 333 335 335 337 340 342 343 342 342 344 343
338 340 339 339 337 332 327 323 319 317 316 315 314 314 314 317 320 322 325 325 325 327 328 328 327 328 330 331 326 324 326 327 327 328 329 330 331 333 336 337 338 342 343
332 333 334 335 338 332 328 324 320 317 316 315 314 313 313 313 316 318 319 320 320 319 324 325 324 324 327 328 325 323 322 324 323 323 324 326 326 327 327 329 332 334 337
321 325 331 333 333 332 332 326 323 319 316 316 314 314 313 313 313 314 316 318 319 319 319 323 322 321 322 325 324 322 321 321 321 321 321 321 321 322 324 325 326 328 331
315 317 320 323 328 328 327 330 326 323 318 317 314 312 313 313 313 313 313 314 316 318 319 319 320 319 320 321 322 323 322 321 321 319 320 319 320 320 321 322 323 324 326
313 314 314 316 319 322 325 325 327 323 320 318 313 313 313 314 313 312 313 313 314 315 317 318 318 317 318 320 321 322 323 323 322 321 318 318 318 318 319 320 321 321 322
312 312 312 313 314 315 318 320 319 321 321 319 311 311 310 313 313 313 313 312 312 313 314 315 316 316 316 317 319 322 323 324 324 323 322 319 319 318 319 320 320 320 321
311 312 312 311 312 313 313 315 318 316 312 317 315 311 307 308 316 315 313 312 312 311 312 314 314 314 314 314 316 317 320 321 321 320 323 321 320 320 319 320 320 320 321
309 311 310 310 310 311 311 312 313 315 314 310 315 313 311 312 310 310 311 311 311 310 311 312 313 313 313 313 316 316 320 320 319 318 319 319 320 320 321 320 321 320 321
308 308 308 307 307 308 309 310 311 311 313 311 309 311 310 307 309 305 308 309 309 310 311 312 312 312 313 313 313 314 316 318 317 317 318 318 320 320 320 321 321 320 320
307 308 308 307 307 307 307 308 310 311 310 311 311 309 308 308 307 303 303 308 312 312 311 311 311 311 312 312 314 316 317 316 316 316 317 317 318 318 319 320 321 321 321
305 306 307 306 306 306 307 308 309 310 309 309 310 310 309 308 309 307 305 304 308 313 311 311 311 311 311 312 313 315 316 315 317 317 318 317 317 317 318 319 320 321 321
304 306 306 306 305 305 305 307 308 310 310 309 309 310 310 310 309 309 307 303 304 308 310 310 311 311 311 311 313 317 312 315 317 318 318 319 319 317 317 318 319 319 320
304 304 304 304 304 305 305 305 305 308 309 308 308 309 310 311 311 310 310 307 306 300 307 311 309 311 311 311 312 311 311 315 316 318 318 319 319 316 317 317 317 317 317
303 303 303 303 304 304 304 304 305 309 308 308 307 307 308 309 311 312 311 306 307 305 302 311 314 312 310 309 312 310 311 316 316 318 318 317 318 316 315 315 315 315 315
301 301 302 302 303 302 303 303 303 305 305 305 306 306 307 308 308 310 312 310 307 306 300 307 312 313 310 309 308 309 311 310 311 316 317 317 316 316 316 315 314 314 314
301 302 301 301 301 302 302 302 302 303 303 303 304 305 306 306 306 309 310 310 308 308 302 301 309 311 308 308 308 307 307 308 310 313 314 315 315 315 315 314 314 313 313
300 300 300 300 300 301 301 302 302 301 301 302 303 305 305 305 305 306 307 308 309 308 305 303 303 306 308 308 307 307 308 308 307 312 311 312 314 314 314 313 312 312 312
297 299 299 299 300 300 301 301 301 302 303 304 304 305 304 305 304 305 305 306 307 307 306 301 299 301 306 306 306 304 304 306 304 304 307 309 310 311 312 312 312 311 310
297 297 298 298 299 299 299 299 301 302 302 303 303 303 304 305 306 306 305 305 307 305 306 304 298 300 304 303 302 304 303 303 304 306 304 305 306 307 308 309 309 310 310
295 295 295 297 297 298 301 301 302 301 301 301 301 302 303 304 304 307 308 309 308 305 304 303 299 302 303 304 304 304 303 302 300 307 304 304 306 305 307 307 308 309 310
295 295 295 296 297 298 301 302 303 302 301 301 301 302 301 301 304 303 306 308 308 310 309 307 300 302 301 305 305 305 304 304 302 305 304 302 305 304 306 305 308 308 308
294 294 295 295 296 298 300 301 302 301 301 301 301 301 301 301 302 302 301 302 305 307 309 307 304 304 303 305 304 306 304 305 305 305 305 299 304 303 306 306 308 307 307
292 294 295 295 295 296 299 300 301 300 300 300 300 300 300 300 302 303 300 302 302 305 310 312 309 306 306 307 307 304 303 301 300 302 305 302 303 302 303 303 305 307 306
293 293 294 295 297 295 298 300 300 299 297 298 299 299 301 301 303 302 302 302 301 304 306 307 307 307 307 306 309 306 304 301 301 300 305 302 302 301 300 308 309 311 308

GFSMA_sfc_thetae_045.txt.gz
Theta_e
346 344 343 339 336 332 329 326 323 321 321 319 318 318 320 325 330 332 337 339 337 337 337 334 332 334 336 338 336 338 342 343 343 344 345 344 345 344 342 342 341 341 339
341 342 344 344 341 337 332 328 323 320 319 318 317 316 316 319 324 328 330 334 334 334 334 334 333 333 335 335 333 332 335 335 337 338 340 341 343 343 344 344 343 342 343
335 335 336 338 340 340 337 331 326 322 319 318 316 316 316 315 319 322 326 328 330 333 332 333 332 331 332 335 331 328 329 330 330 332 334 334 335 339 340 340 340 342 342
322 325 333 334 336 336 336 333 328 323 321 319 316 316 315 315 314 317 322 324 325 323 329 330 329 328 328 332 331 326 326 328 327 327 328 330 330 330 332 333 335 337 338
315 316 319 323 331 334 331 330 332 328 322 321 319 318 317 316 314 314 316 321 324 323 322 328 328 327 326 328 330 327 325 325 325 325 326 325 325 326 327 328 329 332 334
313 314 315 316 318 321 328 329 326 327 328 322 318 317 317 317 316 315 314 316 319 321 322 324 324 322 323 325 327 327 325 324 323 323 323 323 323 323 324 325 326 327 329
311 312 313 313 315 315 316 320 324 324 321 327 320 317 318 317 315 315 315 315 316 318 319 320 321 320 319 323 324 326 326 325 324 323 321 321 321 321 321 323 323 323 324
309 309 310 312 312 313 314 315 317 318 319 320 319 317 310 315 316 315 315 314 313 315 316 317 318 318 319 319 321 325 325 326 326 324 323 321 321 320 320 321 321 321 322
309 309 309 310 310 312 312 314 315 316 315 320 317 313 308 306 315 318 316 315 314 314 314 315 316 317 316 317 321 321 325 325 326 327 326 324 322 322 321 321 321 321 321
308 308 308 309 309 309 309 310 310 312 314 312 315 315 312 311 307 309 316 315 315 314 314 315 314 315 315 315 319 320 323 325 326 325 325 327 324 322 322 322 322 322 322
309 309 308 308 309 308 308 308 308 308 310 309 312 312 313 310 309 306 302 311 311 313 314 313 314 314 314 315 315 317 322 324 325 324 321 322 323 322 323 323 322 322 321
308 307 308 308 309 309 308 308 309 309 308 309 310 311 311 309 305 305 304 305 306 309 312 313 313 314 315 315 316 319 320 324 324 323 321 321 320 322 322 322 323 323 322
306 307 307 307 307 309 309 309 307 308 308 308 309 308 310 311 312 308 306 305 304 307 310 312 313 314 314 315 314 318 320 320 322 321 321 322 320 321 320 321 321 322 323
305 307 306 306 306 306 307 307 306 307 308 308 309 309 309 310 312 311 309 304 300 302 307 309 314 313 314 314 315 320 315 320 320 320 320 321 321 321 320 319 320 321 322
304 304 305 305 305 305 305 306 305 305 305 306 308 309 308 309 310 311 311 309 304 299 301 307 310 313 313 314 315 315 312 318 320 320 320 320 320 321 319 318 319 320 320
304 304 305 304 304 304 304 304 304 305 304 304 307 308 307 308 308 310 311 311 309 305 301 307 311 311 313 311 315 312 313 317 319 320 319 319 319 321 320 320 320 320 320
303 303 303 302 302 303 303 303 303 303 303 303 305 307 306 307 307 308 310 310 310 308 304 307 312 310 313 311 311 311 313 311 315 319 319 318 318 319 319 319 318 318 318
301 301 301 302 302 302 302 302 302 302 302 302 303 305 305 304 306 308 307 308 309 310 307 304 309 309 308 312 311 310 309 309 311 317 319 319 318 318 317 317 317 316 316
298 299 299 298 299 300 300 301 301 301 301 302 302 302 303 304 304 305 306 306 308 308 308 306 305 310 309 309 309 310 308 309 309 315 318 318 318 316 316 315 315 315 314
296 297 297 297 298 299 300 300 300 301 301 302 302 302 302 302 304 304 304 305 305 306 307 304 304 306 308 309 309 306 305 308 306 307 313 313 315 316 316 316 315 313 312
296 296 296 297 297 298 298 299 300 300 300 301 302 303 303 305 309 306 304 304 305 304 305 305 302 303 304 305 304 304 304 306 307 307 305 305 307 308 309 314 313 313 312
297 296 296 296 296 296 299 301 301 299 300 300 300 301 303 307 305 306 307 307 306 303 304 302 302 300 303 304 304 302 302 300 300 307 304 303 305 304 306 308 311 311 311
295 295 295 296 295 296 300 301 302 300 300 300 298 298 301 301 305 303 304 306 306 308 308 305 302 301 303 306 305 301 302 300 302 306 304 302 306 304 307 307 311 312 311
294 294 293 295 295 296 299 300 301 299 300 299 300 301 301 301 302 303 301 301 302 304 305 306 306 306 306 308 307 305 302 303 304 305 306 300 305 303 306 306 310 309 309
294 293 295 294 294 295 299 300 299 298 298 298 300 300 301 301 304 304 301 300 300 301 304 307 311 312 311 310 309 303 302 300 300 302 304 303 303 303 305 305 307 309 308
293 293 293 294 295 295 298 299 299 298 296 297 299 300 303 302 302 302 300 300 298 298 301 301 305 309 310 308 309 305 302 299 300 299 304 301 302 302 299 304 305 306 306

GFSMA_sfc_thetae_048.txt.gz
Theta_e
338 339 339 340 339 328 324 321 319 316 315 315 313 312 310 312 322 325 334 343 343 341 340 339 336 336 339 340 340 342 346 346 346 347 344 347 347 344 342 342 341 340 339
334 335 335 336 337 337 336 329 321 317 313 312 311 310 308 308 311 320 331 334 341 340 340 339 336 335 336 339 337 338 341 342 342 343 347 346 346 345 344 344 343 343 342
321 327 330 332 335 335 334 334 331 324 316 314 310 309 308 308 308 312 320 328 332 338 337 337 336 334 335 338 337 335 336 336 338 340 341 342 343 344 344 344 343 342 343
309 309 311 321 330 330 330 331 331 328 323 314 311 310 308 308 307 307 313 318 323 326 333 336 334 334 333 335 337 333 333 334 333 334 337 337 337 339 341 341 341 343 342
308 307 308 308 311 323 325 325 326 326 326 324 316 313 312 308 307 309 307 314 316 316 320 332 334 333 331 331 335 333 331 332 332 331 332 333 333 334 334 335 337 339 339
305 305 307 307 307 308 311 321 320 322 324 324 325 321 313 312 309 306 306 310 314 314 314 317 323 324 330 328 331 333 330 328 330 329 330 329 329 330 330 331 331 333 334
305 303 304 306 306 306 306 308 310 315 315 318 319 321 318 317 311 307 308 307 308 313 312 312 317 315 318 327 330 330 331 328 327 326 326 326 326 327 327 328 328 329 330
304 304 301 303 304 304 304 304 305 307 310 314 311 315 311 313 315 315 307 308 307 310 312 312 313 313 311 315 317 328 329 329 328 327 325 325 324 324 324 325 325 325 326
304 303 302 302 301 302 302 303 303 303 303 309 313 310 307 304 306 315 314 309 307 308 310 311 312 311 310 313 318 322 327 329 329 328 326 325 324 323 323 323 324 323 323
302 303 302 302 301 302 300 300 302 300 301 301 307 313 310 310 305 304 311 311 313 308 307 307 311 311 311 309 318 320 324 327 328 329 328 327 325 324 324 323 323 323 323
301 302 302 302 300 300 301 300 299 299 299 298 299 302 306 306 307 307 305 308 311 311 307 307 309 309 308 308 309 317 324 325 326 328 329 329 329 326 325 324 324 324 323
299 301 302 301 300 300 301 301 300 299 299 299 299 300 302 303 301 301 303 305 306 310 311 311 308 307 307 308 313 319 325 325 325 327 328 328 327 327 325 325 325 324 324
297 298 299 299 300 300 301 302 301 299 298 298 299 300 301 302 305 305 303 302 303 308 309 310 309 309 310 311 310 319 323 324 324 325 326 325 325 326 324 324 324 325 325
298 298 299 299 299 300 300 300 300 299 299 299 300 301 301 302 302 306 305 302 296 301 305 306 309 311 308 310 313 322 316 322 324 324 325 323 323 324 325 323 323 323 324
300 300 299 299 300 300 300 299 299 298 299 299 300 299 301 304 302 302 303 307 302 296 298 304 306 312 313 310 313 313 310 321 323 323 323 322 322 323 323 323 322 323 323
297 297 297 298 299 299 299 298 298 298 298 299 300 298 299 303 305 303 303 303 306 302 297 301 306 309 313 313 313 312 310 319 322 322 320 319 320 321 322 322 322 322 323
296 296 296 297 297 297 298 298 298 298 297 298 300 299 298 300 303 303 303 304 305 304 299 300 303 307 311 311 310 309 310 309 315 321 321 319 319 320 320 320 320 321 322
296 296 296 295 295 296 296 296 297 298 297 297 299 299 298 300 301 301 303 300 303 306 300 297 300 302 305 310 310 307 306 309 310 319 321 320 319 319 319 319 319 320 319
295 295 296 295 294 294 295 295 296 297 297 297 298 298 299 299 299 301 301 300 300 302 302 300 299 301 303 305 308 307 303 303 308 316 321 320 319 318 319 318 318 317 316
295 295 296 296 295 295 295 295 295 296 296 297 299 299 299 298 298 299 301 299 300 299 301 302 302 300 300 302 304 303 302 303 301 309 316 316 319 319 318 318 317 315 314
295 295 295 295 295 295 296 295 295 295 296 296 298 299 299 301 304 303 299 299 301 298 300 300 297 297 297 298 299 303 301 301 301 301 305 306 311 312 312 317 314 314 313
294 294 294 295 294 296 299 300 298 295 295 296 296 298 298 302 302 305 306 306 302 296 295 299 300 299 296 298 299 302 300 298 297 301 298 298 305 304 306 307 313 314 314
294 293 294 294 294 295 300 301 300 296 295 296 296 297 298 300 301 300 302 307 306 307 306 298 299 300 297 298 301 299 300 299 298 300 299 298 298 298 301 306 311 312 313
293 294 294 294 293 294 299 300 300 296 296 296 297 298 298 296 298 298 299 297 296 298 300 302 299 299 299 300 301 305 302 301 301 303 301 297 298 297 300 302 310 311 312
293 293 294 292 292 293 298 298 298 295 295 295 297 298 298 298 300 302 300 298 296 296 305 307 306 308 309 310 306 302 301 299 298 300 302 298 300 297 298 298 301 310 310
293 294 294 293 294 293 297 298 297 295 293 294 296 296 300 299 301 303 297 294 293 293 295 296 296 302 305 306 311 304 303 299 297 295 300 301 298 299 296 298 299 301 304

GFSMA_sfc_thetae_051.txt.gz
Theta_e
330 332 332 336 337 338 332 327 320 317 314 315 314 312 311 308 309 321 331 345 347 347 344 343 340 340 342 342 342 344 347 348 347 345 345 345 347 345 343 342 340 339 339
320 323 326 330 334 336 334 334 331 326 318 311 310 311 309 307 306 311 331 339 345 346 344 343 341 338 339 341 341 341 345 346 347 347 347 348 347 346 343 343 342 341 340
307 306 309 314 321 328 330 330 330 331 328 323 313 309 307 306 306 305 328 330 337 342 343 343 341 339 337 338 339 339 341 343 343 344 347 346 346 346 346 343 343 344 344
304 303 304 305 307 317 324 322 322 323 324 326 321 316 310 307 306 305 308 326 327 331 338 341 340 339 337 337 338 338 338 338 340 342 344 345 346 346 345 345 345 344 343
304 302 302 303 304 305 309 319 320 318 318 320 322 325 324 315 311 310 304 311 321 324 324 336 338 338 337 335 337 337 337 338 337 338 341 341 340 342 343 343 343 343 343
302 301 301 301 302 303 303 304 312 315 315 317 321 319 320 324 317 311 308 306 313 319 318 320 328 329 336 334 333 337 335 336 336 335 336 337 338 338 338 340 340 341 341
302 301 300 300 300 300 301 302 303 305 309 312 310 310 314 318 318 319 311 307 308 313 313 316 319 319 324 334 334 333 337 334 334 334 333 335 334 335 335 335 335 336 337
301 302 300 299 299 299 300 300 300 300 304 309 307 306 303 306 311 314 317 310 307 310 312 312 316 316 315 317 320 331 334 334 331 331 330 332 331 331 332 332 332 332 333
301 300 299 299 298 298 298 298 299 298 297 300 308 305 299 298 302 307 309 310 309 307 312 312 312 315 314 313 318 323 329 333 331 330 329 328 328 327 327 328 328 328 328
299 299 299 299 298 298 297 298 300 298 297 296 299 310 307 305 301 299 306 309 312 310 304 308 312 312 313 312 316 320 324 329 331 331 330 328 327 326 326 325 326 325 325
297 298 299 298 298 297 297 297 297 296 296 295 296 296 302 303 303 303 300 302 307 310 311 307 304 310 312 313 313 316 324 326 328 331 330 329 328 327 326 326 325 325 325
296 297 298 297 297 297 297 298 298 297 296 296 296 297 297 298 299 301 303 301 302 305 311 312 310 305 307 311 314 320 324 325 327 327 330 331 329 328 327 327 326 326 325
293 294 295 296 297 298 298 297 297 297 297 295 295 296 297 298 300 301 302 301 299 302 305 311 311 310 309 307 312 320 323 325 325 326 326 329 331 331 329 327 327 326 326
294 295 295 296 296 297 297 297 297 297 296 297 296 295 298 298 298 300 301 300 296 297 299 301 310 311 311 310 311 321 316 325 325 325 325 327 328 328 329 329 327 327 326
296 297 295 295 296 296 296 297 298 297 296 296 295 295 297 299 299 300 301 303 300 295 294 298 301 305 310 312 311 314 314 322 325 324 324 325 325 325 327 327 328 327 327
295 295 295 295 294 295 295 294 295 296 296 297 297 296 297 297 298 301 301 301 302 300 296 298 300 303 311 314 314 312 313 315 323 324 323 322 324 323 324 324 325 325 325
293 294 295 295 294 294 294 294 293 294 295 296 296 297 296 297 297 298 300 302 302 301 298 298 299 302 304 309 313 310 313 312 313 324 323 322 322 321 322 322 323 323 324
294 294 294 294 294 294 294 293 293 293 293 294 295 296 296 298 297 297 298 300 302 303 301 296 298 299 302 305 308 310 310 312 312 316 323 322 320 320 320 320 321 321 321
293 293 293 293 293 294 294 294 294 293 293 294 295 296 296 297 296 296 296 298 299 302 300 297 297 299 301 303 304 309 307 304 311 314 322 321 320 320 319 319 319 318 318
292 293 294 294 293 294 294 294 294 294 293 294 295 296 297 297 297 297 297 297 298 298 296 297 296 297 299 300 300 302 305 304 304 311 317 319 320 320 320 319 319 317 315
293 294 294 293 294 295 295 295 296 295 294 294 294 296 297 299 303 303 299 297 299 296 296 295 295 296 297 298 297 299 299 303 304 305 309 311 315 315 316 319 316 316 314
293 293 292 293 293 294 299 300 298 296 296 296 293 295 296 299 300 305 305 306 302 296 297 295 295 295 294 296 297 298 299 298 297 304 306 306 312 311 312 312 315 315 314
292 292 293 293 293 294 299 301 300 296 295 295 295 295 295 298 300 299 302 304 304 305 303 298 298 297 295 297 297 296 299 300 299 301 304 302 303 307 307 310 313 314 314
292 292 292 293 293 295 299 300 300 295 295 295 295 295 295 296 298 298 297 296 297 298 299 301 300 299 298 299 299 300 299 299 301 302 302 299 298 300 301 304 311 313 313
292 292 293 293 293 293 298 299 297 294 293 294 295 296 296 296 299 302 297 295 294 296 302 305 306 306 308 307 303 300 298 298 296 299 301 299 298 299 299 298 301 310 311
292 293 292 293 296 294 298 299 297 294 291 292 294 295 299 297 300 301 296 295 293 295 295 298 299 302 305 304 309 301 299 298 295 294 301 299 298 299 297 299 299 301 306

GFSMA_sfc_thetae_054.txt.gz
Theta_e
316 323 324 329 331 335 334 333 331 328 322 315 313 312 310 308 309 313 323 340 347 349 348 346 344 342 342 343 343 344 348 349 348 346 346 348 346 345 342 341 340 339 339
304 306 307 310 314 320 331 330 329 329 328 324 321 315 308 306 306 306 315 327 344 347 348 346 345 343 342 342 342 342 345 348 349 348 348 348 347 346 343 342 341 340 340
301 302 303 304 304 308 318 322 321 324 324 326 324 321 319 312 307 304 307 327 337 344 345 347 345 343 341 341 341 340 342 345 347 347 347 347 347 347 345 343 342 342 341
301 300 300 300 302 303 308 311 316 317 316 316 319 322 322 318 316 311 305 319 328 335 341 344 346 343 341 339 339 339 339 342 345 345 346 347 346 347 345 345 344 344 344
302 299 299 299 300 301 301 304 310 312 313 313 314 315 316 316 317 321 310 307 322 329 330 338 342 341 342 339 338 339 338 338 340 342 344 346 346 346 345 344 345 344 344
301 298 298 298 299 299 299 300 300 304 309 310 315 315 311 312 317 318 315 312 310 322 325 324 333 334 340 339 337 337 338 337 338 339 341 343 344 345 345 344 344 343 343
300 298 298 298 298 297 297 298 299 300 302 305 306 306 306 308 306 310 315 310 308 311 319 321 324 325 330 338 338 336 337 338 336 337 338 340 341 341 343 344 343 342 342
299 299 297 297 297 296 297 296 296 297 299 303 301 301 298 301 304 307 308 309 307 305 311 318 317 321 320 325 328 334 334 337 336 336 336 337 338 339 339 340 340 340 339
298 297 296 296 295 295 295 295 296 295 296 296 301 301 296 295 299 303 304 306 308 309 305 308 313 315 319 318 324 327 330 333 337 335 334 334 335 336 336 337 337 337 337
296 297 297 296 295 295 294 294 298 295 294 294 296 304 303 301 297 296 301 303 304 305 307 308 306 310 312 316 320 323 326 329 333 336 333 332 331 332 332 333 333 334 333
295 296 296 295 295 295 294 294 294 294 294 293 293 294 295 298 299 298 295 298 302 302 307 308 308 305 310 312 314 318 325 326 329 333 334 331 331 330 329 328 328 328 328
293 294 295 294 294 294 294 295 295 294 295 294 294 294 295 295 294 296 296 296 299 303 303 307 310 308 306 307 314 319 323 326 326 329 331 332 331 329 329 328 327 327 327
292 293 293 293 293 294 294 294 294 293 293 294 294 295 296 297 297 297 296 296 294 298 302 304 308 310 310 305 308 318 322 325 326 327 328 330 331 331 328 328 327 327 327
292 293 294 294 294 295 295 294 294 294 294 295 294 295 296 296 297 299 297 294 292 293 297 300 304 308 310 308 309 316 316 324 324 323 327 327 329 330 330 330 329 327 326
294 295 294 293 293 293 293 293 294 293 293 293 294 295 295 297 296 297 298 296 295 291 293 297 298 303 307 311 311 311 313 320 325 323 324 326 326 329 330 331 330 329 328
292 292 293 293 293 294 294 293 293 293 292 293 294 293 294 295 295 297 297 298 297 296 293 296 298 301 304 310 313 313 313 318 323 324 321 322 324 326 327 328 327 327 327
291 292 293 293 293 293 293 292 293 293 292 292 292 293 293 295 294 295 296 297 297 298 295 296 297 299 300 304 309 311 312 313 314 318 321 321 322 324 324 325 325 326 325
292 292 292 292 292 293 293 292 292 293 292 292 292 292 292 295 295 296 296 295 297 298 297 295 296 298 299 302 305 306 309 313 310 317 317 317 318 321 322 323 322 323 323
291 292 292 292 292 292 293 292 292 293 293 293 293 292 292 293 293 296 296 295 296 298 299 298 297 299 299 300 301 304 306 307 312 316 317 317 317 319 321 320 320 320 320
291 291 292 293 293 293 293 293 293 293 292 294 294 293 293 293 293 295 296 297 296 296 298 298 297 299 298 299 300 300 300 301 305 313 315 315 317 318 319 320 320 318 316
292 292 293 293 293 293 294 294 294 293 295 293 295 295 295 296 300 299 297 297 297 295 294 297 297 298 296 295 297 299 299 300 302 307 308 310 314 312 315 319 317 317 315
292 292 292 292 292 293 297 299 298 295 295 295 293 295 296 299 299 302 303 304 301 297 295 293 295 296 294 295 296 298 299 295 297 306 306 306 311 310 313 315 317 317 315
291 291 292 292 292 293 298 300 300 297 296 295 295 294 295 296 298 297 300 302 301 306 303 297 295 295 294 295 296 295 297 296 296 301 306 303 307 308 311 313 315 316 316
291 292 292 292 292 293 299 300 301 297 295 294 294 294 295 295 296 296 296 296 298 298 299 301 299 298 298 300 300 299 298 297 298 301 306 301 302 304 306 310 313 314 315
291 292 292 292 292 293 298 300 299 296 295 293 294 293 294 293 298 300 297 295 295 295 302 304 303 304 306 305 303 299 296 295 294 297 300 300 299 300 300 304 307 313 312
292 293 293 294 296 295 298 299 299 296 293 292 292 293 298 296 300 300 297 296 293 292 295 297 300 302 305 305 308 300 298 295 293 293 298 299 298 299 297 299 301 305 309

GFSMA_sfc_thetae_057.txt.gz
Theta_e
304 308 308 312 313 315 325 328 328 329 327 326 323 314 310 309 308 309 313 328 338 346 347 348 347 346 344 343 343 343 344 348 348 347 346 348 346 344 342 340 340 339 337
299 301 301 302 303 305 311 317 318 320 323 325 324 324 321 316 308 305 306 311 326 341 347 347 348 347 345 343 343 343 342 347 347 348 347 349 347 346 343 341 341 340 339
298 299 299 299 299 301 305 306 309 313 314 316 314 319 322 322 318 316 310 306 319 333 343 347 348 347 346 344 342 342 341 342 346 347 347 346 347 346 344 343 341 341 341
299 298 298 297 299 300 302 301 303 307 307 310 309 311 315 316 315 315 314 308 316 327 338 345 347 347 346 344 342 341 340 340 342 345 346 345 346 345 346 344 343 342 342
300 296 296 297 297 298 297 298 300 302 305 305 306 310 311 310 310 314 316 314 309 319 330 337 344 343 346 344 342 340 339 339 339 342 344 344 345 345 345 345 344 344 343
298 296 296 297 296 296 295 296 296 298 301 303 307 307 306 307 307 309 306 314 312 310 321 325 330 337 343 344 342 340 339 339 338 338 340 343 343 344 344 344 344 344 344
298 297 297 296 296 295 294 295 295 297 297 300 301 299 301 304 304 304 306 310 307 308 309 320 324 328 332 340 341 341 339 339 338 337 338 339 342 342 343 344 344 343 343
297 297 295 295 294 294 294 294 293 293 295 298 296 297 293 296 300 305 303 306 305 308 308 311 315 319 323 327 332 337 337 338 338 338 336 337 338 340 341 342 343 342 342
295 295 294 294 293 293 293 292 293 292 292 293 296 296 292 291 295 299 302 303 303 305 305 308 310 313 317 317 323 330 333 336 337 338 336 335 335 337 339 340 340 341 341
294 295 295 294 293 293 292 292 296 293 291 291 293 297 298 297 295 294 296 300 302 303 302 305 309 309 310 312 318 323 329 333 334 336 338 335 335 335 335 339 339 339 339
293 294 294 293 293 292 292 292 292 292 291 291 291 291 291 293 295 295 292 293 299 301 302 304 306 309 310 310 310 316 323 328 331 333 337 337 334 333 333 334 334 337 337
292 293 294 293 292 292 292 293 292 291 291 291 291 291 292 291 291 292 292 294 295 297 302 302 304 306 307 309 312 317 320 325 328 330 332 335 335 332 332 331 331 331 332
290 291 292 292 292 292 293 293 292 291 291 290 291 292 292 293 294 294 294 294 292 295 297 301 302 305 309 306 306 314 319 322 326 328 329 332 333 333 332 329 329 329 329
290 292 292 292 292 292 292 292 291 291 291 291 291 291 293 293 294 294 294 293 291 290 294 295 300 303 306 308 309 315 313 319 324 326 327 328 330 331 332 331 329 329 327
293 293 292 291 292 292 293 293 293 292 292 292 292 292 292 293 294 295 295 295 293 290 291 292 296 300 304 306 310 310 309 316 321 325 325 326 328 329 330 330 330 330 329
290 291 292 292 292 292 292 292 292 292 291 292 293 292 291 292 292 293 294 295 295 293 290 293 294 299 301 307 308 310 310 317 320 324 322 321 322 325 327 327 328 328 328
291 291 291 291 291 291 292 291 291 291 291 291 292 291 291 292 291 292 293 294 294 294 291 294 295 298 298 300 304 307 310 311 315 323 323 322 322 322 324 324 325 325 327
291 291 291 291 291 291 292 292 291 292 291 291 291 292 292 293 292 292 292 292 293 294 294 292 294 295 296 298 301 302 308 312 313 318 322 321 320 320 321 322 323 323 323
290 290 291 290 291 291 293 293 292 292 291 291 291 291 292 293 291 291 291 291 293 295 295 294 294 296 298 297 298 301 302 305 311 315 321 320 318 318 318 320 320 320 320
289 290 291 292 292 292 293 293 293 292 292 293 292 293 293 293 292 292 291 291 294 293 294 295 295 296 295 296 301 298 301 300 304 312 317 317 318 318 317 318 319 318 318
290 291 292 292 292 293 293 293 293 293 293 293 294 295 295 296 300 298 293 291 293 294 294 294 295 296 294 295 297 297 299 298 299 307 311 313 314 314 315 315 317 317 316
291 291 291 292 292 293 297 299 298 296 296 295 294 295 296 298 298 302 302 303 299 293 293 294 294 294 293 295 298 297 297 299 297 302 307 307 313 310 311 313 316 317 316
291 291 291 292 292 293 299 301 301 298 296 296 296 296 294 296 298 296 299 301 302 303 302 296 295 295 294 298 299 298 296 297 296 300 304 302 308 308 310 313 315 316 316
290 291 292 292 292 293 300 302 303 299 297 296 297 296 293 293 294 295 294 294 294 295 298 298 298 298 298 300 301 301 298 298 298 301 303 300 305 304 309 311 314 315 315
291 291 292 293 293 293 299 302 301 298 295 295 296 295 293 292 297 299 295 294 294 295 301 302 300 303 305 305 303 299 295 295 293 295 301 301 301 301 305 306 308 312 313
292 293 293 293 295 295 298 301 301 298 295 294 295 294 298 295 298 299 295 295 293 294 295 297 299 301 303 302 307 300 298 295 292 293 299 298 299 300 297 301 304 305 310

GFSMA_sfc_thetae_060.txt.gz
Theta_e
299 301 301 302 302 303 308 311 314 317 319 321 323 322 320 317 313 309 308 319 325 332 341 347 348 348 347 345 344 344 344 346 347 347 348 347 346 345 343 341 340 338 338
297 298 298 298 298 300 302 302 304 309 311 311 314 315 315 319 318 316 312 310 321 324 330 338 347 347 346 346 345 343 343 343 344 347 348 348 346 346 344 341 341 340 338
297 296 296 296 296 298 300 299 299 303 303 306 306 309 311 315 316 314 312 312 312 320 325 330 340 346 346 346 346 344 344 342 342 346 346 346 347 345 344 343 341 341 340
297 296 295 295 296 297 298 297 298 300 300 301 302 303 307 310 310 309 311 314 311 312 321 328 333 340 346 346 345 345 344 341 341 341 345 345 345 346 345 344 342 342 342
298 295 295 295 295 295 294 296 296 297 298 298 300 302 305 305 305 309 307 310 310 312 314 323 329 336 344 346 345 344 344 341 340 339 341 344 344 344 345 344 344 343 342
297 295 295 294 294 294 294 293 293 295 296 297 302 302 301 302 303 303 304 307 310 309 308 315 320 325 331 342 344 342 343 341 340 339 338 341 343 343 343 344 343 343 343
296 295 294 294 294 293 292 292 292 293 293 296 296 295 296 299 298 301 302 306 306 307 307 310 315 320 325 330 338 342 342 341 340 341 338 338 339 343 343 343 343 343 343
295 296 293 293 293 292 292 291 291 291 292 294 292 293 290 293 296 304 302 303 303 304 307 307 307 313 318 321 327 334 338 340 339 341 340 337 337 338 342 342 342 342 343
294 294 293 292 292 291 291 290 290 290 290 291 293 292 289 288 292 295 297 299 299 300 303 304 305 308 312 317 321 324 328 336 339 340 342 338 337 337 338 342 341 342 342
292 293 293 292 291 291 290 291 294 291 289 289 290 295 294 293 291 290 293 297 299 300 299 301 304 307 308 309 315 320 323 328 333 338 339 340 338 336 337 336 340 340 340
292 293 292 292 291 291 291 291 290 290 290 289 289 289 289 290 292 292 289 292 294 299 300 301 303 305 306 308 310 313 319 322 327 331 336 337 338 335 335 335 337 338 338
291 292 292 291 291 291 291 291 291 290 290 289 289 289 290 289 288 289 288 290 291 294 298 301 301 302 304 306 310 316 318 320 322 327 331 335 336 336 335 334 332 335 336
289 290 291 291 291 291 291 291 290 289 289 289 288 290 290 291 292 291 290 290 290 293 295 299 302 302 304 304 306 313 316 318 321 322 327 331 333 334 334 335 333 333 331
289 290 291 291 291 291 292 291 291 291 291 290 289 290 291 292 292 293 291 289 288 290 291 294 298 300 302 304 307 314 312 317 319 322 324 328 330 332 333 333 333 332 331
291 292 291 291 292 292 291 291 291 291 291 291 290 290 290 291 292 292 292 292 289 286 287 292 293 297 300 303 307 308 309 315 318 320 323 325 328 330 331 332 332 331 331
289 290 290 290 290 291 291 290 290 291 290 290 291 290 290 291 291 291 291 292 292 290 287 292 292 296 298 303 305 307 308 314 316 318 321 323 325 328 330 330 329 329 329
289 289 290 290 290 290 290 290 290 290 290 290 290 290 290 291 290 290 290 291 291 291 289 292 293 293 295 297 300 304 308 309 310 318 321 322 323 325 326 326 326 326 327
290 289 289 289 290 290 290 290 290 292 291 291 291 290 290 292 291 291 290 289 290 291 291 289 292 292 293 296 298 299 302 307 309 314 318 322 321 322 323 323 322 324 324
289 289 289 289 289 290 290 292 292 292 292 292 292 291 291 292 290 291 291 291 290 292 291 291 291 293 294 295 297 299 300 302 308 314 317 320 320 321 321 320 319 320 320
288 288 289 289 290 291 292 292 292 292 292 292 293 293 292 292 292 291 292 291 291 290 291 291 292 292 294 296 297 297 298 300 303 310 314 316 319 320 320 320 320 319 318
289 289 290 292 292 292 293 292 293 294 293 293 293 293 294 296 299 298 293 292 291 289 290 290 291 291 292 295 295 298 298 298 299 305 308 311 314 315 316 319 317 317 316
289 291 291 291 291 293 297 300 299 297 297 297 295 296 296 299 300 302 302 303 299 291 289 289 290 291 291 295 297 298 297 298 297 305 305 308 312 312 314 314 316 317 316
290 291 291 292 292 293 298 301 302 299 298 298 297 296 296 297 298 296 298 301 300 301 301 295 291 292 292 295 298 297 297 298 296 301 307 305 310 309 313 313 315 316 316
290 291 291 292 292 294 300 302 302 299 299 298 298 297 296 296 296 295 294 293 293 293 294 295 296 294 296 298 300 300 299 299 301 304 303 301 307 307 310 312 314 315 316
290 291 292 293 293 293 299 301 300 297 297 297 298 297 296 295 298 300 295 292 292 292 298 301 302 301 301 303 302 301 298 297 294 300 302 302 304 304 307 309 312 313 314
292 293 293 293 295 294 298 300 300 298 296 296 298 296 299 297 298 299 294 291 291 291 294 296 297 300 301 301 305 302 300 297 294 296 302 299 302 301 299 303 307 309 310

GFSMA_sfc_thetae_066.txt.gz
Theta_e
310 311 310 311 311 311 311 310 311 311 312 312 312 312 314 316 320 323 326 325 321 325 329 333 334 336 341 347 347 346 345 345 345 346 347 347 347 346 344 343 341 340 338
309 309 309 309 309 309 309 309 309 309 309 310 310 311 312 312 313 315 317 320 322 320 323 325 329 333 335 339 347 346 346 345 344 344 344 345 346 346 345 344 341 340 339
309 309 308 308 308 308 308 308 308 308 308 308 308 309 310 311 312 313 313 315 317 323 320 319 324 328 334 335 339 348 346 347 345 344 343 343 345 346 345 345 342 341 340
309 309 309 308 308 308 307 307 306 306 306 306 306 307 308 309 310 311 312 313 314 314 320 324 322 326 330 335 336 339 348 346 346 345 343 342 344 346 345 345 344 342 341
309 310 309 308 308 308 307 306 306 305 305 305 305 306 307 307 308 308 309 311 313 315 317 324 320 323 326 330 334 336 341 347 346 346 346 344 343 345 344 345 345 343 342
309 309 309 308 308 307 306 306 304 305 305 305 304 304 307 307 308 308 308 310 312 316 319 318 317 318 317 321 326 333 336 343 346 346 345 345 341 341 345 344 346 344 344
308 308 308 307 307 306 305 305 304 304 303 305 303 303 304 306 307 309 310 310 312 313 315 315 314 315 315 320 319 325 332 336 343 344 344 343 342 340 342 344 345 345 344
307 306 306 306 306 305 305 305 304 303 303 304 300 300 298 301 305 310 310 309 310 311 312 313 313 313 314 314 318 320 322 327 334 342 344 343 342 341 340 344 343 344 344
306 305 306 305 304 304 303 304 304 303 300 303 302 299 296 295 298 302 304 306 306 306 307 307 309 310 310 311 315 318 322 321 324 329 339 342 342 342 342 342 343 343 344
305 305 304 304 304 304 303 303 303 302 301 299 301 301 301 300 295 295 301 302 304 303 305 306 307 308 309 311 314 317 317 317 319 322 327 338 341 341 342 342 342 343 343
306 304 304 303 303 303 303 302 301 301 301 299 299 299 299 299 299 296 294 298 301 303 304 305 306 306 308 308 309 313 318 318 315 317 322 326 337 339 340 341 342 341 343
304 304 303 303 303 302 301 301 301 301 300 300 300 299 298 297 296 296 295 296 297 300 302 303 304 304 306 307 309 314 316 315 316 315 317 322 326 336 337 339 340 342 342
302 302 302 301 301 301 301 301 300 299 299 298 298 298 299 298 299 298 296 295 295 298 299 302 303 304 304 305 306 311 313 316 316 314 314 318 322 326 334 337 338 340 341
301 301 300 300 300 300 300 299 299 298 299 298 298 299 298 298 299 298 296 295 293 295 297 298 302 303 304 304 306 312 308 314 316 315 315 317 320 322 326 332 336 337 337
300 300 300 299 298 298 298 299 298 298 298 298 298 299 298 298 299 299 298 297 294 291 293 297 298 302 303 303 305 305 306 310 315 316 316 316 318 320 322 327 332 334 334
299 298 298 298 298 298 298 298 298 298 298 298 298 298 297 297 297 297 296 296 296 294 292 297 298 301 302 302 304 304 306 311 313 312 314 315 317 317 319 324 329 332 331
297 297 296 296 297 297 298 297 297 298 297 297 297 296 295 296 295 296 296 295 294 294 292 295 298 300 300 300 301 304 305 305 308 312 313 314 315 318 320 323 325 328 329
297 296 296 296 296 297 297 297 297 297 295 294 295 295 295 295 295 296 296 295 295 294 292 290 295 297 298 300 301 301 303 304 305 309 310 311 313 315 319 321 322 324 326
295 295 295 296 296 297 297 297 297 296 295 294 294 295 295 295 294 295 295 295 296 296 295 292 292 295 296 298 299 300 301 302 303 307 308 310 312 314 318 320 321 322 322
294 295 296 296 297 297 297 297 296 295 295 296 296 296 296 297 295 294 294 294 295 294 295 294 293 294 294 296 298 297 298 301 301 303 306 308 311 312 316 318 320 320 319
295 296 296 296 297 296 296 296 297 297 297 297 298 297 298 299 302 301 296 295 295 294 295 295 295 294 294 294 294 298 297 299 301 303 303 305 307 310 313 318 316 319 318
295 296 295 295 295 296 299 300 300 298 299 299 298 300 301 301 302 305 306 306 301 295 295 296 296 295 293 294 297 297 297 296 295 303 302 303 307 309 311 314 316 318 318
295 293 293 293 293 295 299 301 302 300 300 300 300 301 299 300 301 300 303 304 304 305 302 297 294 295 294 297 297 296 296 297 297 301 303 301 306 307 310 314 316 317 317
293 292 293 294 294 295 299 301 302 300 299 298 299 298 297 297 299 298 298 297 298 298 299 300 297 295 296 297 298 298 298 299 301 303 305 300 305 304 311 316 315 315 316
293 293 294 294 294 295 299 300 300 298 298 298 298 298 298 299 302 303 299 297 296 296 300 302 302 301 301 302 301 299 298 297 296 298 305 304 305 306 310 314 318 313 314
293 292 292 294 296 295 298 300 299 298 296 298 296 298 301 300 304 305 300 298 294 294 296 296 298 299 301 301 302 299 300 297 295 295 303 301 305 307 303 313 315 314 316

GFSMA_sfc_thetae_069.txt.gz
Theta_e
311 312 311 311 311 311 310 310 310 310 310 310 311 311 311 312 312 314 321 328 321 322 325 330 331 334 336 339 345 347 348 346 345 346 347 348 347 347 345 343 341 340 340
311 311 310 310 310 310 309 309 308 308 308 309 309 310 310 311 311 313 315 318 327 323 322 323 326 330 333 335 338 345 347 347 347 346 345 346 347 347 347 346 342 341 339
311 311 311 310 309 310 309 308 308 308 308 308 308 308 309 309 311 310 313 315 317 326 325 322 321 324 329 333 336 338 345 348 347 347 346 344 345 346 346 346 344 341 341
312 311 311 310 310 310 310 308 307 307 307 307 307 308 307 309 308 309 311 313 315 314 321 327 323 323 325 330 334 337 339 346 347 346 347 346 345 346 347 346 345 343 341
310 311 310 310 310 310 309 308 307 306 305 306 306 307 307 308 309 309 309 312 314 316 316 322 323 322 323 326 329 334 336 338 346 347 346 346 345 345 348 346 345 344 342
310 310 310 310 309 309 308 308 306 307 306 306 304 304 307 308 309 309 309 309 312 316 317 322 321 319 325 322 321 326 332 336 337 347 347 346 345 342 344 346 346 345 345
309 309 309 309 309 308 307 307 306 305 305 306 304 304 305 305 306 308 309 310 312 313 315 315 318 316 316 326 321 320 325 331 336 338 345 345 345 344 341 346 346 345 345
308 308 308 308 307 307 306 306 307 304 304 305 301 302 298 301 305 307 308 306 305 309 309 311 312 314 315 316 318 323 323 322 325 333 339 343 344 344 344 343 347 344 345
308 307 307 306 306 306 306 306 306 306 302 303 303 300 296 295 299 302 303 305 305 306 306 307 308 309 310 311 314 316 323 322 321 324 328 335 342 343 343 343 344 346 345
307 307 306 306 305 305 305 305 304 303 303 300 302 301 301 300 296 295 301 303 303 303 305 306 306 306 308 309 314 318 320 320 317 317 320 325 332 341 342 342 343 344 346
308 307 306 305 305 305 304 303 302 301 302 301 301 300 300 300 300 297 294 298 301 303 305 305 306 306 307 308 309 312 318 321 320 316 316 318 325 330 339 341 341 342 344
307 306 306 305 305 304 302 303 302 301 301 300 301 300 299 298 297 297 295 296 297 300 303 304 305 305 306 307 309 313 315 316 317 315 315 316 318 324 330 338 340 341 342
304 305 304 303 303 304 303 303 302 301 300 299 299 299 300 299 299 298 297 295 295 298 300 302 303 304 305 306 307 311 312 314 316 317 316 315 316 319 323 329 336 339 341
303 304 303 302 301 301 301 301 300 300 300 299 300 299 299 300 300 300 298 296 293 295 298 298 302 303 304 304 307 311 306 312 314 316 316 316 317 316 320 324 329 334 338
302 302 301 300 300 299 299 299 299 298 299 299 299 299 299 300 300 300 300 298 295 291 292 297 298 302 303 304 306 304 304 309 313 313 315 316 317 314 316 321 324 329 334
301 300 299 299 299 298 298 298 299 299 298 299 299 299 299 299 298 298 297 297 295 292 289 295 297 299 301 302 305 304 304 309 309 311 315 315 317 314 315 318 322 325 329
299 298 298 298 297 297 297 297 297 298 298 298 297 297 296 297 296 296 296 295 294 293 290 293 296 298 298 299 301 303 304 303 304 311 314 314 314 315 315 318 320 323 325
298 297 296 296 296 296 297 297 297 297 297 296 296 296 296 296 295 296 296 295 295 296 293 291 294 295 295 298 299 300 301 302 303 308 312 314 313 314 314 315 318 321 322
296 296 296 295 295 296 297 297 297 297 296 296 296 296 296 295 295 296 296 295 296 296 296 294 293 295 296 296 296 298 299 301 302 307 309 310 312 312 312 313 315 319 319
295 295 295 296 297 297 297 296 296 296 296 297 297 297 297 296 295 295 295 296 296 294 294 293 293 293 295 296 296 294 295 299 300 301 305 308 310 310 311 312 314 318 317
295 295 295 296 296 296 296 296 297 297 297 297 298 298 298 300 303 301 297 296 295 294 294 293 292 293 294 294 293 295 294 297 299 301 302 303 304 305 306 313 311 315 317
295 295 295 295 293 295 298 299 299 297 298 298 298 299 299 301 302 304 305 305 303 295 293 293 292 292 294 295 296 295 295 295 294 301 300 301 304 304 307 309 314 314 315
294 294 294 293 293 294 299 300 301 298 298 298 299 299 299 300 301 299 302 304 304 305 305 296 293 294 294 297 296 295 295 295 295 299 299 298 303 302 306 309 313 314 314
294 293 293 293 294 295 299 300 301 298 298 298 298 298 298 298 299 299 298 298 298 298 299 300 299 297 297 299 298 297 297 297 298 299 300 296 301 302 305 307 312 314 315
291 292 293 293 293 294 298 300 299 297 297 297 297 299 297 297 301 303 299 299 298 298 302 304 304 303 303 302 300 297 295 295 294 296 300 299 300 301 303 305 311 312 313
291 292 292 293 295 294 297 299 299 297 296 295 296 296 297 298 302 302 299 299 298 297 297 297 299 300 302 301 303 299 297 294 295 295 299 299 299 301 299 305 309 311 313

GFSMA_sfc_thetae_072.txt.gz
Theta_e
303 304 303 304 303 304 303 302 302 302 302 303 303 302 301 302 303 305 308 328 326 322 322 323 326 332 334 336 339 343 347 347 345 346 346 347 347 347 346 344 342 342 340
303 304 304 304 303 303 302 302 300 301 301 302 303 302 301 301 302 303 306 308 329 329 323 322 322 323 327 333 335 337 341 347 346 347 347 346 346 347 347 346 343 342 340
305 305 304 303 303 304 304 303 302 302 302 303 300 301 302 302 302 301 302 305 309 323 330 324 321 322 323 327 333 336 338 340 348 346 347 346 345 346 346 346 344 342 341
305 305 305 303 303 304 304 302 302 301 300 300 299 300 300 301 301 301 303 304 305 308 316 326 321 322 323 324 325 331 336 338 340 346 347 347 346 347 347 346 346 344 342
306 305 304 304 304 304 303 303 302 300 299 299 300 298 299 300 301 304 301 302 304 307 308 318 325 325 322 323 325 325 329 335 337 342 345 346 347 346 346 348 346 345 343
305 304 304 304 303 302 303 301 299 300 299 299 302 301 298 299 300 300 300 303 303 306 307 308 313 315 323 321 324 322 321 326 333 337 340 344 345 345 344 346 348 346 345
304 302 303 302 302 301 300 301 300 298 298 299 297 297 297 300 298 298 299 300 301 302 304 307 309 311 311 325 328 322 321 323 328 331 337 339 343 344 344 344 348 347 346
303 303 301 301 301 300 299 299 299 298 297 298 294 293 291 294 296 298 297 299 297 298 300 302 301 303 305 307 311 323 322 318 320 321 325 333 338 342 343 344 345 346 347
303 302 301 299 299 299 298 298 298 297 295 296 295 293 289 288 293 296 295 297 296 297 297 299 300 301 301 301 307 310 319 323 320 320 322 325 330 336 341 342 342 346 347
302 302 301 300 299 298 297 297 299 295 294 292 294 298 294 292 290 290 293 294 296 297 296 297 298 299 299 299 308 314 319 323 321 319 319 320 322 327 333 339 341 342 345
302 302 301 299 298 298 297 296 296 295 294 293 292 292 292 292 292 291 289 292 294 295 296 297 298 298 299 300 300 306 316 317 318 318 318 318 319 320 327 332 338 342 342
301 301 301 299 298 297 297 296 295 295 294 293 293 292 292 290 291 290 290 291 291 294 295 296 296 296 298 299 305 313 314 315 316 315 315 316 317 318 320 326 331 338 341
298 298 299 297 296 296 297 296 295 294 294 293 292 293 293 293 294 293 292 291 290 293 292 295 295 297 300 298 299 310 312 312 314 314 314 315 315 317 318 320 325 329 334
297 298 297 297 296 296 295 294 293 293 293 292 291 292 293 294 294 294 293 291 289 291 292 291 295 296 298 298 301 311 305 312 313 312 311 311 318 315 316 317 320 324 329
299 297 296 295 295 294 294 293 292 292 292 292 293 292 293 294 294 294 294 294 293 288 288 290 290 295 296 297 300 300 298 306 309 311 314 314 315 316 314 316 317 321 325
296 296 295 294 293 293 293 292 291 292 292 293 294 293 293 294 296 297 296 295 294 292 288 290 291 292 295 297 299 299 299 306 308 307 310 311 312 317 317 317 317 320 323
294 293 293 293 292 291 291 291 291 292 292 292 293 295 295 296 295 295 295 295 293 293 289 291 291 293 293 293 295 296 298 298 298 307 307 310 311 314 317 316 317 318 320
293 292 292 291 291 291 291 291 291 292 292 292 294 295 294 296 295 295 294 292 292 292 291 288 291 292 292 293 294 293 296 298 298 303 307 311 311 312 314 315 315 316 318
291 291 291 291 291 292 293 293 293 294 295 294 295 294 295 295 294 294 294 294 294 294 293 292 291 293 293 294 293 293 293 294 297 302 305 307 310 311 313 314 314 314 314
291 290 291 292 292 293 293 293 293 294 294 295 295 296 296 295 294 294 295 294 294 294 294 293 292 293 294 294 293 292 291 293 293 298 301 304 306 308 311 312 313 313 313
291 291 292 292 292 292 293 293 294 294 295 295 296 296 297 299 303 302 299 297 295 294 293 293 292 292 292 292 291 292 291 292 292 294 296 299 298 299 302 311 310 310 311
289 291 291 291 290 293 297 298 298 296 296 296 296 298 297 300 301 303 304 304 303 298 293 292 292 291 292 293 293 292 291 290 289 296 295 295 300 297 300 301 307 310 311
288 289 289 290 290 293 298 300 300 297 297 297 297 297 296 298 299 297 300 303 302 303 303 299 294 293 293 295 295 294 292 291 291 294 295 294 296 299 301 304 310 309 312
288 287 289 291 291 292 298 299 300 297 296 296 296 296 296 295 296 296 295 296 298 298 299 299 298 298 297 297 297 297 295 293 293 295 295 291 294 294 298 300 308 310 313
287 290 290 291 291 292 297 299 298 296 295 295 296 295 295 294 298 300 297 296 296 297 303 306 305 303 303 302 301 298 295 293 292 292 297 293 295 294 296 298 301 308 310
289 290 290 291 294 292 297 298 298 296 294 294 294 294 297 296 299 300 296 296 294 296 298 299 300 301 302 303 304 299 295 292 292 292 296 294 295 296 293 298 301 303 306

GFSMA_sfc_thetae_075.txt.gz
Theta_e
301 300 300 300 300 300 299 299 298 299 299 300 301 300 299 299 299 301 302 318 328 325 323 320 322 323 328 333 335 338 341 345 345 345 347 347 347 347 345 344 343 341 340
301 301 301 300 300 300 300 300 299 299 299 299 300 300 299 299 299 300 300 302 320 327 324 321 321 321 323 324 330 335 337 339 345 345 348 346 346 347 346 346 343 342 340
302 301 300 300 300 301 301 300 300 300 299 300 298 299 299 299 299 299 300 301 304 315 321 325 320 320 322 323 325 326 333 337 338 345 346 345 346 346 346 346 344 343 341
303 302 301 300 301 302 301 300 299 299 298 298 296 297 296 298 298 299 300 300 301 303 310 318 322 317 320 322 324 325 327 333 338 338 343 345 345 347 347 346 346 344 342
304 302 301 301 301 301 301 300 299 298 297 297 299 298 297 297 297 301 297 299 300 302 304 313 324 325 320 321 322 324 322 323 330 336 338 342 343 344 346 348 346 345 344
303 302 301 301 301 300 299 298 297 298 297 297 300 299 296 298 297 296 296 299 300 300 301 305 307 312 324 321 319 321 322 321 323 326 334 337 340 342 343 344 348 347 345
302 300 301 300 300 299 298 298 297 296 296 296 294 294 294 296 294 293 295 295 297 297 297 299 300 306 309 319 323 321 321 321 320 323 323 327 335 340 342 342 344 347 347
302 301 299 299 298 298 297 296 296 295 295 295 292 290 289 291 293 297 298 295 297 296 297 298 297 297 298 300 305 318 320 318 318 319 320 321 326 333 338 340 342 343 346
302 300 299 298 297 296 296 295 295 294 292 293 293 291 287 286 291 292 293 294 293 294 295 295 296 297 297 296 301 305 313 317 316 318 320 321 323 325 331 336 341 342 343
301 300 299 298 297 296 295 295 298 293 292 290 291 295 291 290 287 287 290 291 293 294 293 294 295 296 297 297 303 309 314 318 314 315 318 319 320 321 323 328 334 338 341
301 300 298 297 296 295 295 294 293 293 292 291 290 290 289 290 289 288 288 290 291 292 293 294 294 294 296 297 297 302 312 316 316 313 314 316 319 320 321 322 326 331 335
298 298 299 296 296 295 294 294 293 292 292 291 291 290 290 288 289 287 287 288 289 291 292 293 293 294 295 296 302 308 309 311 314 313 312 313 315 317 319 321 322 325 330
295 296 296 295 294 294 294 293 292 292 291 291 290 290 290 291 291 291 289 289 289 291 290 292 293 294 297 295 296 306 308 309 312 311 311 311 313 314 316 318 320 321 323
295 296 295 295 294 294 294 293 291 291 290 290 289 289 290 290 291 291 291 289 288 290 291 289 292 292 293 294 299 305 298 306 308 311 313 312 311 312 314 316 317 319 320
297 296 295 294 294 293 292 291 290 290 290 290 290 290 290 292 291 292 291 292 291 288 288 289 288 292 294 296 298 298 296 302 306 308 312 311 310 311 312 313 315 316 318
294 294 293 292 292 291 291 290 289 289 289 290 292 290 290 291 292 295 296 295 294 291 288 292 289 290 292 296 297 297 296 302 304 305 307 311 310 309 310 312 315 317 318
291 291 291 291 290 290 289 288 288 288 288 289 290 290 291 292 295 295 295 295 294 293 289 291 290 291 290 291 294 295 296 293 295 303 305 307 310 310 310 312 316 317 317
290 290 290 290 290 290 290 289 289 290 289 290 290 293 294 295 294 295 294 294 293 293 291 288 291 291 290 292 293 292 295 297 295 300 303 305 307 310 311 312 314 316 316
289 289 289 289 290 291 291 290 291 290 290 292 293 293 293 294 293 294 294 292 293 294 292 290 290 292 292 293 292 293 293 293 295 300 303 303 305 307 310 310 312 314 314
288 288 288 289 290 291 291 291 290 289 290 293 294 295 295 295 294 293 293 293 293 293 293 292 292 292 292 294 294 292 291 292 292 296 299 301 302 304 306 309 312 313 313
289 288 289 290 289 290 292 292 293 293 294 294 295 295 296 298 301 301 298 297 296 294 293 293 291 292 292 292 291 293 291 292 292 293 293 294 295 296 298 304 308 311 311
287 288 287 288 288 291 296 298 297 295 296 295 296 297 298 299 299 303 303 303 301 297 295 294 292 292 292 293 294 292 291 289 288 292 291 292 295 295 297 297 305 310 310
286 286 286 287 287 290 297 298 299 296 296 296 296 296 296 297 298 297 299 301 300 301 301 297 295 294 293 295 295 294 293 292 291 291 291 290 293 293 298 303 308 308 310
285 285 286 287 290 291 297 298 299 296 295 295 295 295 295 294 295 295 295 295 295 295 297 298 298 298 298 297 297 296 295 295 295 293 293 290 292 292 295 296 304 308 309
284 285 287 289 290 290 297 298 297 295 295 295 295 295 294 293 297 299 295 294 293 295 300 303 304 304 306 304 301 297 294 293 292 292 293 292 291 291 293 295 297 304 307
286 288 288 291 293 291 295 298 297 295 291 294 293 294 296 295 298 298 294 293 293 293 295 296 298 300 301 305 305 298 296 293 293 291 295 292 291 292 290 295 297 299 300

GFSMA_sfc_thetae_078.txt.gz
Theta_e
299 300 299 299 298 299 298 297 298 298 298 299 299 298 297 297 297 299 300 314 320 323 323 321 322 322 323 325 330 335 337 340 344 345 347 347 346 346 345 343 343 342 341
300 300 299 299 299 299 298 298 298 297 297 297 299 298 297 297 297 298 299 300 315 319 322 321 320 320 322 323 326 329 333 337 339 344 346 346 346 346 345 345 344 342 340
300 299 299 298 298 299 299 299 299 298 298 299 297 298 298 297 297 297 298 299 301 310 315 320 320 319 319 322 324 325 326 330 337 338 342 344 345 346 346 345 344 343 341
301 300 299 299 299 300 300 298 298 297 297 296 296 297 296 297 297 297 298 297 298 301 307 316 322 317 318 321 322 324 325 326 331 337 338 341 342 344 346 346 345 344 343
303 300 299 299 300 300 299 298 298 297 296 296 298 297 296 295 295 298 295 296 298 299 300 308 318 321 322 319 320 321 323 322 322 326 334 337 339 342 342 345 345 344 344
302 301 300 300 299 298 298 297 296 296 296 295 299 297 295 295 294 294 294 296 296 297 296 298 300 303 315 321 324 321 321 322 321 324 327 330 336 338 341 342 344 345 344
301 300 300 299 298 298 297 297 296 295 295 294 293 292 292 293 291 292 293 293 295 296 295 297 296 297 299 311 313 315 318 321 321 320 320 321 323 327 335 340 341 342 344
300 300 299 299 297 297 295 295 295 294 294 293 291 288 287 290 292 294 295 293 293 294 296 296 294 295 295 297 302 312 314 315 316 317 318 319 321 323 329 335 338 341 342
300 300 298 298 297 295 295 294 294 293 291 292 291 290 286 284 287 291 291 292 291 293 293 293 295 295 295 295 299 303 312 315 316 315 317 318 321 322 323 328 332 336 340
300 300 298 297 295 295 294 294 296 293 291 290 290 294 290 289 286 286 289 290 292 292 292 292 293 294 294 295 300 305 309 312 312 312 315 316 318 320 321 322 323 329 334
299 298 297 296 295 294 294 293 292 291 291 290 289 289 288 288 287 286 287 288 290 290 291 292 292 292 293 294 295 300 308 309 311 312 313 314 315 317 320 321 322 323 326
297 297 297 295 295 294 293 293 292 291 291 290 289 289 289 287 286 286 284 287 288 290 290 291 291 292 294 294 300 305 307 308 310 310 311 312 314 315 317 319 320 322 323
294 295 295 294 293 293 293 292 291 290 290 289 289 289 289 289 290 288 288 288 287 290 289 290 292 292 295 294 294 303 306 307 307 309 311 311 312 313 314 315 317 319 321
294 295 294 293 293 293 293 292 290 290 289 289 288 288 289 289 289 290 289 287 287 289 290 289 291 292 292 293 295 305 298 304 305 306 308 311 312 311 312 313 315 316 318
296 294 293 292 292 292 291 290 289 288 288 288 288 288 288 289 289 290 290 290 289 286 287 289 288 291 292 293 296 297 296 300 304 305 306 308 310 312 311 312 313 314 315
292 291 290 290 290 290 289 288 287 288 287 288 289 288 288 289 290 290 291 292 293 291 288 291 290 290 292 295 297 297 295 301 303 304 304 306 307 310 310 311 311 311 313
289 290 290 289 289 289 288 287 287 287 287 287 287 288 289 290 290 292 294 294 293 293 289 291 292 291 288 291 293 293 294 293 294 302 304 304 306 307 309 310 310 310 312
289 289 289 289 288 288 288 287 287 288 288 288 289 289 290 294 293 292 293 293 293 293 292 289 291 290 288 291 292 292 293 296 295 300 303 304 304 306 307 309 311 312 313
288 288 288 287 288 288 288 288 288 289 289 289 289 290 290 291 291 292 292 292 292 293 292 290 290 292 292 292 291 291 292 292 295 300 303 304 304 305 305 308 310 310 311
287 287 287 288 288 288 289 289 289 289 289 290 291 292 294 293 293 292 293 292 292 292 292 291 291 292 292 293 292 291 290 291 292 295 299 301 302 303 303 306 309 309 310
287 287 287 287 287 289 290 290 291 291 292 292 294 295 295 297 301 300 297 295 294 293 293 292 291 292 292 292 292 293 292 293 292 292 292 293 294 295 296 301 306 308 308
286 286 286 286 286 289 295 297 295 294 294 294 294 295 297 298 298 301 302 302 301 297 295 294 293 291 292 293 294 294 293 291 289 292 291 291 294 293 294 295 301 304 307
285 284 284 285 286 287 296 298 298 295 295 295 295 295 294 296 297 295 298 300 299 301 300 296 293 293 294 295 295 294 294 293 291 292 292 289 291 291 295 298 303 305 307
284 283 284 286 286 288 296 297 298 295 294 295 294 294 294 294 294 295 294 293 294 295 296 296 295 294 295 298 297 296 295 295 295 296 296 290 290 290 293 294 303 305 307
283 284 286 286 285 288 296 297 297 294 294 293 293 294 294 292 296 299 294 293 293 294 298 301 301 302 303 304 303 299 295 293 292 293 296 293 292 289 291 292 295 302 305
285 286 286 287 290 290 294 296 296 295 292 294 293 293 296 295 297 297 293 291 289 291 294 294 295 297 300 299 302 298 297 293 292 292 295 291 291 290 288 292 295 296 296

GFSMA_sfc_thetae_081.txt.gz
Theta_e
297 298 297 298 298 298 297 297 297 297 297 297 297 297 296 295 296 297 298 313 316 319 323 323 322 322 322 324 326 331 335 338 340 344 345 346 346 345 344 343 343 342 341
298 298 298 298 298 297 297 297 297 296 296 296 297 297 296 295 296 296 298 299 312 316 318 321 323 319 320 322 324 326 327 329 337 339 342 345 345 345 345 344 343 342 341
299 298 298 297 297 298 298 298 298 297 297 298 295 296 297 296 296 295 297 297 300 310 317 321 322 322 319 320 322 324 325 327 330 337 338 341 344 344 345 345 344 343 341
300 298 298 298 298 299 298 297 297 296 296 295 295 296 295 295 295 295 296 296 298 299 303 318 321 325 324 320 321 322 323 324 324 330 336 338 340 342 344 345 344 344 343
301 299 299 298 299 298 297 297 296 296 295 295 297 296 295 294 294 297 294 295 296 296 296 306 311 312 317 323 325 323 321 323 322 323 325 332 337 338 340 342 344 344 343
301 299 299 298 298 297 296 296 295 295 294 294 298 296 293 293 292 292 292 294 294 295 295 296 296 298 311 314 315 318 322 323 322 320 324 324 325 329 335 339 341 343 343
301 299 298 298 298 297 296 296 295 294 294 294 292 292 291 292 290 291 291 291 293 294 294 295 294 295 296 308 311 316 317 318 319 320 319 320 321 322 325 333 338 341 342
299 299 298 298 297 296 295 294 294 293 293 292 290 287 287 289 290 293 291 292 291 292 294 294 293 294 294 295 303 309 311 316 317 317 317 318 320 321 322 326 331 336 339
299 298 297 297 296 295 294 293 293 292 291 291 290 290 285 283 286 290 290 291 290 291 291 292 293 293 293 293 298 301 308 311 315 316 316 317 318 320 322 323 325 330 332
298 298 297 296 295 294 293 293 294 292 291 289 289 292 289 288 286 284 288 289 291 291 290 291 292 293 293 293 298 303 307 309 310 314 314 315 317 318 320 321 322 323 326
299 298 297 295 294 293 292 293 292 291 290 289 289 288 287 287 286 285 286 286 290 289 290 290 291 291 292 293 293 298 306 308 309 311 313 314 315 316 317 319 321 322 323
296 295 296 294 294 293 293 292 291 290 290 289 289 288 288 287 286 285 283 284 286 289 289 291 291 291 292 293 298 304 306 307 308 309 311 312 314 315 316 317 319 320 321
293 293 294 293 293 292 292 291 290 289 289 288 288 288 288 288 288 287 287 287 285 288 288 289 290 291 294 293 293 303 305 306 307 307 308 310 312 313 314 315 316 317 319
292 293 293 292 292 292 291 290 289 289 288 288 287 286 287 288 288 288 287 285 285 287 287 288 289 291 291 292 295 304 299 306 305 306 307 308 309 311 314 313 314 315 316
295 292 291 290 290 289 289 288 287 287 287 287 287 286 286 287 287 288 288 288 287 284 286 289 287 289 291 292 295 296 294 301 304 304 305 306 308 309 311 314 313 314 314
290 289 289 289 289 288 288 287 286 286 286 286 287 286 286 286 287 288 289 289 289 287 285 289 288 289 290 294 295 297 295 302 303 304 304 305 306 308 309 311 313 312 313
288 289 289 288 288 288 287 286 286 286 286 286 286 286 287 287 288 288 289 290 290 290 288 290 290 290 288 290 292 293 294 293 295 302 304 304 305 305 307 309 311 313 313
288 288 288 288 287 287 287 286 286 287 286 286 287 287 288 291 289 289 289 290 290 291 290 288 289 290 287 289 291 291 293 295 293 299 303 304 304 305 305 307 309 310 312
287 287 287 286 287 287 287 287 287 287 287 288 288 288 289 289 288 289 290 290 290 291 291 290 289 292 291 289 290 291 290 291 294 299 302 304 304 305 305 305 307 309 310
286 286 286 287 287 287 287 288 288 288 288 289 290 290 290 290 290 290 291 292 292 291 291 290 291 290 291 291 290 290 290 290 291 295 298 300 301 303 304 306 306 307 308
286 286 286 286 286 287 289 287 288 290 291 292 293 293 293 296 301 299 297 295 293 292 291 291 291 291 291 292 292 294 292 293 292 291 292 292 294 295 296 302 304 306 306
285 285 285 285 284 287 294 297 295 292 294 293 294 295 296 298 297 300 302 302 299 296 294 294 292 290 291 293 293 292 293 292 290 294 290 291 293 292 293 294 300 302 303
284 284 283 283 284 285 295 297 298 294 294 295 294 293 294 295 297 294 297 299 299 300 299 295 293 293 293 294 294 293 293 293 292 295 293 288 290 290 293 296 300 301 302
283 282 283 284 284 287 295 297 298 295 294 294 293 294 293 292 294 295 293 292 293 294 295 295 294 294 294 294 294 294 293 294 295 296 296 290 291 289 292 293 300 302 303
282 283 285 284 284 285 294 297 295 293 293 293 294 293 294 292 296 299 294 292 292 292 297 299 300 300 301 302 301 298 294 293 291 293 296 293 294 292 290 291 294 301 305
284 285 284 285 288 288 293 295 295 294 293 292 293 293 297 296 298 298 293 292 291 291 293 292 293 295 298 297 300 299 295 292 293 291 296 293 293 292 291 290 293 294 296

GFSMA_sfc_thetae_087.txt.gz
Theta_e
307 307 307 308 308 308 308 308 307 307 307 306 306 305 305 305 305 306 308 317 320 322 322 323 323 323 322 324 326 328 329 331 333 340 342 344 342 341 343 346 345 343 341
307 308 307 307 307 308 307 307 307 306 306 306 305 305 304 305 305 305 306 309 318 323 324 328 326 323 321 322 324 326 326 328 330 334 339 341 342 343 343 344 345 344 342
308 308 307 307 307 307 306 306 306 306 306 306 305 305 304 304 305 304 305 306 307 310 317 320 324 327 327 326 324 323 324 326 325 328 335 339 340 341 342 343 344 344 343
308 308 308 308 307 308 308 307 307 306 305 305 305 305 304 304 304 304 304 305 306 305 307 314 316 319 322 323 324 325 326 325 325 324 326 332 338 339 340 341 343 343 343
307 308 308 308 308 308 308 308 306 306 306 305 305 305 305 304 303 302 303 304 305 305 305 307 309 310 314 318 320 322 322 323 325 325 324 327 327 330 333 338 340 342 343
307 308 308 308 307 307 307 307 306 306 305 304 303 303 304 303 304 304 302 303 304 304 304 305 305 304 309 312 314 318 319 320 321 323 323 321 321 323 325 329 336 339 342
308 308 308 307 307 307 307 306 306 304 304 303 303 304 304 303 303 302 303 304 303 304 303 303 303 303 303 306 307 311 314 316 318 320 321 321 321 320 322 323 327 334 338
308 307 308 307 306 306 305 305 305 304 304 303 302 300 299 302 302 302 303 302 301 303 302 302 302 302 303 303 304 306 307 311 314 316 319 320 320 320 321 323 323 326 333
307 307 307 307 306 306 305 304 303 303 303 302 300 301 297 296 297 301 301 301 301 301 301 301 301 301 301 302 303 303 305 308 311 314 316 318 319 319 320 321 322 323 327
306 306 305 305 305 304 304 303 303 303 302 301 300 300 300 299 295 294 299 299 300 299 300 300 300 300 301 301 302 304 305 307 308 311 313 316 318 319 318 319 321 322 323
305 304 304 304 303 303 303 302 302 301 302 301 300 299 298 298 297 294 292 295 297 298 299 299 299 300 300 301 301 302 305 306 308 310 311 313 315 317 318 319 319 321 322
304 303 303 303 303 302 302 302 301 300 300 299 299 298 297 296 295 294 292 293 293 295 297 298 298 299 300 301 301 303 305 306 307 308 310 311 312 314 316 318 319 319 320
302 301 301 301 301 301 301 301 300 299 299 298 298 298 298 297 297 295 294 292 292 294 295 297 298 299 299 300 301 303 304 306 307 308 309 310 310 311 313 315 317 318 319
301 300 300 300 299 298 299 298 298 298 297 296 296 296 295 296 296 295 293 292 290 291 293 294 297 298 299 299 301 303 303 305 306 306 307 308 309 309 310 312 314 316 317
299 298 297 297 297 297 296 296 296 295 295 295 294 294 294 294 295 295 294 294 291 288 290 293 294 297 298 299 300 301 301 303 304 304 305 306 307 308 309 311 312 313 315
297 297 296 296 296 295 295 295 294 294 293 294 294 293 293 294 294 294 294 294 293 291 289 294 295 297 298 298 300 300 301 303 304 304 304 305 306 307 308 309 310 311 312
296 295 295 295 294 294 294 294 293 293 293 293 293 293 293 294 294 294 294 294 293 293 290 294 295 296 296 297 298 299 300 300 301 303 304 304 304 305 306 307 308 310 311
294 294 294 293 293 293 294 293 293 293 292 292 292 293 293 294 294 295 294 294 293 294 292 290 293 294 295 297 297 297 298 298 299 301 303 304 304 304 305 306 307 308 308
293 293 293 293 293 293 293 293 292 292 292 292 292 292 293 294 293 294 294 294 294 294 294 292 293 295 296 296 296 297 297 298 298 301 302 303 304 305 305 306 306 307 308
292 293 293 292 292 292 292 292 291 291 292 293 293 294 294 294 293 294 294 294 294 292 292 291 291 293 294 296 295 294 295 296 296 299 300 301 302 303 305 306 306 307 307
292 292 292 292 292 291 291 292 294 294 294 293 294 294 294 296 299 299 296 293 292 292 291 291 290 290 291 292 292 295 294 295 296 298 298 299 300 301 303 305 305 307 307
292 292 292 291 290 290 294 296 296 294 294 294 294 295 297 298 298 300 300 301 299 296 294 293 290 290 290 292 294 294 294 292 290 300 298 297 300 299 300 301 303 304 306
292 291 290 290 290 291 294 296 297 295 294 295 295 294 294 295 297 296 298 300 299 300 299 297 295 293 293 294 295 294 294 295 294 297 297 295 298 297 300 300 301 302 303
291 290 289 290 290 290 294 296 297 295 294 293 294 294 295 295 296 295 294 294 295 296 297 297 296 296 297 297 297 296 296 296 297 298 298 292 297 297 299 300 301 301 302
290 289 289 289 289 289 293 296 295 293 294 294 294 295 295 296 298 299 295 294 294 294 298 301 300 300 301 300 299 296 294 293 291 294 297 296 297 296 297 299 300 301 301
288 289 289 289 290 289 293 295 295 292 292 293 294 294 296 297 299 299 296 296 293 294 294 294 295 296 297 297 299 298 296 290 290 290 296 294 294 295 292 298 300 301 301

GFSMA_sfc_thetae_090.txt.gz
Theta_e
312 313 313 313 313 314 313 313 312 312 312 311 311 310 310 310 310 311 312 321 325 326 329 329 324 325 323 325 326 328 328 331 333 337 342 344 343 340 341 344 345 342 341
313 313 312 313 313 313 313 312 312 312 311 311 311 310 310 310 310 310 311 312 315 320 323 327 330 330 327 326 326 326 326 328 328 334 339 341 342 343 342 342 344 344 342
313 313 312 312 312 313 312 313 312 313 312 312 311 311 310 309 309 309 310 311 311 312 317 319 322 325 326 327 328 329 328 327 327 326 330 337 341 341 342 344 343 344 343
313 313 313 313 313 314 314 314 314 313 313 312 311 311 310 310 309 308 309 310 310 310 310 312 313 316 319 322 323 324 325 326 327 327 327 333 336 338 340 342 342 344 343
313 313 313 314 314 313 314 314 314 313 312 312 310 311 311 310 309 308 308 309 309 310 309 307 308 308 312 315 317 320 321 322 323 325 326 323 324 327 331 336 340 342 343
313 313 314 313 313 313 313 313 312 313 311 310 308 309 310 310 310 309 309 308 309 310 309 309 309 307 305 308 309 313 316 318 320 321 324 324 322 322 324 327 333 338 341
313 314 314 313 313 313 313 312 312 310 311 311 309 309 310 309 308 307 309 309 308 308 307 307 307 307 306 306 306 308 311 313 316 318 320 323 323 322 322 324 325 330 336
313 313 313 313 313 312 312 311 311 310 309 309 306 306 304 306 307 306 307 307 306 307 306 306 306 305 306 306 307 307 306 309 311 315 317 319 322 322 321 322 323 326 329
313 313 313 313 312 312 311 312 311 310 307 309 307 305 302 301 304 307 306 306 305 305 306 305 305 305 305 305 305 306 305 307 310 312 314 317 319 321 321 322 322 323 325
312 312 312 312 312 312 311 311 310 309 308 306 307 305 305 304 299 298 304 304 305 303 304 304 304 304 304 304 305 305 305 306 308 310 312 314 317 319 321 321 321 322 323
312 312 311 311 310 310 310 309 308 307 307 306 306 305 304 303 303 299 296 299 302 303 303 303 303 303 303 304 304 305 305 305 307 309 311 313 315 317 319 320 321 321 323
312 310 310 311 311 310 309 309 308 307 307 305 305 304 302 301 300 299 297 297 297 299 301 302 302 302 303 303 303 304 305 306 307 308 309 311 313 315 316 319 320 321 321
310 310 309 308 309 309 308 308 306 305 305 304 303 303 303 302 301 300 297 295 295 297 298 301 301 302 301 302 303 304 304 305 306 307 309 310 311 312 313 315 318 320 321
309 308 307 307 306 305 305 305 304 304 303 302 302 301 300 300 300 299 297 295 293 294 296 297 301 301 301 301 302 303 303 305 306 307 308 309 310 311 312 312 314 316 318
306 305 305 304 304 303 302 302 301 301 300 300 299 299 299 299 299 298 298 297 294 290 291 296 296 300 301 301 302 302 302 304 304 306 307 307 306 308 310 311 312 313 315
304 303 303 303 302 301 301 300 300 300 299 299 298 298 298 298 298 298 297 297 296 293 291 295 296 298 300 300 301 301 301 303 304 305 305 305 305 307 308 309 310 311 312
303 302 301 300 300 299 299 299 299 298 297 297 298 297 296 297 296 297 297 297 296 295 292 296 297 298 298 298 299 300 301 301 302 304 304 305 305 306 307 307 308 309 310
301 300 299 298 298 298 299 298 297 297 296 296 296 296 295 295 296 296 296 296 296 296 295 292 295 296 297 299 299 299 299 300 301 302 303 304 304 305 305 306 306 307 309
299 299 298 298 298 298 297 297 297 296 296 296 295 295 295 295 294 295 296 296 296 296 295 294 294 297 298 298 298 299 298 298 300 303 303 304 304 304 305 305 306 307 308
298 298 298 298 297 297 297 296 296 296 296 296 296 296 296 295 295 295 295 295 295 295 296 293 292 294 296 297 297 296 295 297 298 300 301 303 304 304 305 305 306 307 307
298 298 297 297 297 297 296 296 296 297 296 295 296 296 297 298 299 299 297 296 296 293 292 292 291 292 292 293 293 296 294 296 298 299 298 300 301 302 304 305 305 307 307
298 298 297 297 296 296 296 297 297 295 295 295 295 295 296 298 298 300 301 301 300 296 294 293 292 290 291 293 294 295 294 293 291 300 298 297 301 301 302 303 306 307 307
298 297 297 297 295 296 297 297 297 295 295 295 295 295 294 295 297 296 298 300 300 300 300 298 295 295 294 296 296 295 295 294 295 298 297 296 300 299 302 303 305 304 304
297 296 296 295 295 295 296 296 296 295 294 294 294 295 296 295 296 297 296 296 296 297 297 298 298 297 298 298 298 297 296 297 298 299 299 293 299 298 301 302 304 304 303
296 295 295 295 294 292 294 296 295 294 294 294 295 296 296 295 297 299 297 295 295 295 300 301 301 301 301 302 301 297 294 294 294 295 298 297 297 297 299 300 302 304 303
294 294 293 293 293 292 294 295 295 294 293 294 294 295 297 296 299 299 297 297 295 294 294 296 297 297 298 298 299 297 296 293 291 290 297 295 296 296 293 300 301 301 302

GFSMA_sfc_thetae_093.txt.gz
Theta_e
313 314 314 314 314 315 314 314 313 313 312 312 312 311 311 310 311 311 315 319 323 324 328 332 331 326 327 328 328 328 328 330 332 337 342 343 343 340 342 344 343 341 341
314 314 314 314 314 314 314 313 313 313 312 312 312 311 311 311 311 311 312 314 318 320 324 327 329 330 331 330 330 330 330 330 329 329 334 341 343 343 341 342 343 343 341
313 313 313 313 313 313 312 313 312 313 313 313 312 312 311 311 311 310 311 313 313 315 315 317 320 322 324 325 325 326 327 328 329 329 329 335 340 341 343 343 342 343 343
314 314 314 313 313 314 314 313 313 313 313 313 312 312 312 311 311 309 311 311 312 311 313 311 312 314 317 319 323 323 324 324 325 327 328 326 328 332 336 340 342 343 343
314 314 314 314 314 315 313 313 312 312 312 312 311 311 312 311 311 308 308 310 311 312 311 309 307 307 310 312 314 316 318 320 322 323 326 326 324 325 328 332 338 341 342
313 315 315 315 314 314 313 313 312 313 312 311 310 310 312 312 311 310 309 307 310 311 312 312 312 309 307 306 310 311 313 316 317 319 321 324 325 323 323 325 328 334 339
313 314 314 314 314 314 313 314 312 311 311 312 309 310 311 312 310 309 309 308 311 309 309 311 310 310 308 310 308 307 312 313 314 316 318 320 322 324 323 323 325 327 331
313 313 314 314 313 314 314 313 313 311 312 311 307 307 304 307 309 307 308 307 308 309 307 307 307 307 309 308 311 305 308 309 312 313 315 317 319 321 323 323 323 325 327
314 313 313 313 313 314 313 314 314 313 309 311 310 305 302 301 305 308 308 308 308 307 307 306 306 306 306 306 310 310 309 307 310 312 314 315 317 319 321 322 323 323 324
313 313 313 313 313 313 313 313 312 312 312 307 310 308 307 305 300 299 305 305 306 304 305 306 305 304 304 305 309 311 308 307 308 310 312 314 315 317 319 321 322 322 323
313 313 313 313 312 313 312 311 311 310 309 308 308 308 307 306 304 301 298 301 303 304 305 304 304 304 304 305 305 307 309 307 307 308 310 312 314 316 318 319 320 322 322
313 312 312 312 312 312 311 311 311 310 309 308 307 306 305 302 300 300 298 298 298 300 302 303 303 303 304 304 306 310 306 306 307 308 309 310 312 314 316 318 319 320 322
312 312 311 311 311 311 310 309 308 308 307 306 305 304 305 303 303 301 299 297 295 298 299 301 302 303 302 303 304 308 307 306 306 307 308 309 311 312 314 315 317 319 320
312 311 310 309 308 307 307 306 305 305 305 303 304 303 302 301 301 300 298 296 293 295 297 297 301 302 303 303 305 306 303 306 306 307 307 308 309 311 312 313 314 314 316
309 308 307 306 305 304 304 303 302 302 302 301 300 300 300 300 300 300 299 298 295 290 292 296 296 300 300 301 303 302 302 305 305 305 306 306 308 309 310 311 313 313 314
306 305 304 304 303 303 302 302 301 301 299 300 300 298 298 299 299 299 299 298 297 294 290 295 297 298 299 299 302 302 301 306 304 305 305 305 307 307 308 308 309 310 311
304 303 302 301 301 301 300 299 299 299 298 298 299 298 298 298 298 298 298 298 297 296 292 294 297 298 298 298 299 300 301 300 301 304 305 305 305 306 306 307 307 308 309
302 301 301 300 299 299 299 298 298 298 297 297 297 297 297 297 297 297 297 296 296 296 294 292 296 296 296 298 298 299 299 300 300 303 305 305 305 305 305 306 306 307 308
300 300 299 298 298 299 298 298 298 297 297 296 296 296 296 296 295 296 296 295 296 296 296 294 293 296 296 298 297 299 298 299 300 303 304 305 305 304 305 305 306 307 308
299 299 299 299 299 298 298 298 297 297 296 296 297 298 297 296 296 295 295 295 295 295 295 294 294 295 295 297 297 296 295 298 297 299 302 303 303 304 305 305 305 306 307
299 299 298 298 298 298 298 297 297 296 296 296 296 296 296 298 300 300 296 297 296 295 293 292 291 292 293 293 293 294 294 296 297 298 299 298 299 300 302 305 305 306 306
299 299 298 298 298 297 300 299 298 296 296 294 294 295 297 298 298 301 301 301 299 295 294 293 292 290 291 293 294 294 294 293 290 298 296 297 299 299 300 301 305 307 307
299 298 298 298 297 297 299 299 299 295 294 295 295 295 294 295 297 296 298 300 299 300 300 297 294 294 294 295 296 294 294 294 293 296 297 295 299 298 301 301 306 307 307
298 297 297 297 296 296 299 298 296 294 294 294 294 295 295 295 296 296 296 295 296 297 297 297 297 297 298 298 298 297 296 296 297 297 298 292 297 297 300 301 305 306 306
297 297 296 296 295 295 296 296 295 293 293 294 295 296 295 295 298 299 296 295 295 296 300 301 302 302 303 302 301 298 294 292 291 293 297 295 295 296 298 298 301 305 305
296 296 295 295 295 292 295 296 295 293 292 293 294 295 297 296 299 299 295 295 293 294 296 296 296 297 299 298 300 297 295 291 291 291 296 293 294 295 292 297 299 300 302

GFSMA_sfc_thetae_096.txt.gz
Theta_e
306 307 307 308 307 307 306 306 305 305 304 305 304 303 303 303 303 309 309 320 323 327 329 333 334 334 333 332 331 332 332 332 331 333 338 343 343 342 342 344 342 341 341
307 307 307 308 307 307 306 306 305 305 304 305 305 304 303 303 303 305 308 310 319 320 322 325 326 327 327 327 327 328 330 329 331 330 333 338 341 342 342 340 343 342 341
307 307 307 307 306 306 306 307 306 306 306 308 304 304 304 303 303 303 305 308 310 316 316 317 319 321 322 325 325 325 325 326 328 329 330 328 331 335 339 341 342 342 343
310 309 308 307 307 307 307 306 306 306 306 306 304 304 304 304 303 302 304 305 304 307 311 312 312 313 315 317 318 320 321 322 323 325 328 328 325 328 331 335 340 341 342
310 309 309 309 308 308 307 306 305 305 305 305 305 303 304 304 303 305 302 304 303 304 304 309 310 308 309 311 313 315 316 318 319 321 322 326 327 325 326 328 332 337 340
309 309 309 308 308 307 306 305 304 304 304 304 307 306 304 304 303 303 301 303 303 304 303 303 303 304 310 307 310 312 314 316 316 317 318 320 323 326 325 324 326 328 333
309 308 308 308 308 307 306 306 304 303 304 304 302 302 303 304 302 302 301 300 302 303 302 302 302 302 301 309 310 310 311 313 314 315 316 317 319 321 324 325 324 325 327
308 308 308 307 307 306 305 305 305 304 304 304 300 298 296 299 301 300 300 301 300 301 301 301 300 298 299 300 303 309 309 309 311 314 315 316 317 318 321 322 324 324 325
308 307 307 307 306 306 306 306 306 305 302 304 302 299 294 293 295 299 299 299 298 298 299 299 298 298 298 297 303 305 313 307 309 312 313 314 316 317 318 320 322 324 324
307 308 307 306 305 306 305 305 308 304 303 300 302 305 300 298 293 292 297 298 299 299 297 297 297 297 297 296 303 310 310 309 309 310 312 313 314 316 317 318 320 322 323
306 307 307 306 305 305 305 304 303 302 302 300 300 299 298 298 297 293 291 293 296 296 296 296 295 296 296 297 297 302 309 308 308 309 310 311 313 315 316 318 319 320 321
306 306 307 305 305 305 305 304 303 302 301 300 299 298 297 295 294 293 291 290 291 292 294 294 294 295 296 297 302 310 309 308 308 308 308 310 311 313 314 316 318 319 320
306 305 305 304 304 304 303 302 301 300 299 298 297 296 296 295 295 293 291 289 288 290 291 293 294 294 297 295 297 309 310 307 306 307 307 308 309 310 312 314 316 317 319
305 304 303 302 302 302 301 299 298 298 297 296 295 295 294 294 294 293 291 289 287 288 289 290 292 293 294 294 300 311 299 306 306 307 307 308 308 309 311 312 313 315 315
305 302 301 300 299 298 298 297 295 295 294 294 293 293 292 292 293 292 292 291 288 286 287 291 288 292 293 293 297 296 295 303 305 306 306 306 307 307 309 311 312 313 314
300 299 299 298 298 297 296 295 294 294 293 293 294 292 291 291 292 292 291 291 290 287 286 290 289 291 292 296 297 298 295 305 305 305 305 307 306 306 307 309 309 309 310
298 298 297 297 296 295 294 293 292 293 292 291 292 292 292 292 291 291 291 291 290 289 288 291 290 291 291 291 293 294 296 294 295 305 305 307 307 306 306 307 307 308 308
297 296 296 295 294 294 293 292 292 292 291 291 291 291 291 295 290 290 290 289 289 290 289 288 290 290 290 291 291 292 296 298 295 302 305 305 305 306 308 306 307 307 307
294 295 295 294 294 294 293 293 292 292 291 291 291 290 291 291 290 290 290 289 289 292 289 289 289 290 290 291 291 293 294 297 299 303 304 304 304 305 306 307 307 308 308
293 292 293 293 294 294 294 294 293 292 291 292 293 293 292 292 290 289 290 289 291 290 290 290 290 290 290 293 292 292 292 293 294 298 301 302 303 304 305 305 306 306 306
293 293 293 293 293 294 295 292 292 291 291 291 293 293 293 295 300 299 296 293 292 293 293 293 292 292 292 292 291 293 293 294 295 296 294 294 295 297 297 302 303 306 306
293 293 293 293 292 295 300 301 299 292 294 292 290 291 291 296 295 299 300 300 299 294 293 293 292 291 292 292 294 293 292 290 288 294 292 292 295 295 296 297 303 305 307
292 292 292 292 291 292 300 300 301 295 290 289 289 290 291 293 295 293 297 299 299 300 299 295 293 294 292 293 294 292 292 292 291 293 291 290 293 294 296 300 304 306 307
291 291 291 291 291 293 299 300 299 290 289 290 292 291 291 292 292 294 293 293 293 293 294 295 294 293 293 294 295 295 295 295 296 297 297 291 292 291 294 296 304 305 306
290 291 291 290 290 289 297 297 295 291 292 292 293 292 291 292 296 299 295 294 292 293 298 301 301 301 302 302 301 298 294 293 291 291 293 293 293 292 292 294 297 303 305
291 292 291 290 294 288 295 296 295 292 291 290 292 292 296 295 299 299 295 293 290 291 294 293 294 297 298 296 300 296 294 290 289 289 291 292 290 290 287 293 294 295 296

GFSMA_sfc_thetae_099.txt.gz
Theta_e
306 307 304 304 303 303 304 303 302 302 302 302 301 300 300 301 305 307 309 322 324 327 328 330 329 328 328 329 330 330 330 332 332 334 339 342 343 342 341 341 340 342 341
304 304 304 303 304 303 303 302 303 303 302 302 302 302 301 300 304 306 307 310 319 320 322 323 324 325 327 327 327 326 326 327 330 331 330 330 336 340 342 340 339 340 340
305 305 304 304 302 302 304 303 303 303 304 305 301 301 302 300 301 304 306 306 309 317 316 315 317 318 319 320 321 322 323 324 325 327 329 330 328 331 335 340 339 339 340
307 307 305 304 304 304 304 303 303 303 303 302 301 301 301 301 299 301 303 303 304 306 310 313 314 313 314 316 317 317 318 319 321 322 323 327 329 327 328 331 338 340 339
309 306 307 306 307 305 305 304 302 302 302 302 303 302 301 301 301 303 300 301 301 302 303 310 311 310 310 312 314 316 317 318 318 318 320 321 324 327 327 326 328 331 338
307 306 307 305 306 303 303 302 302 302 302 302 306 303 302 301 300 299 299 303 301 302 301 301 301 302 311 308 311 313 312 315 315 316 317 318 320 322 324 326 325 326 329
306 306 306 304 304 303 303 303 302 300 301 301 300 300 300 300 299 299 298 298 299 301 300 300 300 300 300 309 309 309 311 311 312 315 316 317 318 319 321 322 325 325 325
306 306 306 304 304 304 303 303 302 301 302 301 298 296 294 297 298 298 297 298 296 298 299 299 297 297 297 298 301 311 308 309 310 312 314 315 316 317 318 319 321 323 325
306 306 305 305 304 303 303 303 303 302 300 301 300 298 293 291 293 296 297 297 296 296 296 297 297 297 296 295 300 302 308 306 309 312 312 314 315 316 317 318 319 321 323
305 305 305 304 303 303 303 303 305 302 301 299 300 302 297 296 293 291 295 296 297 297 295 294 294 296 295 295 301 306 309 309 309 310 311 312 313 314 316 317 318 319 321
305 305 304 303 303 303 303 303 301 300 300 299 298 297 296 295 294 292 290 292 294 294 294 293 292 293 294 294 295 299 309 310 309 309 310 311 312 313 315 316 317 318 320
305 305 304 303 303 303 302 302 301 300 299 298 297 296 295 293 292 291 288 288 289 291 292 292 292 292 293 294 300 308 310 312 310 309 309 309 310 311 313 314 316 317 318
305 304 304 303 302 301 301 300 299 298 297 295 294 294 294 294 294 292 289 287 287 288 289 291 292 292 295 293 294 306 308 310 312 309 308 308 308 309 311 312 313 315 316
306 304 303 301 301 301 299 298 296 296 294 293 292 292 292 292 292 291 289 287 286 285 286 287 290 291 291 291 297 304 296 306 308 307 307 307 307 308 309 310 311 313 314
304 302 299 297 297 297 296 295 294 293 292 292 291 290 290 290 290 290 290 289 287 283 286 286 287 290 291 291 295 296 293 301 305 306 306 306 306 307 308 309 309 311 313
300 297 297 296 296 295 294 293 292 292 291 290 292 290 289 289 290 290 289 289 288 286 286 287 287 289 291 295 296 296 294 302 302 304 305 308 306 306 306 307 308 309 310
297 296 296 295 295 294 292 291 290 290 290 289 289 289 290 289 289 289 289 289 288 287 287 289 288 289 289 290 292 292 294 292 294 303 304 305 305 306 306 306 307 307 308
295 295 294 294 293 293 291 291 290 290 289 289 289 289 289 293 289 288 288 288 288 288 287 287 288 287 288 289 290 289 294 296 294 301 304 304 304 305 306 306 307 307 308
293 293 293 293 292 292 292 291 291 291 290 289 289 289 289 289 288 288 288 288 288 291 287 285 287 287 288 288 289 291 292 292 296 301 304 304 304 305 305 305 307 308 308
291 291 291 292 293 292 292 292 291 290 289 290 291 291 291 290 288 287 288 288 289 288 287 287 288 288 289 291 290 289 290 292 293 297 300 302 303 304 305 305 305 306 307
292 292 291 292 292 292 293 291 291 290 289 289 291 291 292 293 299 298 294 293 294 292 289 290 292 291 292 291 291 291 292 293 294 292 293 294 294 295 296 301 302 304 305
291 291 291 291 290 294 300 301 300 291 292 294 293 289 289 295 294 299 299 300 298 294 293 292 292 291 292 293 294 292 292 291 288 295 291 292 292 293 294 295 301 303 304
289 289 289 290 289 290 300 301 301 295 292 289 287 288 289 292 294 292 296 299 298 299 299 295 293 291 292 293 293 291 292 291 290 294 293 291 291 291 294 297 302 303 304
289 289 289 289 289 291 299 299 299 290 287 288 290 291 291 290 291 293 292 292 294 294 293 294 293 293 293 293 293 293 292 293 294 295 296 291 294 292 293 294 301 303 304
289 289 289 289 288 288 298 297 294 289 290 291 292 292 291 290 295 299 294 294 294 294 298 300 300 301 301 301 300 297 294 292 290 292 295 293 292 291 292 293 295 300 302
289 290 289 289 292 286 293 296 294 289 288 291 292 290 295 294 298 299 294 293 292 292 293 294 294 294 297 296 299 296 294 291 291 289 291 291 289 288 286 291 293 295 295

GFSMA_sfc_thetae_102.txt.gz
Theta_e
307 307 304 303 302 301 302 300 300 300 299 299 299 299 301 303 304 308 311 324 326 327 328 328 329 330 329 328 328 328 329 330 332 333 333 336 340 341 342 341 340 341 341
306 304 302 301 301 301 301 300 301 301 300 299 299 299 299 302 303 305 308 312 320 320 321 321 322 322 323 323 324 324 325 326 327 330 331 330 331 336 339 340 339 340 339
303 303 302 301 300 301 301 301 301 301 302 302 298 298 299 299 302 303 305 306 309 317 317 317 318 319 319 319 319 320 320 322 323 324 325 329 330 329 331 334 339 339 339
304 303 303 302 303 303 302 302 302 302 302 300 299 299 299 298 298 301 304 304 304 305 311 315 315 314 315 317 318 319 319 319 320 320 321 323 325 328 329 328 331 334 339
306 304 303 302 304 304 302 303 302 302 301 300 302 300 300 299 298 302 300 300 301 302 302 310 312 311 311 312 315 315 315 316 316 318 319 319 321 322 325 328 328 328 331
306 304 303 303 303 303 301 302 301 300 300 300 304 302 299 299 299 298 298 301 299 301 300 300 299 301 311 309 310 312 313 313 314 315 317 318 319 320 321 323 325 327 327
306 304 304 303 303 302 301 301 301 300 300 299 299 299 299 298 297 297 296 296 298 299 299 299 298 299 300 311 309 309 309 310 311 312 314 316 317 317 319 320 321 323 326
306 306 304 303 303 303 302 301 301 300 300 299 297 295 294 296 297 296 295 297 295 297 298 298 296 296 296 297 301 310 307 308 308 310 313 314 316 317 317 318 319 321 323
306 306 305 304 303 302 302 302 301 301 299 300 298 297 292 291 292 296 296 296 295 295 294 294 294 295 294 293 298 301 309 307 308 310 311 312 313 315 316 317 318 319 320
304 306 304 304 303 303 302 302 303 301 300 299 298 301 296 295 293 291 294 294 294 295 293 293 293 293 292 293 299 304 309 311 309 309 310 311 312 313 315 316 317 318 319
304 304 304 302 302 302 302 302 301 300 300 298 297 296 295 293 292 291 289 292 293 293 293 292 291 291 292 293 293 299 308 311 311 309 309 310 311 312 313 315 315 316 317
303 305 303 303 303 301 301 300 299 299 298 297 296 295 294 293 291 290 288 288 288 291 291 292 291 291 292 292 298 305 307 307 309 311 310 309 309 310 311 313 314 315 316
302 302 303 304 301 300 300 299 298 296 296 295 294 293 293 293 293 291 289 287 286 287 288 289 290 291 293 291 292 303 304 304 306 309 311 309 308 309 310 311 311 312 314
304 303 304 302 301 300 299 297 296 295 293 292 291 291 291 291 291 290 289 286 284 284 285 287 289 290 291 291 295 304 295 303 304 305 307 308 308 308 308 309 309 310 311
303 301 301 299 297 297 295 294 293 292 291 290 290 289 289 289 289 289 288 288 286 282 284 285 286 288 290 290 294 295 292 300 303 304 305 306 307 307 308 308 309 308 310
300 298 297 297 295 294 293 292 291 291 290 289 290 288 287 288 288 288 288 287 286 285 284 286 286 287 289 293 294 296 293 302 304 304 304 304 305 306 307 307 307 307 308
297 297 296 294 294 292 291 290 289 289 289 288 288 288 288 288 288 288 287 287 287 286 284 287 287 288 287 288 291 291 292 291 292 302 303 303 304 305 306 306 307 307 308
294 294 293 293 292 291 290 290 290 289 289 288 288 288 288 291 287 287 286 286 286 287 285 285 286 286 286 288 288 288 292 295 292 300 303 304 304 305 305 305 306 306 307
292 292 292 291 291 291 290 290 290 290 289 288 288 288 288 289 288 287 287 286 287 289 286 284 285 286 286 287 288 289 290 291 295 301 303 304 304 304 304 305 306 306 307
290 289 290 291 292 291 291 291 290 289 288 289 290 290 290 289 288 287 288 287 287 285 287 289 291 289 287 289 290 289 289 290 291 295 298 300 302 303 304 304 305 306 306
290 291 290 290 290 291 292 290 290 289 289 288 290 290 291 293 298 297 293 289 288 288 288 287 289 291 291 291 291 292 292 293 294 292 291 292 292 294 295 300 302 303 303
289 290 289 289 289 293 299 301 300 291 291 290 290 292 290 294 292 297 298 299 297 293 292 292 292 291 291 292 293 292 292 291 288 291 288 289 291 291 292 293 299 302 303
288 288 288 289 288 289 299 300 301 293 291 288 288 287 288 291 293 289 294 298 297 299 299 294 293 292 291 290 290 290 290 291 291 293 292 290 290 290 292 295 301 302 303
288 288 288 288 287 289 298 299 299 288 287 287 287 287 288 290 289 291 291 290 291 292 294 295 293 292 291 292 291 294 294 294 294 295 295 290 294 291 292 292 299 301 302
288 288 288 287 286 286 296 297 294 288 288 287 289 290 291 288 294 298 293 293 294 293 298 300 301 301 301 301 300 296 293 292 290 291 295 293 294 292 290 292 293 299 300
288 288 287 285 289 285 292 295 294 289 286 288 289 290 294 293 297 298 294 293 289 292 294 293 294 295 297 296 298 294 292 289 290 289 293 292 291 287 288 288 291 292 292

GFSMA_sfc_thetae_105.txt.gz
Theta_e
306 304 302 302 300 300 299 298 298 298 297 298 299 301 301 303 305 308 312 328 327 327 327 328 327 326 326 326 327 327 328 329 330 333 334 334 336 338 341 341 341 341 341
305 303 301 300 300 300 299 299 299 298 297 297 298 299 300 301 303 306 307 312 321 321 321 322 322 323 323 323 323 323 324 324 325 326 328 331 333 333 333 336 340 340 340
305 301 301 300 300 299 300 300 300 299 299 299 296 297 299 300 301 302 304 306 308 318 318 319 319 320 321 322 322 322 322 321 322 323 323 325 326 330 331 331 333 337 339
303 301 301 300 300 300 301 301 301 300 299 299 297 297 297 298 299 300 302 302 303 304 310 316 316 317 317 318 318 318 318 319 319 320 321 322 323 324 326 328 330 331 333
304 302 301 301 302 301 301 302 300 300 299 299 300 299 299 297 297 301 299 300 300 301 301 311 315 314 313 314 315 316 315 315 316 318 319 319 320 321 322 324 325 328 330
304 302 301 301 302 301 300 300 299 299 299 299 303 300 298 298 298 297 297 299 298 299 299 299 298 300 314 313 312 313 313 313 314 314 315 317 318 319 320 321 322 324 326
304 303 301 301 302 301 299 300 299 299 299 298 298 298 298 297 295 296 295 296 298 298 298 298 297 297 298 309 311 314 310 310 311 312 313 315 316 317 319 319 320 321 323
305 303 303 301 301 301 300 300 301 299 299 298 296 294 293 296 296 295 294 295 294 295 295 296 294 294 294 294 300 311 311 310 309 311 312 313 313 315 316 317 318 320 321
306 306 304 303 302 303 301 300 300 300 298 299 297 296 292 291 291 295 294 294 294 294 293 293 292 293 292 292 297 300 309 311 311 311 311 312 313 314 315 316 317 318 319
305 305 304 303 302 302 301 301 302 300 300 298 298 300 296 295 292 292 294 293 293 294 291 292 291 292 292 292 298 303 308 309 311 312 311 311 312 312 313 314 315 316 317
304 304 303 303 301 301 300 301 300 300 299 298 297 296 294 293 291 291 290 292 292 292 292 291 290 290 291 291 292 298 307 307 308 310 312 312 311 312 312 312 314 314 315
303 303 303 301 303 301 300 300 299 299 297 296 296 295 294 293 291 289 288 288 288 290 290 290 289 290 291 291 297 303 305 305 306 307 308 311 312 310 310 312 312 313 314
303 302 303 303 300 300 301 299 298 297 296 295 294 293 293 292 292 290 288 286 286 286 287 288 289 289 292 290 291 301 304 304 304 305 306 309 310 309 309 310 311 311 312
304 303 304 302 301 300 299 297 296 294 293 292 291 290 290 290 290 290 288 286 283 283 284 286 288 289 290 290 293 303 294 303 303 303 305 306 308 309 309 309 309 309 310
304 304 302 299 299 297 296 294 293 292 291 289 289 288 288 288 288 288 287 287 285 281 282 284 285 288 289 289 293 294 293 299 303 303 304 304 305 307 308 309 309 309 309
300 299 297 295 296 295 294 292 291 290 290 288 289 288 287 287 287 287 286 286 285 284 281 285 286 286 288 292 293 295 293 302 303 303 303 303 304 305 305 307 307 308 308
296 297 296 295 293 291 290 289 289 289 288 288 287 287 288 287 287 286 286 286 285 284 282 285 286 287 286 287 289 289 291 290 291 302 303 303 304 304 305 305 306 307 307
295 295 293 292 291 290 289 289 289 289 288 288 288 287 288 291 286 286 286 286 285 285 284 284 285 285 285 287 287 287 290 293 291 298 302 303 304 304 305 305 305 306 306
291 291 291 291 290 290 290 289 289 289 288 288 288 287 287 288 287 287 287 286 286 288 285 283 284 285 285 286 286 288 289 290 293 299 302 303 303 304 305 305 305 305 306
289 289 289 290 290 290 290 290 289 288 288 288 288 288 288 288 288 287 287 287 287 285 285 284 284 286 286 289 288 288 289 288 290 294 298 300 301 302 304 304 305 305 306
289 289 289 289 289 290 291 289 289 288 288 288 288 289 289 292 298 297 294 288 287 288 286 285 289 291 290 291 291 290 290 292 292 290 291 290 291 292 293 298 300 302 303
289 289 288 288 288 292 299 300 299 291 290 289 289 289 289 295 293 297 297 298 296 292 291 291 291 291 291 291 292 291 291 290 288 290 288 288 290 290 291 292 298 301 302
287 287 288 288 288 288 298 300 300 292 290 288 286 286 287 290 293 289 293 297 296 298 298 294 291 292 292 292 293 290 288 291 290 293 292 291 290 290 291 294 300 301 302
287 287 287 287 286 288 297 299 299 287 286 287 287 287 286 287 287 290 289 288 289 290 291 293 293 293 294 293 291 291 290 293 294 294 295 290 294 292 292 292 299 301 302
286 286 287 286 285 285 295 296 295 288 287 286 287 288 288 288 294 297 293 292 293 293 298 300 299 300 301 301 300 295 292 291 288 290 295 292 292 292 293 292 292 299 300
287 287 286 283 288 284 291 294 293 288 286 286 287 288 294 293 297 297 293 292 290 290 293 293 293 295 297 295 298 293 290 287 287 287 291 291 292 292 289 290 291 291 290

GFSMA_sfc_thetae_108.txt.gz
Theta_e
306 303 301 300 298 298 297 296 297 297 298 299 300 302 303 305 306 309 313 329 326 326 326 326 326 327 326 326 327 327 327 327 328 329 332 334 336 336 336 340 341 341 342
304 302 300 299 298 298 298 297 297 296 296 297 298 300 300 301 304 306 307 313 323 322 323 324 324 325 326 325 324 324 324 324 325 325 326 328 330 332 334 334 336 339 341
303 301 300 299 298 298 299 299 297 297 297 297 295 297 300 300 301 302 304 305 308 321 320 320 321 322 322 322 321 321 321 321 322 324 324 325 325 327 328 330 333 334 336
303 301 300 299 298 299 300 300 299 298 298 297 296 296 296 298 299 300 302 302 302 302 309 317 317 318 318 319 319 318 318 318 319 320 320 321 322 323 324 325 327 329 332
303 301 300 299 300 300 300 301 299 299 298 297 298 297 297 296 297 301 299 300 302 301 301 311 314 316 317 316 316 316 316 316 316 316 318 319 320 321 322 323 324 325 328
303 302 301 300 300 300 299 299 298 298 298 298 301 299 296 296 297 296 297 299 299 300 299 299 299 301 313 318 317 316 315 314 314 314 315 316 317 318 320 320 321 322 324
303 302 302 301 301 300 299 299 298 298 298 297 298 297 296 295 295 296 295 296 297 297 297 297 297 296 297 308 310 314 314 313 312 313 313 314 315 315 317 318 319 320 321
304 303 303 302 303 301 299 299 299 298 298 297 296 294 293 296 296 295 294 295 294 295 295 294 293 293 294 295 304 309 310 312 314 313 313 313 314 314 315 316 317 318 320
306 305 304 304 302 302 300 300 301 301 298 298 296 296 291 291 291 294 293 293 293 292 292 293 292 293 293 293 298 300 308 309 311 313 314 313 313 313 314 314 315 317 317
306 305 304 303 302 302 300 300 301 299 299 297 297 298 294 294 292 292 294 293 292 293 292 292 292 293 292 293 298 303 307 308 309 311 312 313 314 313 313 313 314 315 316
307 305 304 302 301 301 300 301 300 299 299 298 296 295 293 292 291 292 291 292 292 292 292 292 291 291 292 292 292 297 306 306 306 307 309 310 312 314 313 312 313 313 314
306 304 304 302 301 302 301 300 300 299 297 296 296 295 294 293 291 290 289 289 289 291 290 290 290 290 291 291 297 303 304 305 305 306 306 308 309 311 313 312 312 312 312
304 303 303 303 302 302 302 299 298 297 296 295 294 294 293 293 292 290 289 287 287 287 287 289 289 290 292 291 291 301 304 304 304 305 305 306 308 309 311 311 311 311 311
311 306 304 303 302 302 299 298 296 295 294 294 292 291 291 290 291 290 288 286 283 283 284 286 288 289 290 290 293 303 296 303 303 303 304 305 306 308 310 310 310 310 310
307 306 304 301 299 299 298 295 294 292 292 290 289 289 288 288 288 288 287 287 285 281 281 284 285 288 289 289 292 294 293 300 304 303 304 304 305 306 307 308 309 310 310
304 301 299 297 296 295 294 294 292 290 290 288 288 287 287 286 286 286 286 286 285 284 281 284 285 286 288 291 292 295 293 301 303 303 303 303 304 305 306 306 307 307 308
297 296 296 294 293 293 292 290 289 289 288 287 287 287 287 287 286 286 285 285 284 284 282 284 285 287 286 287 289 289 291 290 290 300 303 303 303 304 305 305 305 306 307
295 294 293 292 291 290 289 289 289 289 288 287 287 287 287 290 286 285 286 285 285 285 284 282 284 285 285 287 287 286 290 293 291 297 302 303 303 304 304 305 305 306 306
291 291 291 290 290 290 289 289 289 288 288 287 287 286 287 286 286 286 286 286 285 288 284 283 284 284 285 285 286 287 288 290 293 299 301 302 303 304 304 304 305 305 306
289 289 289 289 290 289 289 289 288 287 287 287 288 287 287 287 287 287 287 286 287 285 285 283 283 284 285 288 287 288 288 289 289 294 297 300 301 302 303 304 304 305 306
289 289 289 289 289 289 291 288 288 287 287 287 288 288 288 291 297 294 292 289 287 285 286 286 287 289 290 290 291 290 290 291 292 291 291 292 292 292 293 298 300 301 303
288 288 288 288 288 291 299 300 297 290 290 289 288 289 289 295 295 300 299 299 296 290 290 290 291 290 291 291 292 291 291 290 288 293 290 289 291 290 292 293 298 300 301
287 287 287 287 287 287 298 300 300 292 289 288 287 286 286 289 293 288 293 297 296 298 297 293 290 291 291 293 292 291 291 290 289 293 292 290 290 290 292 294 299 300 301
286 286 286 286 286 288 297 298 298 288 286 286 286 286 285 286 287 289 288 288 289 289 290 291 291 291 291 293 292 292 291 291 292 294 295 289 293 292 293 292 298 300 301
285 285 286 285 284 284 294 295 294 287 287 286 287 287 286 286 293 296 292 290 291 292 297 300 300 300 300 301 300 295 291 290 289 291 294 292 291 292 293 292 294 299 300
286 286 284 282 287 283 290 294 293 287 285 286 286 287 294 293 296 296 292 291 289 289 289 290 293 294 297 295 298 294 293 289 289 287 290 289 288 289 288 293 293 293 293

GFSMA_sfc_thetae_111.txt.gz
Theta_e
318 315 313 314 311 311 310 310 311 311 312 312 314 317 320 322 322 323 323 329 328 327 328 329 329 328 328 327 326 327 327 327 328 329 330 332 334 335 337 337 339 342 342
315 312 310 309 309 310 310 310 310 310 310 311 311 312 314 316 317 318 320 322 328 325 325 326 326 326 326 325 324 324 324 325 326 325 326 327 328 330 331 333 335 337 340
313 311 309 309 308 309 308 308 308 308 308 309 309 310 311 312 313 314 315 317 319 323 323 322 322 323 323 323 322 321 321 321 322 323 324 324 325 326 327 329 331 333 335
313 311 310 309 308 309 309 309 309 308 308 309 308 308 310 310 310 310 312 312 313 314 319 319 320 320 320 320 320 319 319 319 319 320 320 321 322 323 324 325 326 328 331
311 311 310 309 309 310 310 309 309 310 308 308 308 308 308 309 309 309 309 311 311 311 311 313 314 317 319 319 319 319 316 317 316 317 317 318 319 320 321 322 323 324 326
309 310 310 308 310 311 310 310 310 310 310 309 307 307 308 309 310 309 308 307 310 310 311 310 311 310 315 315 315 316 316 315 315 315 315 316 316 317 318 319 320 322 323
306 309 309 309 310 310 311 311 309 309 309 309 308 308 307 306 307 307 308 308 307 309 308 308 308 307 307 310 313 313 314 314 315 315 315 315 315 315 316 317 318 319 321
306 306 309 309 309 309 308 309 309 308 309 307 307 306 303 305 306 305 305 306 306 307 304 303 304 304 305 307 308 308 310 311 313 314 314 315 315 314 314 315 316 318 318
306 308 308 307 307 309 308 309 309 310 307 305 305 306 302 302 304 306 304 305 305 305 304 303 303 303 304 305 304 305 308 309 310 312 313 314 315 315 314 314 314 315 316
310 308 307 307 307 308 306 307 309 310 311 308 307 306 306 306 304 302 304 304 304 302 303 304 304 303 303 303 302 303 307 307 308 309 310 312 313 314 316 315 313 314 315
312 312 309 307 307 307 307 307 307 308 309 309 308 307 306 305 305 305 302 302 302 302 302 303 302 303 303 303 302 302 305 305 306 307 308 310 311 312 313 315 314 313 313
312 311 309 307 307 308 308 309 309 309 309 309 308 307 306 305 303 302 301 302 301 302 301 302 301 302 302 302 301 302 303 304 305 306 307 308 309 310 311 313 314 313 312
310 310 308 305 305 308 308 308 307 307 306 306 305 305 304 304 303 303 302 300 299 300 299 300 301 301 300 301 301 302 303 304 304 304 305 306 307 308 310 311 313 313 312
311 310 306 305 304 305 306 306 305 303 304 304 304 302 302 301 301 301 301 298 295 295 296 297 300 300 300 300 300 303 302 303 303 304 304 305 306 307 308 309 311 312 311
313 311 307 304 303 303 302 303 302 301 301 300 299 299 299 298 299 300 299 298 295 291 291 295 295 299 299 300 300 300 301 301 304 304 304 305 305 306 307 308 309 309 310
309 307 304 302 300 300 301 300 299 299 298 297 297 297 297 297 297 297 297 297 296 294 291 295 295 297 298 298 300 300 300 301 302 303 303 304 304 305 305 306 307 308 308
303 301 300 299 299 299 299 299 298 297 297 297 296 296 296 296 296 296 296 296 295 294 291 294 295 297 296 297 297 299 299 299 299 301 303 303 303 304 305 305 305 306 306
298 298 298 298 297 297 297 297 296 296 296 295 296 296 296 295 296 296 295 295 295 295 293 292 295 295 295 296 297 297 296 298 299 300 302 303 303 304 304 305 305 305 306
297 297 297 296 295 295 295 296 296 295 296 296 296 295 296 295 295 295 295 295 296 295 294 292 293 295 294 295 295 297 297 298 298 300 301 302 302 303 304 304 305 305 305
295 295 295 295 295 295 295 295 295 295 295 295 295 295 295 295 295 296 295 295 295 295 295 293 293 293 294 295 296 294 294 297 297 298 299 300 301 302 303 304 304 304 305
295 295 295 295 295 295 296 296 296 295 295 296 296 296 296 296 298 298 295 296 294 292 293 294 293 293 293 293 293 294 293 294 296 297 297 298 299 299 300 300 300 301 302
294 295 295 295 295 295 299 300 300 298 298 297 297 297 297 297 299 301 301 301 299 296 295 294 293 292 292 295 295 294 293 291 290 297 295 296 298 297 299 300 300 300 301
294 294 294 294 294 294 298 299 300 297 295 294 294 293 293 293 295 295 296 297 297 298 298 296 293 293 294 295 296 295 294 293 291 294 295 293 297 296 299 299 300 300 301
294 294 294 293 293 293 296 298 298 295 294 293 293 293 293 293 294 294 294 294 294 295 295 295 295 295 296 296 296 296 296 295 294 294 296 290 295 296 299 299 299 300 301
293 292 292 292 291 291 293 295 295 293 292 292 293 293 293 293 295 296 293 292 293 294 298 299 300 300 301 301 300 297 292 291 290 291 296 294 294 294 295 297 298 299 300
291 290 289 289 289 289 291 294 293 292 291 291 292 292 294 294 296 296 293 292 291 292 294 294 295 296 298 297 299 298 296 292 291 290 294 293 293 293 290 295 297 298 299

GFSMA_sfc_thetae_114.txt.gz
Theta_e
329 328 326 324 323 316 315 315 316 317 318 320 323 323 321 322 323 323 324 332 330 330 330 330 329 329 328 327 327 328 328 327 328 328 329 331 333 334 335 337 339 340 342
326 324 322 319 316 315 315 315 315 315 315 315 316 317 318 319 320 321 322 325 329 328 327 327 327 327 326 325 325 325 324 325 325 326 327 327 328 329 330 332 334 337 337
324 321 318 315 314 315 314 315 314 315 315 315 314 315 315 315 316 318 320 320 321 326 324 323 324 324 324 323 323 322 322 322 322 323 324 324 325 326 326 327 329 332 334
321 317 315 314 314 314 314 314 314 314 314 314 314 314 314 314 314 315 315 316 317 318 319 321 321 321 321 321 321 320 320 320 320 320 320 321 321 322 323 324 326 327 329
317 315 314 314 314 314 314 314 314 314 313 313 313 314 315 315 314 313 314 315 315 316 315 314 316 318 320 320 319 319 318 317 317 317 318 318 319 319 320 321 322 324 325
316 315 315 314 314 314 314 315 314 315 314 313 311 312 314 315 315 315 313 313 314 315 316 316 316 314 316 316 317 318 317 317 317 317 317 317 317 317 318 318 320 321 322
313 311 314 313 315 315 315 315 315 314 313 314 312 312 312 314 313 313 313 313 313 314 314 314 314 314 312 313 314 314 315 315 315 315 316 316 317 316 316 316 317 319 320
312 312 313 313 315 315 316 315 315 313 314 314 311 311 307 308 310 311 312 311 311 311 310 310 311 311 312 311 309 308 309 311 313 314 314 315 315 316 316 315 315 316 318
311 307 309 311 314 315 314 315 315 315 311 312 312 310 305 303 308 310 310 310 310 310 310 310 310 310 310 310 308 308 308 309 310 311 312 313 314 314 315 317 316 314 315
311 311 310 308 309 311 311 313 313 314 313 310 311 311 311 311 306 305 309 309 309 308 309 309 308 308 308 308 305 303 305 306 307 309 310 311 312 313 314 314 316 315 314
314 313 312 311 308 309 310 311 311 312 314 312 311 311 310 310 310 307 305 307 307 307 308 308 308 307 307 307 306 304 303 305 306 307 308 310 311 311 312 313 314 316 314
313 313 313 311 309 310 310 310 311 312 312 312 312 312 311 309 308 307 305 305 307 308 308 308 307 307 307 305 303 301 303 304 305 306 306 307 309 310 311 312 312 315 316
312 313 312 311 310 311 311 312 313 312 313 313 312 312 312 310 310 309 307 306 304 306 305 307 307 306 304 303 303 301 302 303 305 306 306 306 307 308 309 310 311 312 315
314 314 312 312 309 308 309 310 311 311 311 311 311 310 310 310 309 308 306 304 300 300 301 301 304 303 303 303 303 302 302 304 303 304 305 306 306 307 308 309 310 310 312
313 313 313 312 307 307 306 306 308 308 309 309 309 308 308 306 306 305 304 302 299 295 296 299 299 302 302 302 302 302 302 303 303 304 305 305 306 307 307 308 308 309 310
313 309 308 305 304 304 304 303 304 305 305 304 304 303 303 303 302 302 302 301 300 297 294 298 299 300 301 300 302 301 301 302 303 303 303 304 304 305 306 306 307 307 308
308 307 304 302 301 301 302 303 304 303 303 302 301 301 301 301 301 301 301 300 299 298 295 297 299 300 300 299 300 301 301 302 301 302 302 303 303 304 305 305 306 306 307
304 304 303 303 302 302 303 303 301 300 300 300 300 299 299 298 299 300 300 299 298 298 296 295 297 298 298 300 299 299 299 300 300 301 302 303 303 303 304 304 305 305 306
302 301 302 301 301 300 300 301 301 300 300 299 298 298 298 299 298 299 299 298 299 298 298 296 295 298 298 299 297 298 298 299 300 302 302 302 302 303 303 304 304 305 305
300 300 300 300 299 299 299 299 300 299 299 299 299 299 299 299 298 299 299 299 298 298 298 295 293 294 297 298 298 295 295 297 297 298 300 302 302 302 303 304 304 304 304
300 300 300 300 300 299 300 301 301 300 300 299 300 300 300 301 301 301 299 299 299 297 295 293 293 293 295 295 293 296 295 296 296 297 298 299 299 301 302 302 302 302 302
299 299 299 298 298 298 299 300 300 300 300 300 299 300 300 301 300 301 302 302 301 295 294 295 295 294 295 294 295 294 294 293 290 299 297 297 298 298 300 301 301 301 301
299 298 298 298 297 298 299 300 299 300 299 298 298 297 297 297 297 297 298 299 299 299 299 296 293 293 293 295 295 294 294 294 293 296 295 293 297 296 300 300 301 301 301
298 297 297 297 297 297 296 297 298 298 297 297 296 296 295 295 295 295 295 295 295 296 295 295 295 295 296 296 297 297 295 297 299 298 296 291 296 296 299 299 302 301 301
297 297 296 296 295 295 294 295 295 295 294 294 294 295 294 294 296 297 294 294 294 295 298 300 300 300 301 301 300 297 295 292 289 292 297 294 296 295 297 297 300 302 300
295 295 293 293 292 293 293 294 294 293 292 293 294 293 294 294 296 296 294 293 292 293 294 295 296 297 298 298 299 298 297 292 292 291 296 294 293 293 290 296 298 298 298

GFSMA_sfc_thetae_117.txt.gz
Theta_e
329 328 327 329 327 318 316 317 321 322 323 324 323 321 323 323 323 324 326 334 333 331 331 330 330 329 329 328 328 328 328 328 328 329 329 330 331 332 334 336 338 339 339
328 327 326 322 320 315 316 316 316 317 317 318 318 319 319 320 321 322 323 326 331 330 328 328 328 328 327 326 326 325 325 325 326 326 326 327 327 328 329 331 333 335 338
326 325 322 317 315 315 315 316 315 316 315 315 315 316 316 317 319 320 320 321 322 327 326 325 325 325 325 324 324 323 323 323 323 323 323 323 324 325 325 326 328 330 332
324 322 319 315 315 315 316 315 315 315 315 314 314 314 314 315 315 316 318 318 320 318 321 323 323 323 323 322 322 321 321 320 320 321 321 321 321 322 323 323 324 326 328
321 318 316 316 315 316 315 315 315 314 313 314 314 314 314 314 314 314 314 316 316 319 316 316 319 320 319 320 321 320 319 319 319 319 319 319 319 319 320 320 322 323 324
318 316 317 316 315 316 316 317 314 315 314 313 310 312 313 315 315 314 314 314 315 317 317 318 318 315 317 318 318 318 318 318 317 317 317 317 318 318 317 317 319 320 322
316 317 317 315 317 316 316 317 315 314 314 314 312 312 312 313 313 314 314 313 315 314 315 316 316 315 313 315 313 314 315 316 316 316 316 316 316 316 317 317 316 317 319
315 315 315 315 313 317 317 316 318 315 315 315 311 312 307 309 311 312 313 313 312 314 312 312 311 312 315 313 310 309 310 312 313 313 313 314 314 315 316 317 317 315 316
313 313 314 313 315 318 318 319 318 320 315 316 313 312 307 305 309 311 310 311 311 312 312 311 310 310 310 312 310 310 307 307 308 309 311 312 313 313 314 315 315 317 314
312 310 310 309 309 310 312 316 315 317 316 312 313 311 311 311 307 307 310 310 311 310 311 312 310 309 309 311 308 306 304 305 306 307 309 310 311 312 312 313 314 315 317
313 311 310 309 308 309 308 309 310 312 314 313 314 314 312 311 309 306 305 307 310 310 310 311 309 310 310 310 310 308 303 303 304 305 307 308 310 310 311 312 312 313 315
313 313 312 311 311 310 309 309 310 311 312 312 314 314 313 310 308 308 306 307 307 310 309 309 309 310 311 311 309 304 302 303 304 305 307 308 308 310 310 311 312 313 313
312 311 312 310 311 311 311 310 309 311 313 312 313 314 314 313 313 310 308 306 306 309 308 309 309 310 307 308 306 302 302 303 304 306 306 306 307 308 309 310 311 311 312
314 313 312 311 311 310 308 308 310 313 313 313 313 314 313 312 312 310 308 306 302 304 304 304 306 307 306 305 304 302 302 304 305 305 305 306 307 307 308 309 310 310 311
315 314 313 312 310 308 307 308 310 310 310 310 311 312 311 311 309 308 307 305 301 296 297 301 303 304 305 304 305 301 301 304 305 305 305 305 306 307 308 308 309 309 309
313 311 307 306 306 306 306 308 307 307 306 305 305 306 306 306 305 305 304 303 301 298 294 299 300 302 302 301 304 301 301 306 304 304 304 304 304 305 306 306 306 307 307
310 308 307 306 305 304 303 302 302 301 302 302 302 304 303 302 302 303 303 302 300 299 295 298 299 300 299 300 301 302 302 300 301 304 304 303 303 304 305 305 305 306 307
307 306 305 304 303 303 302 302 303 303 303 302 302 301 300 299 300 301 301 300 299 299 297 295 298 298 298 300 300 299 299 299 299 302 304 303 303 303 304 305 305 305 306
304 305 305 303 303 303 303 302 302 301 301 300 300 298 298 299 298 299 300 299 299 298 299 297 296 298 299 299 298 299 298 299 300 303 303 303 304 303 304 304 304 304 305
301 301 301 301 300 300 300 300 300 299 299 299 299 299 299 299 298 299 298 299 298 298 298 297 296 296 296 297 297 296 295 297 296 298 300 301 302 303 303 304 304 304 305
300 300 300 300 300 300 301 301 301 301 300 299 300 300 300 301 302 302 300 300 299 298 297 296 294 293 294 294 294 295 294 294 297 297 296 296 297 299 300 303 304 304 304
299 299 298 298 298 298 300 300 300 299 299 299 298 299 299 300 300 301 301 302 301 298 297 296 295 294 294 295 296 295 294 292 290 298 296 295 299 298 298 300 303 301 301
299 298 298 298 297 299 299 299 299 298 297 298 297 297 296 297 298 296 298 300 299 300 300 297 294 293 293 294 294 293 294 293 293 295 296 293 297 295 298 299 302 303 302
298 298 297 297 297 297 297 297 297 296 295 296 296 295 295 294 295 295 294 294 294 295 296 295 295 294 294 296 295 295 295 296 297 297 298 291 296 295 298 298 301 302 302
297 296 296 295 294 294 295 295 295 293 293 293 294 295 295 294 296 297 294 293 294 295 298 300 300 300 301 301 300 297 294 293 291 292 296 294 294 295 296 297 299 303 303
295 295 294 294 294 293 295 295 294 293 292 292 293 293 294 294 296 297 293 293 292 293 294 295 296 297 298 298 300 297 296 293 291 290 295 293 294 294 290 295 296 298 298

GFSMA_sfc_thetae_123.txt.gz
Theta_e
329 329 326 323 320 314 313 312 314 314 313 315 319 319 318 317 318 320 323 335 334 332 332 332 331 330 330 329 329 328 328 328 328 328 328 329 329 329 331 333 336 337 338
325 326 326 320 312 307 309 312 310 308 308 314 315 318 317 317 315 316 318 325 333 332 330 330 329 329 328 327 327 326 326 326 326 325 325 326 326 327 327 328 329 331 334
321 319 318 307 306 307 309 307 305 306 307 308 307 312 315 314 314 313 313 314 318 331 330 327 327 327 327 326 325 325 324 324 324 323 323 323 323 323 324 325 326 326 328
318 314 310 307 306 306 306 306 306 305 305 304 303 307 312 312 311 311 312 312 313 315 323 328 325 325 325 324 324 323 322 322 321 321 321 321 321 321 321 322 323 324 325
317 313 310 307 306 307 306 307 305 306 303 303 304 303 303 306 309 312 309 310 311 311 311 325 324 325 323 323 322 322 321 321 320 319 318 318 318 319 319 319 319 321 322
313 310 308 306 307 307 306 306 305 305 304 303 307 305 303 303 304 305 305 308 308 306 307 310 309 315 321 321 321 320 320 320 318 317 316 316 317 317 318 319 319 318 319
309 308 306 307 308 307 307 306 305 304 303 302 302 301 302 302 302 303 304 304 306 306 305 307 306 307 311 317 316 317 318 317 315 315 315 315 315 315 316 316 317 319 316
308 308 307 307 308 307 307 307 307 304 304 302 301 299 297 300 301 302 302 305 304 305 305 306 306 305 305 302 307 312 312 313 313 312 312 313 313 314 314 314 315 316 317
310 308 308 308 308 308 308 309 309 308 304 304 305 303 298 297 298 301 300 301 302 302 302 303 302 304 304 301 308 308 309 309 309 310 311 311 312 312 312 313 314 314 315
308 307 308 309 310 310 310 311 311 310 308 305 305 307 305 304 298 297 301 302 301 303 302 301 300 301 302 301 307 307 308 307 305 306 308 310 311 311 312 312 313 313 314
311 310 309 308 308 308 308 308 308 308 308 308 307 306 304 304 301 297 295 300 300 300 301 301 299 299 299 300 300 306 309 306 304 304 306 308 310 311 311 312 312 312 313
310 311 311 310 310 309 308 308 307 306 306 306 307 307 305 303 300 298 297 297 297 299 299 300 300 300 300 300 305 310 309 306 304 304 306 307 309 310 311 312 312 312 313
309 310 310 310 310 310 310 309 308 308 308 307 307 307 307 306 304 302 299 297 296 299 299 300 300 300 302 300 300 309 309 306 304 305 306 307 308 308 309 310 311 311 312
309 310 310 310 310 310 310 310 309 308 308 307 307 306 304 303 302 303 301 297 294 294 294 293 298 298 297 298 301 308 299 305 305 305 306 307 307 308 309 310 310 310 311
310 310 310 310 310 310 310 309 307 307 307 306 305 305 305 302 300 298 296 296 294 290 291 294 295 297 296 296 299 300 295 301 304 305 305 305 306 307 308 308 308 309 309
313 311 310 310 309 309 308 306 305 305 304 303 302 301 300 298 297 298 297 297 296 294 291 294 297 297 297 297 299 294 294 302 303 304 304 305 305 306 306 306 306 307 307
310 308 307 306 305 305 305 304 303 302 301 300 299 299 298 298 298 298 297 296 294 294 291 293 293 293 291 291 292 293 295 293 293 303 304 304 304 305 306 306 305 306 306
307 307 307 306 306 306 306 305 303 301 300 299 298 297 296 298 295 295 293 292 291 291 290 287 288 289 290 291 290 290 294 296 293 300 303 303 304 303 303 304 305 305 305
307 308 307 307 305 303 303 301 300 298 296 295 295 294 293 292 290 290 290 289 290 293 289 287 287 288 289 289 289 290 291 293 295 301 302 302 303 303 302 303 303 304 305
295 294 295 296 297 296 296 296 295 293 293 293 294 293 292 292 290 289 292 291 292 290 289 289 288 289 289 291 289 290 291 289 291 295 298 301 302 303 302 302 303 304 305
293 294 294 295 296 297 298 294 294 292 291 292 293 293 294 298 301 298 295 292 291 290 289 288 287 288 289 289 288 289 289 289 289 290 290 291 294 296 297 301 302 303 304
291 292 291 293 294 298 302 301 295 291 291 290 290 290 291 295 296 298 299 299 297 290 292 291 292 290 287 288 288 289 289 287 285 290 289 290 292 291 293 294 300 302 302
289 289 290 292 292 293 300 299 298 289 288 287 287 287 290 292 292 290 295 297 296 298 298 292 287 287 286 288 287 286 285 285 286 289 290 289 293 290 292 296 301 301 302
288 288 288 290 290 294 297 297 296 288 287 287 287 288 287 287 289 292 290 290 290 290 292 293 290 290 290 290 291 294 294 292 291 293 295 290 293 291 293 293 299 301 302
287 286 287 287 288 288 296 296 292 288 287 286 288 287 288 287 293 296 290 290 289 289 295 298 298 299 300 300 298 294 291 291 290 291 291 292 290 292 294 293 294 299 302
287 287 286 286 292 286 295 295 291 287 284 286 286 287 293 291 295 296 293 292 290 290 290 292 294 295 295 292 297 292 291 290 290 287 289 290 292 292 290 289 290 291 291

GFSMA_sfc_thetae_126.txt.gz
Theta_e
329 325 322 320 318 317 318 315 314 314 317 317 318 319 317 317 318 321 324 335 334 332 332 332 332 331 330 330 329 329 328 328 328 328 328 328 329 329 330 332 334 336 337
329 325 321 318 314 313 310 312 309 314 315 317 316 318 316 315 316 318 320 326 334 332 331 330 330 330 329 328 328 327 326 326 326 325 325 325 326 326 327 327 328 330 333
328 324 321 315 311 307 310 305 305 311 312 316 312 314 315 313 313 313 314 315 320 332 331 328 328 328 327 327 326 325 324 324 323 323 323 323 323 323 323 325 326 326 327
325 322 317 310 306 306 306 305 305 306 307 311 311 312 312 312 311 311 312 312 313 314 325 330 327 326 326 325 325 324 323 322 322 321 321 320 321 321 321 321 323 324 325
321 319 310 305 305 305 305 306 304 306 305 304 308 307 309 309 309 311 309 310 313 312 313 326 328 326 324 324 323 323 322 321 320 319 319 319 319 320 320 320 320 320 321
316 312 306 305 305 305 304 304 304 303 304 303 308 305 304 306 306 307 307 309 307 308 309 310 309 316 323 322 321 321 321 319 318 317 317 317 317 318 318 318 319 320 318
313 308 305 305 306 305 304 304 303 303 302 302 302 300 301 300 301 302 303 305 304 303 307 306 307 307 312 318 318 318 318 317 316 316 316 316 316 316 316 317 317 317 319
310 307 306 305 305 305 304 305 305 303 303 303 301 299 297 299 299 301 301 303 303 304 304 306 305 306 304 303 308 314 313 313 314 314 314 314 314 315 315 315 315 316 316
308 306 306 306 305 305 305 305 306 305 305 305 304 302 296 297 299 299 299 301 301 302 303 303 305 305 302 301 308 309 310 309 309 310 311 311 312 313 313 314 314 314 315
309 307 307 306 306 306 307 307 309 307 308 304 305 306 304 304 300 299 302 299 300 302 301 301 301 303 302 301 307 308 310 308 306 307 308 309 311 312 313 313 314 313 313
311 310 308 307 307 308 308 309 309 309 308 307 306 305 304 303 302 299 297 299 299 299 300 299 299 299 300 300 303 306 311 309 306 305 306 308 310 311 312 313 313 313 313
310 311 310 309 309 308 307 307 307 307 307 306 307 307 305 303 301 300 299 298 297 299 298 298 297 297 298 299 303 308 313 309 306 305 305 307 308 309 310 312 313 313 313
310 310 310 310 309 310 309 309 308 308 307 307 306 307 306 306 305 303 301 298 296 297 297 297 298 299 301 299 300 311 313 309 306 305 306 306 308 308 309 310 311 311 312
309 310 310 310 310 310 310 310 309 309 307 306 306 305 305 305 304 303 302 299 293 293 292 291 295 295 296 296 301 312 302 308 306 306 306 306 307 307 308 309 309 309 310
310 310 310 310 310 310 310 309 308 307 307 306 305 305 305 303 301 300 300 300 298 290 290 293 294 297 296 296 298 300 296 300 304 304 305 305 306 307 307 307 308 308 308
310 309 309 309 309 309 308 308 306 306 305 303 303 303 301 299 298 298 297 295 296 295 293 294 295 295 294 297 301 294 294 301 302 303 304 305 305 305 305 306 307 308 307
311 310 309 309 308 307 307 305 305 303 303 301 300 300 298 298 297 297 297 296 294 293 291 293 292 291 290 290 291 292 294 292 293 301 303 303 304 305 305 304 304 305 306
307 306 306 306 305 305 304 303 302 301 300 298 298 297 297 298 295 294 294 292 291 289 289 286 287 288 289 289 289 289 292 295 292 299 304 303 304 303 303 303 303 303 304
307 307 307 305 303 303 300 301 301 300 299 298 296 293 292 292 290 289 290 290 290 292 288 287 288 288 289 289 289 289 290 291 294 300 302 302 302 303 303 302 303 303 303
296 297 297 297 296 295 295 294 293 292 292 292 292 292 291 291 290 289 291 290 291 290 288 287 287 288 288 289 288 288 289 289 290 295 297 300 302 302 302 303 302 302 304
292 294 294 294 295 296 295 292 291 290 290 290 291 292 294 297 301 296 293 291 290 288 287 286 286 286 287 287 287 288 287 288 289 289 289 291 291 291 293 299 301 301 302
291 293 293 293 294 297 301 299 292 289 289 289 289 289 291 295 295 298 297 298 295 288 286 287 286 285 285 286 286 287 286 285 283 288 287 288 290 289 291 292 299 301 302
289 290 291 291 291 293 300 299 295 288 287 286 286 287 289 292 292 290 295 296 295 297 296 289 286 285 284 286 286 285 286 287 288 290 290 289 289 290 292 295 299 301 302
287 287 289 290 290 293 298 297 295 287 286 286 286 286 286 286 288 291 289 289 289 289 290 291 289 288 288 289 291 293 292 291 291 291 294 289 292 290 292 293 299 300 301
286 286 288 288 288 287 297 296 290 285 285 285 286 287 287 286 293 295 289 290 291 292 296 298 298 298 298 298 297 291 287 286 286 287 291 292 291 288 290 291 293 298 299
285 285 285 284 290 285 295 295 290 286 284 285 286 287 293 291 295 297 295 292 289 287 291 291 292 292 291 290 295 290 289 288 287 288 291 289 287 290 287 292 288 289 289

GFSMA_sfc_thetae_129.txt.gz
Theta_e
327 324 321 318 317 318 317 315 315 317 316 316 317 318 317 318 319 321 324 335 334 333 333 333 332 331 330 330 329 329 328 328 328 328 328 328 329 329 329 330 333 335 336
326 323 319 316 315 315 312 312 317 317 315 316 316 316 315 316 317 319 321 326 334 333 331 331 330 330 329 328 328 327 326 326 326 325 325 325 326 326 327 328 328 328 331
326 322 317 314 312 308 309 308 312 314 314 316 313 314 315 314 314 314 315 317 321 332 331 329 329 328 328 327 327 326 325 324 324 323 323 323 324 324 324 324 325 326 327
327 321 317 313 308 307 305 310 313 312 310 313 311 312 312 312 311 311 312 313 313 315 327 330 327 327 327 326 325 324 323 323 322 322 322 322 322 322 323 323 322 323 324
327 322 316 310 305 305 305 310 306 312 309 309 311 309 310 310 310 312 310 311 313 312 313 328 329 327 325 325 324 323 322 321 320 320 320 320 320 320 320 320 321 322 321
325 319 311 307 305 304 303 304 305 303 309 310 312 306 305 306 307 307 308 310 309 310 310 309 310 316 324 322 323 322 321 319 319 318 318 318 318 318 319 318 319 319 320
322 315 307 304 304 305 304 304 302 304 301 303 303 301 301 301 302 303 303 305 304 306 307 306 307 308 312 319 319 319 319 318 317 317 316 317 316 316 317 316 317 317 317
316 314 306 304 304 303 303 303 304 302 301 301 300 299 298 300 299 301 300 303 302 302 304 304 305 306 305 304 308 314 314 314 314 314 314 314 315 316 315 316 316 316 316
313 309 305 305 304 305 304 303 304 303 301 302 301 301 297 296 296 298 298 300 301 301 301 303 303 305 302 301 309 311 312 310 310 311 312 313 314 315 315 315 315 315 315
311 310 306 305 305 305 305 304 305 304 303 301 303 305 304 303 299 297 298 298 301 303 302 301 302 303 302 300 307 308 311 309 307 307 309 311 312 313 314 314 315 315 315
312 311 307 306 305 305 305 307 305 304 304 304 303 304 304 303 302 299 297 299 301 301 301 300 300 301 302 300 302 305 312 310 306 305 307 309 310 311 312 313 313 314 314
310 311 310 308 306 306 307 307 307 307 307 307 307 307 305 303 301 300 299 299 299 300 298 296 296 297 299 299 303 308 312 312 307 305 306 307 308 310 311 312 312 313 313
309 309 310 309 309 309 309 308 308 307 307 307 307 306 306 306 305 303 302 299 299 299 297 296 296 297 299 298 298 307 311 312 308 306 306 306 308 308 309 310 311 311 311
309 310 310 310 310 310 310 310 309 308 307 306 305 305 305 305 305 304 303 301 297 295 292 291 293 295 295 295 299 310 304 309 308 307 305 306 307 307 308 309 309 309 310
310 310 310 309 310 310 309 309 308 307 307 306 305 305 305 304 303 303 303 300 296 290 292 294 292 293 295 297 299 301 297 301 304 304 304 305 306 306 307 307 307 308 308
310 309 309 309 309 309 308 308 307 306 306 305 304 304 303 300 299 298 296 296 297 296 294 293 294 295 294 296 299 293 293 303 303 303 304 304 304 305 305 306 306 306 306
308 308 309 308 308 307 307 306 305 305 304 303 301 302 299 298 297 297 297 296 295 294 290 289 290 289 289 290 291 291 292 291 291 301 304 304 305 304 305 305 304 305 305
309 308 308 307 306 306 305 305 303 302 301 299 299 298 297 298 295 295 294 293 290 288 289 286 287 288 289 289 289 289 292 294 291 299 303 304 304 304 304 304 304 303 303
307 306 306 304 302 301 301 301 301 300 299 298 297 296 294 294 291 291 290 289 289 291 287 287 287 287 288 288 288 289 289 290 294 300 302 302 302 303 304 303 303 302 303
299 298 297 296 296 295 295 294 294 292 293 293 292 291 290 290 289 289 290 289 290 288 287 287 286 286 286 288 287 287 287 288 289 294 297 299 300 301 301 301 301 302 303
294 295 295 295 295 294 294 291 291 290 290 290 290 292 293 295 300 295 292 290 289 287 286 285 285 285 285 285 285 286 286 286 288 288 288 288 289 290 292 297 299 300 301
292 293 293 294 294 297 300 298 291 288 288 289 288 288 291 293 296 298 298 299 293 288 285 285 285 284 284 284 285 284 284 284 286 287 286 288 288 288 290 291 298 300 302
290 290 290 291 291 293 300 298 294 286 286 285 286 287 289 291 292 290 295 296 294 296 295 287 284 284 283 285 285 284 289 289 289 289 287 288 288 290 292 294 298 300 301
288 288 288 289 289 294 298 297 294 285 285 285 285 286 285 285 287 290 288 287 287 288 289 290 288 291 290 291 291 293 292 291 288 288 289 288 290 290 291 291 297 299 299
285 287 288 287 287 288 297 295 289 285 285 284 286 286 286 285 292 296 289 288 291 292 295 297 297 296 296 295 294 289 285 287 286 288 287 289 291 290 288 290 290 297 297
285 287 285 285 291 287 296 295 289 285 284 285 285 286 292 291 296 297 295 292 289 289 290 288 287 287 288 288 293 287 286 286 285 285 291 288 289 290 288 292 289 291 292